     2              OBSERVATION DATA    GPS                 RINEX VERSION / TYPE
teqc 1998Mar9 19981006 17:15:23UTC                          PGM / RUN BY / DATE
                                                            COMMENT
Original Marker Name: 0616                                  COMMENT
Campaign Name: HPGN 1998                                    COMMENT
4-Character Station Name: 0616                              COMMENT
6-Character Antenna Code: TRMCMP                            COMMENT
Vertical Measurement Point: BPA                             COMMENT
Vertical Offset to Rinex Ref. Point: 0.0000                 COMMENT
Radial Measurement Point: RRP                               COMMENT
Radial Offset to Rinex Ref. Point: 0.0000                   COMMENT
Antenna Height from Field Measurement: 2.0000 m             COMMENT
Original XYZ: -2545587.6250 -4549720.9397 3662104.8358      COMMENT
New XYZ position is based on association with SCEC monument COMMENT
E1E9X5H9+0011. Position of that monument is believed to be  COMMENT
valid to within 1 m horizontally; vertical accuracy         COMMENT
should be no worse than 3-times this value.                 COMMENT
                                                            COMMENT
Revised Rinex header created by UCSD GPS archive for        COMMENT
GSAC on 19-Apr-1999 (1999:109) 06:14:30 GMT                 COMMENT
For assistance contact dagnew@ucsd.edu or hjohnson@ucsd.edu COMMENT
                                                            COMMENT
HPGN CA 06 16                                               MARKER NAME
unknown CALIF DEPT TRANSPORTATION                           OBSERVER / AGENCY
7882 TRIMBLE 4000 SSE NP 7.25; SP 3.07                      REC # / TYPE / VERS
114383 TR GEOD L1/L2 GP                                     ANT # / TYPE
 -2545588.0000 -4549722.0000  3662107.0000                  APPROX POSITION XYZ
        2.0000        0.0000        0.0000                  ANTENNA: DELTA H/E/N
     1     1     0                                          WAVELENGTH FACT L1/2
     7    L1    L2    C1    P2    P1    D1    D2            # / TYPES OF OBSERV
     0                                                      INTERVAL
  1998     6    26    19     5   30.000000                  TIME OF FIRST OBS
  1998     6    27     0    36   30.000000                  TIME OF LAST OBS
                                                            END OF HEADER
 98  6 26 19  5 30.0000000  0  6G 5G 6G30G10G17G24
   1295332.01356   1009349.37055  22984679.6484   22984682.4964
     -5065.7344      -3947.3254
     -5691.20657     -3915.21557  21069659.2734   21069660.4804
      -214.0624       -166.8024
    912472.74657    614366.08157  21246131.3204   21246132.0944
     -3741.2814      -2915.2844
    851499.07457    659105.70856  21757113.8834   21757116.0514
     -3453.4374      -2690.9904
   -153106.93156   -117238.73556  22429010.9144   22429013.4104
       333.9384        260.2114
   1116685.52154    842783.45653  24188764.2584   24188768.3484
     -4365.7974      -3401.9204
 98  6 26 19  5 45.0000000  0  6G 5G 6G30G10G17G24
   1371460.28946   1068670.06645  22999166.6094   22999169.0354
     -5084.5944      -3962.0214
     -2332.46047     -1297.99447  21070298.1644   21070299.3714
      -233.6564       -182.0704
    968773.64247    658236.90747  21256845.2344   21256845.9844
     -3765.3284      -2934.0224
    903484.23347    699613.62446  21767006.3054   21767008.4384
     -3477.8124      -2709.9844
   -157966.32746   -121025.26146  22428086.1254   22428088.5744
       314.0784        244.7364
   1182290.13244    893903.87143  24201248.0314   24201251.3594
     -4381.2974      -3413.9984
 98  6 26 19  6  0.0000000  0  6G 5G 6G30G10G17G24
   1447868.72246   1128209.06745  23013706.2504   23013708.7934
     -5103.1874      -3976.5104
      1319.10947      1547.40247  21070993.0944   21070994.2894
      -253.2034       -197.3014
   1025431.84747    702386.15647  21267627.1644   21267628.0664
     -3789.0944      -2952.5414
    955832.82247    740404.74246  21776967.6954   21776969.8524
     -3502.0314      -2728.8564
   -162528.21146   -124579.95346  22427218.1254   22427220.6454
       294.2034        229.2494
   1248123.85944    945202.91643  24213776.6564   24213779.1994
     -4396.5314      -3425.8694
 98  6 26 19  6 15.0000000  0  6G 5G 6G30G10G17G24
   1524559.00646   1187967.69545  23028300.1094   23028302.7234
     -5122.1874      -3991.3154
      5265.19247      4622.28347  21071744.0474   21071745.2074
      -272.8754       -212.6304
   1082448.89247    746815.02147  21278477.0394   21278477.7894
     -3813.0944      -2971.2424
   1008548.50947    781481.90046  21786999.5234   21787001.5744
     -3526.6564      -2748.0444
   -166791.20546   -127901.73646  22426407.2274   22426409.7584
       274.2504        213.7014
   1314188.88944    996682.12542  24226348.6884   24226352.3324
     -4412.0314      -3437.9464
 98  6 26 19  6 30.0000000  0  6G 5G 6G30G10G17G24
   1601534.60546   1247948.64845  23042948.3204   23042951.0044
     -5141.1724      -4006.1084
      9505.72047      7926.60547  21072550.9694   21072552.2234
      -292.4844       -227.9104
   1139823.21747    791522.28047  21289394.8284   21289395.7424
     -3836.7664      -2989.6874
   1061632.05947    822845.71346  21797101.0314   21797103.1414
     -3551.0624      -2767.0624
   -170755.35146   -130990.65246  22425652.7034   22425655.6094
       254.3134        198.1664
   1380483.05744   1048339.87942  24238963.9224   24238968.6334
     -4427.0624      -3449.6594
 98  6 26 19  6 45.0000000  0  6G 5G 6G30G10G17G24
   1678792.48746   1308149.56245  23057649.9144   23057652.6094
     -5159.6254      -4020.4874
     14038.23747     11458.45147  21073413.6174   21073414.7894
      -311.6414       -242.8374
   1197551.48047    836505.33947  21300380.2584   21300381.2544
     -3860.0944      -3007.8654
   1115079.83247    864493.33346  21807271.7894   21807273.7934
     -3575.0944      -2785.7874
   -174421.67546   -133847.51246  22424955.0634   22424957.5234
       234.7034        182.8864
   1446998.95045   1100170.47443  24251620.9614   24251625.7194
     -4441.4844      -3460.8974
 98  6 26 19  7  0.0000000  0  6G 5G 6G30G10G17G24
   1756322.64846   1368562.63045  23072403.5864   23072406.2114
     -5177.7344      -4034.5984
     18854.50947     15211.40647  21074330.0554   21074331.1094
      -330.5784       -257.5934
   1255625.12247    881757.52447  21311431.3834   21311432.2734
     -3883.1094      -3025.8004
   1168883.98947    906418.65346  21817510.2424   21817512.6454
     -3598.8284      -2804.2824
   -177795.62246   -136476.54346  22424312.9064   22424315.1334
       215.1094        167.6184
   1513727.05545   1152166.33442  24264319.4534   24264322.8984
     -4455.6254      -3471.9164
 98  6 26 19  7 15.0000000  0  6G 5G 6G30G10G17G24
   1834120.78846   1429184.52045  23087207.7814   23087210.7814
     -5195.3754      -4048.3444
     23952.44647     19183.83947  21075300.3444   21075301.3754
      -349.2034       -272.1064
   1314040.83347    927276.25847  21322547.3834   21322548.2624
     -3905.6254      -3043.3444
   1223041.62847    948619.40746  21827816.0554   21827818.3404
     -3622.2034      -2822.4964
   -180878.22246   -138878.55146  22423726.5314   22423728.7704
       195.8754        152.6304
   1580663.04145   1204324.21843  24277057.0554   24277059.6094
     -4469.1874      -3482.4844
 98  6 26 19  7 30.0000000  0  6G 5G 6G30G10G17G24
   1912184.98746   1490013.72745  23102062.9384   23102065.9144
     -5213.1094      -4062.1634
     29332.15447     23375.83547  21076324.1484   21076325.3324
      -368.0004       -286.7534
   1372794.86347    973058.62147  21333728.1094   21333728.8594
     -3928.2034      -3060.9374
   1277550.99847    991094.24246  21838188.9304   21838190.9924
     -3645.6254      -2840.7474
   -183670.71846   -141054.49746  22423194.8134   22423197.0394
       176.5784        137.5934
   1647802.77345   1256640.89743  24289833.2034   24289835.5824
     -4482.7664      -3493.0644
 98  6 26 19  7 45.0000000  0  6G 5G 6G30G10G17G24
   1990515.77246   1551050.65345  23116968.8364   23116972.0234
     -5231.0784      -4076.1654
     34993.06447     27786.95047  21077401.0474   21077402.2424
      -386.7814       -301.3884
   1431887.23247   1019104.62147  21344973.0944   21344973.8794
     -3950.8284      -3078.5674
   1332409.58147   1033841.19746  21848628.1884   21848630.2504
     -3668.8914      -2858.8764
   -186174.89746   -143005.78146  22422718.2584   22422720.8364
       157.2974        122.5694
   1715145.96545   1309116.10144  24302648.2894   24302652.0634
     -4496.3594      -3503.6574
 98  6 26 19  8  0.0000000  0  6G 5G 6G30G10G17G24
   2069115.53546   1612297.18745  23131926.0784   23131928.8794
     -5248.8594      -4090.0204
     40932.74347     32415.28147  21078531.2584   21078532.5124
      -405.0944       -315.6574
   1491317.97747   1065414.29147  21356282.4224   21356283.4884
     -3973.2974      -3096.0754
   1387614.16647   1076857.75446  21859133.4844   21859135.4414
     -3691.6564      -2876.6154
   -188392.38946   -144733.68446  22422296.3054   22422298.9304
       138.4064        107.8494
   1782691.27745   1361748.78244  24315501.7344   24315505.3554
     -4509.6724      -3514.0304
 98  6 26 19  8 15.0000000  0  6G 5G 6G30G10G17G24
   2147983.12546   1673752.41845  23146934.2344   23146937.3874
     -5266.5004      -4103.7664
     47147.30347     37257.81247  21079714.1484   21079715.4844
      -423.2344       -329.7934
   1551087.26947   1111987.75647  21367656.3284   21367657.4064
     -3995.6094      -3113.4624
   1443159.75146   1120140.02846  21869703.3754   21869705.5434
     -3714.1874      -2894.1724
   -190326.67146   -146240.89746  22421928.3364   22421931.1604
       119.8754         93.4094
   1850438.99045   1414539.19344  24328394.2814   24328398.4414
     -4523.0944      -3524.4894
 98  6 26 19  8 30.0000000  0  6G 5G 6G30G10G17G24
   2227113.66646   1735412.53945  23161992.1804   23161994.5354
     -5284.1414      -4117.5124
     53633.00047     42311.61447  21080948.4614   21080949.7034
      -441.4844       -344.0144
   1611188.50947   1158819.88747  21379093.1254   21379094.1914
     -4017.7814      -3130.7394
   1499041.21747   1163684.02646  21880337.2974   21880339.6644
     -3736.5164      -2911.5714
   -191987.69146   -147535.17146  22421612.4774   22421614.9734
       101.6564         79.2134
   1918386.00545   1467484.90543  24341323.4924   24341326.5864
     -4536.4064      -3534.8624
 98  6 26 19  8 45.0000000  0  6G 5G 6G30G10G17G24
   2306501.33146   1797273.01045  23177099.5474   23177102.4534
     -5301.3754      -4130.9424
     60388.46247     47575.62647  21082233.8444   21082234.9924
      -459.7034       -358.2104
   1671616.25347   1205906.43247  21390591.9454   21390592.8364
     -4039.7504      -3147.8574
   1555251.50846   1207484.25246  21891033.7194   21891035.9224
     -3758.6564      -2928.8234
   -193380.69046   -148620.60746  22421347.6334   22421349.8834
        83.6254         65.1624
   1986528.25045   1520582.74943  24354290.2814   24354293.5634
     -4549.7814      -3545.2844
 98  6 26 19  9  0.0000000  0  6G 5G 6G30G10G17G24
   2386152.76546   1859339.03145  23192256.5164   23192259.2344
     -5318.9224      -4144.6144
     67422.73547     53056.88847  21083572.1644   21083573.3364
      -478.2814       -372.6874
   1732379.35947   1253254.30147  21402154.8984   21402155.9774
     -4062.0944      -3165.2684
   1611799.03346   1251547.25846  21901794.4454   21901796.7194
     -3781.0784      -2946.2954
   -194499.76246   -149492.59046  22421134.2114   22421136.5314
        65.5164         51.0514
   2054879.59545   1573843.52343  24367297.7584   24367300.5124
     -4563.8284      -3556.2304
 98  6 26 19  9 15.0010000  0  6G 5G 6G30G10G17G24
   2466073.24446   1921614.68345  23207464.7634   23207467.8564
     -5336.3594      -4158.2024
     74735.59147     58755.22847  21084963.9114   21084965.2244
      -496.6254       -386.9814
   1793481.45247   1300866.31547  21413782.3804   21413783.3414
     -4084.2814      -3182.5574
   1668685.41546   1295874.30846  21912619.5524   21912621.8374
     -3803.2194      -2963.5474
   -195348.12746   -150153.63446  22420973.0214   22420975.6224
        47.7344         37.1964
   2123447.17945   1627272.77344  24380345.0524   24380347.5714
     -4577.8444      -3567.1514
 98  6 26 19  9 30.0010000  0  6G 5G 6G30G10G17G24
   2546250.35845   1984090.32645  23222722.2164   23222725.0404
     -5353.8754      -4171.8514
     82324.06647     64668.33847  21086407.7314   21086408.9974
      -515.1254       -401.3964
   1854913.33247   1348735.30347  21425472.3174   21425473.3724
     -4106.6094      -3199.9554
   1725900.52547   1340457.51246  21923507.2244   21923509.6494
     -3825.3594      -2980.8004
   -195930.16346   -150607.14446  22420862.0674   22420864.5634
        29.9064         23.3044
   2192221.11445   1680862.83543  24393432.4744   24393434.7004
     -4591.9844      -3578.1704
 98  6 26 19  9 45.0010000  0  6G 5G 6G30G10G17G24
   2626688.48345   2046769.33545  23238028.9664   23238031.7204
     -5371.4844      -4185.5724
     90189.27847     70797.07947  21087904.5674   21087905.7514
      -533.8754       -416.0064
   1916680.25447   1396865.36247  21437226.2554   21437227.2744
     -4129.2344      -3217.5854
   1783445.90847   1385298.06846  21934457.6614   21934460.0054
     -3847.7034      -2998.2104
   -196245.68546   -150852.99046  22420801.9504   22420804.7634
        11.9224          9.2904
   2261207.46245   1734618.40144  24406560.8334   24406564.3254
     -4606.4694      -3589.4564
 98  6 26 19 10  0.0010000  0  6G 5G 6G30G10G17G24
   2707389.22245   2109652.99745  23253385.7004   23253388.8414
     -5388.5944      -4198.9044
     98334.50347     77144.02547  21089454.6614   21089456.1494
      -552.1564       -430.2524
   1978784.27147   1445258.09147  21449044.1464   21449045.2124
     -4151.3124      -3234.7894
   1841327.62646   1430400.70546  21945472.1774   21945474.3684
     -3869.9064      -3015.5114
   -196292.93746   -150889.79146  22420792.6384   22420795.5914
        -5.6254         -4.3834
   2330409.42045   1788541.96343  24419728.7784   24419733.3024
     -4620.4224      -3600.3294
 98  6 26 19 10 15.0010000  0  6G 5G 6G30G10G17G24
   2788345.13745   2172735.47745  23268791.0444   23268794.4314
     -5405.3754      -4211.9814
    106755.43047     83705.79847  21091056.9894   21091058.5134
      -570.5164       -444.5584
   2041220.28347   1493909.52547  21460925.4664   21460926.4854
     -4173.2814      -3251.9074
   1899542.53946   1475762.97446  21956550.0604   21956552.6144
     -3891.9224      -3032.6664
   -196076.36346   -150721.01246  22420834.3024   22420837.1734
       -23.0624        -17.9714
   2399819.57545   1842627.78044  24432937.0754   24432940.9894
     -4634.1414      -3611.0194
 98  6 26 19 10 30.0010000  0  6G 5G 6G30G10G17G24
   2869550.46545   2236012.32345  23284243.9504   23284247.1494
     -5422.0004      -4224.9354
    115450.69647     90481.34047  21092711.7944   21092713.3174
      -588.8444       -458.8394
   2103980.59947   1542813.65947  21472868.4194   21472869.4154
     -4194.7814      -3268.6614
   1958086.14546   1521381.36446  21967690.5444   21967692.9464
     -3913.9224      -3049.8094
   -195601.37146   -150350.86946  22420924.3104   22420927.2164
       -40.3284        -31.4254
   2469432.95345   1896871.95744  24446184.6304   24446187.7944
     -4647.6414      -3621.5384
 98  6 26 19 10 45.0010000  0  6G 5G 6G30G10G17G24
   2951005.66245   2299483.86945  23299744.7474   23299747.8414
     -5438.6094      -4237.8774
    124420.27347     97470.63647  21094418.4584   21094419.8884
      -606.9844       -472.9754
   2167064.74847   1591970.13047  21484872.8174   21484873.7554
     -4216.3444      -3285.4634
   2016959.11547   1567256.40746  21978893.7944   21978896.1964
     -3935.7194      -3066.7944
   -194864.52746   -149776.68446  22421065.1464   22421067.7244
       -57.9224        -45.1344
   2539248.05645   1951273.30544  24459469.4664   24459473.0754
     -4660.9844      -3631.9364
 98  6 26 19 11  0.0010000  0  6G 5G 6G30G10G17G24
   3032707.75145   2363147.79645  23315291.9114   23315295.6144
     -5454.9844      -4250.6374
    133657.28247    104668.31347  21096176.4424   21096177.7554
      -624.5624       -486.6724
   2230469.32747   1641376.28747  21496938.3024   21496939.2514
     -4237.5784      -3302.0094
   2076156.85747   1613384.51446  21990158.9034   21990161.3294
     -3957.2504      -3083.5714
   -193864.31246   -148997.27946  22421254.8254   22421257.3924
       -75.4064        -58.7584
   2609260.91745   2005828.76843  24472793.1924   24472798.2784
     -4674.0004      -3642.0784
 98  6 26 19 11 15.0010000  0  6G 5G 6G30G10G17G24
   3114657.58245   2427004.76145  23330886.4504   23330889.2744
     -5471.5474      -4263.5434
    143159.25447    112072.46147  21097984.3884   21097985.6774
      -642.2344       -500.4424
   2294195.10147   1691032.72347  21509065.0054   21509065.9074
     -4259.0474      -3318.7384
   2135678.37947   1659764.91846  22001485.4274   22001487.7594
     -3978.8124      -3100.3734
   -192599.82746   -148011.94846  22421495.7084   22421498.2864
       -93.1094        -72.5534
   2679467.41245   2060535.09843  24486152.6614   24486158.3924
     -4686.7034      -3651.9764
 98  6 26 19 11 30.0010000  0  6G 5G 6G30G10G17G24
   3196853.46845   2491053.45545  23346527.6064   23346530.5834
     -5487.8914      -4276.2784
    152923.78247    119681.19647  21099842.5524   21099843.9354
      -659.6874       -514.0424
   2358239.06347   1740937.10347  21521252.1144   21521253.1924
     -4280.1094      -3335.1504
   2195520.51347   1706395.15046  22012872.9274   22012875.2004
     -4000.1414      -3116.9934
   -191071.27746   -146820.85646  22421786.6924   22421789.0604
      -110.6254        -86.2014
   2749860.56745   2115386.88043  24499548.1614   24499551.8294
     -4699.0164      -3661.5714
 98  6 26 19 11 45.0010000  0  6G 5G 6G30G10G17G24
   3279292.62545   2555291.72445  23362215.7244   23362218.2904
     -5503.9844      -4288.8194
    162948.04947    127492.32647  21101750.1924   21101751.4354
      -676.8594       -527.4234
   2422595.08847   1791084.64147  21533498.7004   21533499.6854
     -4300.6094      -3351.1244
   2255680.47747   1753273.04346  22024321.0524   22024323.3134
     -4021.1564      -3133.3694
   -189282.00246   -145426.59846  22422127.0524   22422129.7714
      -127.9224        -99.6794
   2820436.86245   2170381.37443  24512978.2314   24512981.8644
     -4711.1094      -3670.9944
 98  6 26 19 12  0.0010000  0  7G 5G 6G30G10G26G17G24
   3361973.41245   2619718.28245  23377949.5054   23377952.9274
     -5520.2814      -4301.5184
    173229.51247    135503.86347  21103706.6534   21103707.8964
      -694.1724       -540.9134
   2487257.15547   1841470.66147  21545803.4664   21545804.6264
     -4321.1094      -3367.0984
   2316156.99547   1800397.59746  22035829.2944   22035831.4854
     -4042.5624      -3150.0494
     -2708.12555                  24747772.3884
       675.1094
   -187233.34446   -143830.22046  22422516.8254   22422519.2984
      -145.3754       -113.2794
   2891194.10244   2225516.87343  24526442.9274   24526447.0994
     -4723.3444      -3680.5284
 98  6 26 19 12 15.0010000  0  7G 5G 6G30G10G26G17G24
   3444899.97045   2684336.32245  23393729.9744   23393733.2554
     -5536.5474      -4314.1924
    183771.06647    143718.07647  21105712.5444   21105713.8804
      -711.3594       -554.3064
   2552227.12147   1892096.60247  21558166.9424   21558167.9974
     -4341.5004      -3382.9874
   2376954.15847   1847772.00746  22047398.9194   22047401.0524
     -4063.6094      -3166.4494
    -12734.15744                  24745864.2314
       661.7344
   -184921.73146   -142028.94246  22422956.6144   22422959.0174
      -162.7974       -126.8554
   2962136.00344   2280796.23943  24539943.1854   24539947.1224
     -4735.5474      -3690.0374
 98  6 26 19 12 30.0010000  0  7G 5G 6G30G10G26G17G24
   3528067.10345   2749141.85145  23409556.0604   23409559.3414
     -5552.4224      -4326.5624
    194567.53347    152130.91647  21107767.1694   21107768.5174
      -728.1094       -567.3584
   2617498.19647   1942957.17047  21570587.8644   21570588.8844
     -4361.3124      -3398.4254
   2438061.49647   1895388.11146  22059027.2004   22059029.3564
     -4084.0624      -3182.3864
    -22561.54044                  24743993.8494
       648.5784
   -182351.85446   -140026.42546  22423445.8494   22423448.3684
      -179.8444       -140.1384
   3033259.65244   2336217.30642  24553476.9584   24553483.4854
     -4747.6564      -3699.4724
 98  6 26 19 12 45.0010000  0  7G 5G 6G30G10G26G17G24
   3611471.58945   2814132.30545  23425427.0914   23425430.0564
     -5568.2664      -4338.9084
    205613.05747    160737.83047  21109869.0134   21109870.2784
      -744.7344       -580.3124
   2683066.67047   1994049.47447  21583064.9274   21583065.9814
     -4381.3124      -3414.0104
   2499475.98447   1943243.55046  22070713.9274   22070715.9894
     -4104.6414      -3198.4214
    -32190.37644                  24742161.6774
       635.1094
   -179526.72546   -137825.00946  22423983.4034   22423985.9354
      -196.9694       -153.4824
   3104565.53844   2391780.28642  24567046.0914   24567049.3844
     -4759.9224      -3709.0304
 98  6 26 19 13  0.0010000  0  7G 5G 6G30G10G26G17G24
   3695112.93745   2879307.34245  23441343.7554   23441346.8604
     -5584.1094      -4351.2544
    216908.70947    169539.64447  21112018.5284   21112019.8644
      -761.5944       -593.4504
   2748935.43547   2045375.78047  21595599.3104   21595600.1424
     -4401.4064      -3429.6674
   2561198.12347   1991338.72646  22082459.2394   22082461.3844
     -4125.2504      -3214.4814
    -41615.89144                  24740367.8564
       621.4064
   -176444.90446   -135423.57146  22424569.7474   22424572.1734
      -214.1094       -166.8384
   3176054.84944   2447486.20142  24580649.7554   24580654.4424
     -4772.2664      -3718.6494
 98  6 26 19 13 15.0010000  0  7G 5G 6G30G10G26G17G24
   3778988.56245   2944664.92745  23457304.8254   23457307.8134
     -5599.4694      -4363.2224
    228457.53447    178538.73947  21114216.3104   21114217.7044
      -778.4844       -606.6114
   2815104.34947   2096935.96647  21608190.9354   21608191.7084
     -4421.3124      -3445.1794
   2623230.42047   2039675.57246  22094263.6384   22094265.9114
     -4145.9064      -3230.5764
    -50837.48244     -1900.77652  24738613.4424   24738620.6064
       607.9384        473.7184
   -173109.12446   -132824.24246  22425204.7244   22425207.2084
      -230.8594       -179.8904
   3247728.49143   2503335.79042  24594289.0054   24594292.0994
     -4784.4224      -3728.1214
 98  6 26 19 13 30.0010000  0  7G 5G 6G30G10G26G17G24
   3863094.48445   3010201.97845  23473309.7554   23473313.1884
     -5614.5944      -4375.0084
    240261.63547    187736.75447  21116462.4354   21116463.7244
      -795.3914       -619.7854
   2881573.58247   2148730.16547  21620839.5284   21620840.4784
     -4441.2034      -3460.6784
   2685573.05947   2088254.25046  22106127.1144   22106129.2594
     -4166.4534      -3246.5874
    -59856.88343     -8928.82342  24736896.8884   24736901.2944
       594.6724        463.3814
   -169521.56146   -130028.72246  22425887.2244   22425889.8604
      -247.5004       -192.8574
   3319585.55943   2559328.25442  24607962.2394   24607963.6924
     -4796.6254      -3737.6304
 98  6 26 19 13 45.0010000  0  7G 5G 6G30G10G26G17G24
   3947423.82845   3075913.10045  23489357.1064   23489360.5174
     -5629.2504      -4386.4294
    252319.03047    197132.13247  21118756.8644   21118758.2354
      -812.2344       -632.9104
   2948339.62047   2200755.64047  21633544.6144   21633545.4814
     -4460.9224      -3476.0434
   2748223.35946   2137072.66446  22118048.9354   22118051.2784
     -4186.8754      -3262.5004
    -68679.12743    -15803.30841  24735218.4744   24735222.5524
       581.6884        453.2634
   -165684.88046   -127039.08246  22426617.4354   22426620.1064
      -264.0164       -205.7264
   3391627.42543   2615464.80642  24621672.0524   24621675.2044
     -4808.9064      -3747.2004
 98  6 26 19 14  0.0010000  0  7G 5G 6G30G10G26G17G24
   4031971.43745   3141794.31045  23505446.3644   23505449.8804
     -5643.6414      -4397.6424
    264629.15147    206724.44247  21121099.5214   21121100.6694
      -829.0944       -646.0474
   3015402.64547   2253012.53047  21646306.1854   21646307.0174
     -4480.8284      -3491.5544
   2811178.51647   2186128.62646  22130029.0054   22130031.3494
     -4207.1414      -3278.2914
    -77309.75642    -22528.41341  24733575.8494   24733577.6884
       569.1094        443.4624
   -161600.07746   -123856.09846  22427394.7314   22427397.3924
      -280.5944       -218.6444
   3463852.03443   2671743.69142  24635416.2714   24635421.5094
     -4820.9534      -3756.5874
 98  6 26 19 14 15.0010000  0  7G 5G 6G30G10G26G17G24
   4116732.22145   3207841.63245  23521575.6064   23521578.6534
     -5657.7814      -4408.6614
    277192.39747    216513.99647  21123490.2314   21123491.4384
      -846.0314       -659.2454
   3082766.63847   2305503.94547  21659125.4504   21659126.5524
     -4501.0944      -3507.3464
   2874438.07047   2235421.77846  22142067.0754   22142069.5014
     -4227.4844      -3294.1444
    -85751.28342    -29106.25041  24731968.9194   24731970.1734
       556.3444        433.5154
   -157268.65546   -120480.95046  22428218.8724   22428221.4274
      -296.9694       -231.4044
   3536256.78643   2728162.95442  24649194.8884   24649201.3334
     -4833.0474      -3766.0114
 98  6 26 19 14 30.0010000  0  7G 5G 6G30G10G26G17G24
   4201701.20845   3274051.18145  23537744.7394   23537747.8924
     -5671.4694      -4419.3264
    290005.74347    226498.42947  21125928.6924   21125929.9464
      -862.4534       -672.0414
   3150431.72347   2358229.97447  21672001.3964   21672002.4154
     -4520.9224      -3522.7964
   2937998.22947   2284949.17546  22154162.0914   22154164.5524
     -4247.2974      -3309.5824
    -94003.41142    -35536.29741  24730398.7164   24730403.8964
       543.9224        423.8354
   -152694.70346   -116916.81146  22429089.6694   22429091.8724
      -312.9224       -243.8354
   3608837.84643   2784719.60642  24663005.7314   24663010.7244
     -4844.5004      -3774.9354
 98  6 26 19 14 45.0010000  0  7G 5G 6G30G10G26G17G24
   4286874.76045   3340420.15245  23553953.0284   23553956.6384
     -5685.0314      -4429.8944
    303064.02147    236673.72047  21128413.2244   21128414.4424
      -878.6414       -684.6554
   3218394.11947   2411187.67147  21684934.5214   21684935.5174
     -4540.7974      -3538.2834
   3001856.61447   2334708.94946  22166313.8724   22166316.1574
     -4267.1564      -3325.0574
   -102068.79242    -41821.03041  24728863.2864   24728866.7204
       531.4844        414.1444
   -147882.10946   -113166.72346  22430005.0834   22430007.3804
      -328.7504       -256.1694
   3681590.72644   2841410.13942  24676850.3104   24676853.5674
     -4855.8124      -3783.7504
 98  6 26 19 15  0.0010000  0  7G 5G 6G30G10G26G17G24
   4372251.47145   3406947.40545  23570199.2244   23570202.5994
     -5698.5004      -4440.3904
    316364.85547    247038.01147  21130944.4424   21130945.5794
      -894.7974       -697.2444
   3286654.63547   2464377.67447  21697924.0134   21697925.0444
     -4560.5164      -3553.6494
   3066011.98547   2384700.14246  22178522.3644   22178524.7314
     -4286.9064      -3340.4464
   -109948.45642    -47961.02142  24727364.5134   24727364.2084
       519.1564        404.5374
   -142833.51146   -109232.73646  22430966.2004   22430968.5794
      -344.3754       -268.3444
   3754510.14945   2898230.48442  24690726.5674   24690731.6884
     -4866.6874      -3792.2244
 98  6 26 19 15 15.0010000  0  7G 5G 6G30G10G26G17G24
   4457828.71745   3473630.92645  23586484.9034   23586488.1384
     -5711.7344      -4450.7024
    329907.15047    257590.46347  21133521.4194   21133522.5564
      -910.7504       -709.6754
   3355208.63647   2517796.36847  21710969.5994   21710970.5134
     -4579.9694      -3568.8074
   3130462.48647   2434921.30146  22190786.9504   22190789.1304
     -4306.4374      -3355.6664
   -117644.90143    -53958.15141  24725899.5054   24725902.4814
       507.1094        395.1504
   -137551.87746   -105117.16346  22431970.9034   22431973.1654
      -359.7504       -280.3254
   3827591.47545   2955176.93342  24704633.6064   24704636.7714
     -4877.4224      -3800.5884
 98  6 26 19 15 30.0010000  0  7G 5G 6G30G10G26G17G24
   4543602.28145   3540467.42845  23602806.7554   23602809.7554
     -5724.7194      -4460.8204
    343684.97447    268326.43647  21136143.4354   21136144.4314
      -926.1724       -721.6924
   3424051.49247   2571440.14447  21724069.8104   21724070.7824
     -4599.0004      -3583.6364
   3195203.06847   2485368.50746  22203106.3494   22203108.8214
     -4325.5164      -3370.5324
   -125162.54842    -59816.04241  24724469.1224   24724476.5094
       495.3284        385.9704
   -132041.65546   -100823.46746  22433019.3884   22433021.8844
      -374.9224       -292.1474
   3900829.88545   3012245.83543  24718570.7474   24718574.7434
     -4887.6564      -3808.5634
 98  6 26 19 15 45.0010000  0  7G 5G 6G30G10G26G17G24
   4629570.18045   3607455.36945  23619165.7554   23619169.0954
     -5737.5314      -4470.8044
    357691.88747    279240.91947  21138808.7004   21138810.0484
      -941.2814       -733.4664
   3493177.97947   2625304.92347  21737224.3494   21737225.5214
     -4617.6564      -3598.1744
   3260226.79147   2536036.33446  22215480.1144   22215482.5054
     -4344.1564      -3385.0574
   -132504.00342    -65536.57642  24723071.8174   24723073.7984
       483.6724        376.8874
   -126305.18046    -96353.47046  22434111.2784   22434113.6224
      -389.8284       -303.7624
   3974220.50545   3069433.28943  24732536.3564   24732539.6384
     -4897.6564      -3816.3564
 98  6 26 19 16  0.0010000  0  7G 5G 6G30G10G26G17G24
   4715729.49845   3674592.45745  23635561.6224   23635564.5994
     -5750.3754      -4480.8124
    371924.15047    290331.00447  21141517.0834   21141518.3254
      -956.2814       -745.1544
   3562580.69547   2679384.95447  21750430.8644   21750432.0244
     -4636.0004      -3612.4684
   3325528.83547   2586921.04646  22227906.6774   22227909.0674
     -4362.7194      -3399.5214
   -139672.22843    -71122.16142  24721707.8884   24721711.1104
       472.0784        367.8534
   -120347.24446    -91710.91346  22435244.6854   22435247.1104
      -404.4844       -315.1834
   4047758.32245   3126735.46943  24746530.8564   24746535.5914
     -4907.2974      -3823.8684
 98  6 26 19 16 15.0010000  0  7G 5G 6G30G10G26G17G24
   4802080.59045   3741878.96545  23651993.4504   23651996.3214
     -5763.0944      -4490.7224
    386378.42147    301594.08047  21144267.6224   21144268.9354
      -970.9694       -756.5994
   3632254.59747   2733676.29547  21763689.3964   21763690.5214
     -4653.8594      -3626.3844
   3391106.63947   2638020.62546  22240385.9664   22240388.3924
     -4381.0164      -3413.7784
   -146667.55443    -76573.02942  24720377.4894   24720383.1854
       460.5314        358.8564
   -114173.51346    -86900.19246  22436419.6924   22436421.9784
      -418.6724       -326.2384
   4121438.65345   3184148.70543  24760551.2084   24760555.3924
     -4916.8284      -3831.2954
 98  6 26 19 16 30.0010000  0  7G 5G 6G30G10G26G17G24
   4888622.08245   3809313.84445  23668461.8964   23668465.2244
     -5775.7344      -4500.5724
    401051.18047    313027.41147  21147059.5914   21147060.7984
      -985.2974       -767.7644
   3702192.75747   2788173.55247  21776998.5674   21776999.7044
     -4671.1414      -3639.8504
   3456956.67747   2689332.33846  22252916.7314   22252918.8764
     -4398.9064      -3427.7194
   -153488.12843    -81887.72442  24719078.9744   24719084.4464
       448.9694        349.8464
   -107788.55746    -81924.88546  22437634.6854   22437636.9814
      -432.6724       -337.1474
   4195262.75945   3241673.99143  24774599.1854   24774603.2514
     -4926.2974      -3838.6734
 98  6 26 19 16 45.0010000  0  7G 5G 6G30G10G26G17G24
   4975353.58045   3876896.78545  23684966.3964   23684969.8644
     -5788.4224      -4510.4594
    415937.04047    324626.79047  21149892.5054   21149893.6424
      -999.4844       -778.8194
   3772387.94147   2842871.08847  21790356.2244   21790357.3844
     -4688.2034      -3653.1454
   3523072.96347   2740851.51946  22265498.3564   22265500.5954
     -4416.5624      -3441.4774
   -160138.29544    -87069.65342  24717813.4584   24717817.4074
       437.8134        341.1534
   -101192.81246    -76785.32546  22438890.0134   22438892.5674
      -446.7034       -348.0804
   4269227.17045   3299308.54843  24788674.5214   24788678.6814
     -4935.5784      -3845.9054
 98  6 26 19 17  0.0010000  0  7G 5G 6G30G10G26G17G24
   5062273.27045   3944626.37045  23701506.3964   23701509.8884
     -5800.8914      -4520.1754
    431035.03047    336391.46347  21152765.3334   21152766.6224
     -1013.6564       -789.8624
   3842838.79147   2897767.84547  21803762.2784   21803763.2394
     -4705.2664      -3666.4414
   3589451.34147   2792574.92446  22278129.8024   22278132.1814
     -4433.9064      -3454.9924
   -166623.19344    -92122.78042  24716579.7784   24716582.0754
       426.8594        332.6184
    -94388.63746    -71483.35046  22440184.5054   22440186.9074
      -460.5624       -358.8804
   4343328.62345   3357049.89343  24802775.2394   24802779.6104
     -4944.6724      -3852.9914
 98  6 26 19 17 15.0010000  0  7G 5G 6G30G10G26G17G24
   5149378.53945   4012500.56745  23718082.4664   23718085.1964
     -5813.1414      -4529.7204
    446346.54947    348322.52647  21155679.3104   21155680.5874
     -1027.9534       -801.0024
   3913543.36547   2952862.31047  21817217.2314   21817218.2284
     -4722.0474      -3679.5174
   3656089.97747   2844501.12646  22290810.3964   22290812.7394
     -4451.2974      -3468.5434
   -172945.54643    -97049.19742  24715376.1694   24715378.3964
       416.1094        324.2414
    -87376.94546    -66019.67246  22441518.7944   22441521.2554
      -474.4224       -369.6794
   4417565.90745   3414897.14043  24816902.1534   24816906.1734
     -4953.6874      -3860.0164
 98  6 26 19 17 30.0010000  0  7G 5G 6G30G10G26G17G24
   5236664.87045   4080515.83745  23734691.9194   23734694.9424
     -5825.0624      -4539.0104
    461870.54447    360419.15547  21158633.2314   21158634.3684
     -1041.9374       -811.8994
   3984497.22947   3008151.02347  21830719.3724   21830720.4154
     -4738.4374      -3692.2894
   3722985.63347   2896627.60846  22303540.0834   22303542.2984
     -4468.1254      -3481.6564
   -179109.97944   -101852.60042  24714203.6064   24714206.2674
       405.8444        316.2424
    -80159.06446    -60395.34046  22442892.5284   22442895.2824
      -487.9844       -380.2484
   4491936.68645   3472848.36343  24831054.4354   24831057.8684
     -4962.4534      -3866.8474
 98  6 26 19 17 45.0010000  0  7G 5G 6G30G10G26G17G24
   5324133.90245   4148673.48245  23751337.0674   23751340.1384
     -5837.3914      -4548.6164
    477607.62147    372681.82347  21161627.7244   21161629.0364
     -1056.2974       -823.0884
   4055699.49847   3063633.30047  21844268.7084   21844269.7514
     -4755.1414      -3705.3044
   3790136.66147   2948953.07646  22316318.6224   22316320.8374
     -4485.2504      -3495.0004
   -185118.71944   -106534.68342  24713059.7084   24713063.3294
       395.3594        308.0724
    -72733.42946    -54609.11146  22444305.4664   22444307.9034
      -501.9534       -391.1324
   4566442.31645   3530904.66543  24845232.7164   24845236.5484
     -4971.5784      -3873.9574
 98  6 26 19 18  0.0010000  0  7G 5G 6G30G10G26G17G24
   5411784.87245   4216972.90045  23768016.1774   23768019.2824
     -5849.4374      -4558.0034
    493558.03347    385110.72047  21164663.0364   21164664.3604
     -1070.4064       -834.0834
   4127149.65547   3119308.73647  21857864.8884   21857866.1184
     -4771.5944      -3718.1254
   3857541.20347   3001476.09646  22329145.1854   22329147.4354
     -4502.0784      -3508.1134
   -190972.28444   -111095.84943  24711945.6464   24711951.3994
       385.0784        300.0614
    -65103.65746    -48663.82446  22445757.3414   22445759.7434
      -515.3754       -401.5914
   4641084.20445   3589067.16042  24859436.5994   24859441.9314
     -4980.6414      -3881.0194
 98  6 26 19 18 15.0010000  0  8G 5G 6G30G10G26G17G23G24
   5499616.29745   4285412.93545  23784730.2084   23784733.6064
     -5861.4694      -4567.3784
    509717.54347    397702.54947  21167738.2244   21167739.5014
     -1084.2344       -844.8584
   4198846.41447   3175176.32147  21871508.6064   21871509.6034
     -4788.0944      -3730.9824
   3925197.48646   3054195.26846  22342019.8334   22342021.9424
     -4518.7504      -3521.1044
   -196672.51945   -115537.56243  24710861.6384   24710865.9274
       374.8594        292.0984
    -57274.91746    -42563.49546  22447247.0674   22447249.4934
      -528.5164       -411.8304
    -16759.27544                  25016569.7634
      1192.1094
   4715859.10644   3647333.32843  24873665.6924   24873671.9034
     -4989.4694      -3887.8984
 98  6 26 19 18 30.0010000  0  8G 5G 6G30G10G26G17G23G24
   5587624.83245   4353990.94945  23801477.5604   23801480.9584
     -5873.0474      -4576.4004
    526080.29347    410452.75247  21170851.9974   21170853.1924
     -1097.5784       -855.2564
   4270788.81247   3231235.32547  21885198.6854   21885199.8684
     -4804.3284      -3743.6324
   3993098.73246   3107105.33046  22354941.1464   22354943.5014
     -4534.8444      -3533.6444
   -202223.24744   -119862.75943  24709805.3174   24709810.0754
       365.1564        284.5374
    -49252.28046    -36312.07346  22448773.6614   22448776.0634
      -541.2664       -421.7654
    -34563.77944                  25013181.4274
      1181.7974
   4790763.65644   3705700.48942  24887919.5674   24887922.8844
     -4997.8444      -3894.4244
 98  6 26 19 18 45.0010000  0  8G 5G 6G30G10G26G17G23G24
   5675809.69345   4422706.38945  23818258.8644   23818261.2904
     -5884.9374      -4585.6664
    542647.11147    423361.96947  21174004.6924   21174005.7824
     -1111.3284       -865.9704
   4342978.13347   3287486.73547  21898935.8564   21898936.8764
     -4820.9374      -3756.5754
   4061244.53846   3160205.95346  22367908.8104   22367911.3534
     -4551.2504      -3546.4294
   -207626.07145   -124072.72743  24708777.0754   24708780.3564
       355.2814        276.8434
    -41033.68646    -29907.95446  22450337.5524   22450339.9424
      -554.5474       -432.1144
    -52210.85044                  25009823.1384
      1171.2034
   4865794.62344   3764166.14642  24902196.9034   24902201.7204
     -5006.1564      -3900.9014
 98  6 26 19 19  0.0010000  0  8G 5G 6G30G10G26G17G23G24
   5764169.78945   4491558.36245  23835073.0524   23835076.1924
     -5896.4064      -4594.6024
    559418.91447    436430.91547  21177196.1924   21177197.4814
     -1124.9534       -876.5874
   4415413.98647   3343930.24647  21912720.0604   21912721.2314
     -4837.1724      -3769.2254
   4129633.79746   3213496.28046  22380922.9274   22380925.7514
     -4567.3914      -3559.0064
   -212883.74945   -128169.60643  24707775.9424   24707781.2514
       345.6884        269.3674
    -32619.43646    -23351.37846  22451938.6464   22451941.0364
      -567.3444       -442.0864
    -69702.94044      -904.34453  25006494.1224   25006499.2084
      1161.0944        904.7484
   4940946.11544   3822725.71642  24916498.6774   24916503.9624
     -5014.0944      -3907.0864
 98  6 26 19 19 15.0010000  0  8G 5G 6G30G10G26G17G23G24
   5852698.77845   4560541.94945  23851919.9744   23851924.2394
     -5907.4374      -4603.1984
    576393.23747    449657.66547  21180426.2784   21180427.6854
     -1138.2814       -886.9724
   4488090.34947   3400561.16347  21926549.7474   21926550.7554
     -4852.8754      -3781.4614
   4198264.72346   3266974.91546  22393982.9664   22393985.5214
     -4583.3754      -3571.4614
   -217998.09244   -132154.75943  24706802.6854   24706806.1534
       336.2504        262.0134
    -24015.56546    -16647.05546  22453576.2714   22453578.9424
      -579.7974       -451.7904
    -87045.54644    -14417.99443  25003194.1534   25003200.3174
      1151.2194        897.0544
   5016216.03044   3881377.56442  24930821.7244   24930826.1304
     -5021.8594      -3913.1374
 98  6 26 19 19 30.0010000  0  8G 5G 6G30G10G26G17G23G24
   5941392.37045   4629653.79445  23868797.7314   23868801.2824
     -5918.3914      -4611.7334
    593566.98147    463039.81247  21183694.4274   21183695.5404
     -1151.5004       -897.2734
   4560999.46047   3457373.44847  21940424.0214   21940425.1344
     -4868.3914      -3793.5514
   4267135.63846   3320640.56546  22407088.4584   22407090.7204
     -4599.3594      -3583.9164
   -222971.92445   -136030.43643  24705856.6384   24705861.2434
       326.9064        254.7324
    -15226.56346     -9798.46746  22455248.5364   22455250.9274
      -592.0944       -461.3724
   -104240.48444    -27816.56643  24999922.1384   24999927.9624
      1141.4224        889.4204
   5091601.69843   3940119.64242  24945167.8644   24945173.5364
     -5029.5474      -3919.1274
 98  6 26 19 19 45.0010000  0  8G 5G 6G30G10G26G17G23G24
   6030250.99245   4698894.23845  23885707.0284   23885709.9704
     -5929.4374      -4620.3414
    610936.71847    476574.67947  21186999.7314   21187000.7514
     -1164.5004       -907.4034
   4634142.23847   3514367.80447  21954342.6064   21954343.7434
     -4884.0784      -3805.7754
   4336243.71446   3374490.99946  22420239.3494   22420242.0094
     -4615.1414      -3596.2134
   -227804.34345   -139795.89743  24704936.8174   24704942.0794
       317.3914        247.3174
     -6253.96446     -2806.81146  22456956.1924   22456958.7594
      -604.3124       -470.8934
   -121291.05144    -41102.68842  24996677.2164   24996682.3724
      1131.9384        882.0294
   5167102.37044   3998951.32342  24959535.2394   24959539.9154
     -5037.2814      -3925.1544
 98  6 26 19 20  0.0010000  0  8G 5G 6G30G10G26G17G23G24
   6119274.96045   4768263.50045  23902647.9194   23902651.4354
     -5940.2034      -4628.7304
    628501.68147    490261.67347  21190342.2474   21190343.4314
     -1177.3284       -917.3994
   4707524.25347   3571548.58547  21968306.7714   21968307.8374
     -4900.0164      -3818.1944
   4405590.24146   3428527.25346  22433435.7004   22433438.3374
     -4630.8754      -3608.4744
   -232491.98045   -143448.56844  24704045.0444   24704048.5604
       307.7344        239.7934
      2902.05946      4327.76646  22458698.2944   22458700.8604
      -616.2974       -480.2314
   -138198.24344    -54277.05943  24993459.8024   24993465.6964
      1122.5004        874.6754
   5242718.04144   4057872.54442  24973924.0284   24973928.7164
     -5044.6254      -3930.8774
 98  6 26 19 20 15.0010000  0  8G 5G 6G30G10G26G17G23G24
   6208456.76145   4837755.76845  23919618.0134   23919622.3134
     -5950.5164      -4636.7654
    646256.19447    504096.36447  21193720.6694   21193721.8294
     -1189.7974       -927.1144
   4781142.69347   3628913.58447  21982315.7714   21982316.8254
     -4915.5944      -3830.3334
   4475170.48246   3482745.61646  22446676.1384   22446678.6924
     -4646.3124      -3620.5034
   -237037.73845   -146990.65844  24703179.6144   24703182.8844
       298.5314        232.6224
     12235.12946     11600.29946  22460474.3494   22460476.9274
      -628.0004       -489.3514
   -154966.39344    -67343.08043  24990268.9974   24990273.7674
      1113.4224        867.6014
   5318440.44644   4116877.03143  24988333.5994   24988337.1494
     -5051.4374      -3936.1854
 98  6 26 19 20 30.0010000  0  8G 5G 6G30G10G26G17G23G24
   6297790.05045   4907366.07945  23936618.2164   23936621.7904
     -5960.5164      -4644.5584
    664197.81447    518076.85247  21197134.7864   21197135.9234
     -1202.4064       -936.9404
   4854992.36047   3686458.76747  21996369.0214   21996370.0634
     -4930.9374      -3842.2894
   4544980.44346   3537142.97746  22459960.7634   22459963.6694
     -4661.6254      -3632.4354
   -241448.84945   -150427.84043  24702340.3804   24702343.5444
       289.6094        225.6704
     21744.05146     19009.86146  22462283.7554   22462286.1694
      -639.8594       -498.5924
   -171599.35844    -80303.78542  24987103.5214   24987108.6774
      1104.3754        860.5524
   5394262.45544   4175959.08543  25002761.7004   25002764.6534
     -5058.1724      -3941.4334
 98  6 26 19 20 45.0010000  0  8G 5G 6G30G10G26G17G23G24
   6387271.51645   4977091.84145  23953645.9584   23953649.2864
     -5970.2194      -4652.1194
    682330.02547    532205.85847  21200585.3884   21200586.5484
     -1215.1564       -946.8754
   4929069.53147   3744181.22347  22010465.4034   22010466.5404
     -4945.8754      -3853.9294
   4615021.59946   3591720.50046  22473289.0444   22473291.7514
     -4677.1564      -3644.5374
   -245725.97545   -153760.64143  24701526.9894   24701530.3764
       280.7034        218.7304
     31433.26346     26559.91246  22464127.3964   22464130.0444
      -651.9694       -508.0284
   -188098.42043    -93160.11042  24983964.6694   24983967.7514
      1095.5314        853.6614
   5470184.68843   4235119.23342  25017209.2004   25017214.2864
     -5064.7194      -3946.5344
 98  6 26 19 21  0.0020000  0  8G 5G 6G30G10G26G17G23G24
   6476900.91345   5046932.89645  23970702.0964   23970706.2794
     -5979.6094      -4659.4364
    700652.36047    546483.01047  21204071.9864   21204073.1004
     -1227.6724       -956.6274
   5003371.84547   3802079.11547  22024605.0024   22024606.1044
     -4960.5004      -3865.3254
   4685298.22146   3646481.49046  22486662.2994   22486665.0884
     -4692.4694      -3656.4694
   -249871.89345   -156991.18243  24700736.9714   24700739.4204
       272.0004        211.9484
     41303.40346     34250.94546  22466005.8144   22466008.2524
      -663.9694       -517.3784
   -204468.21244   -105915.73642  24980848.9394   24980856.0454
      1086.9384        846.9644
   5546208.62843   4294358.61842  25031676.4474   25031681.4044
     -5071.2344      -3951.6114
 98  6 26 19 21 15.0020000  0  8G 5G 6G30G10G26G17G23G24
   6566663.28345   5116877.53145  23987783.2214   23987787.2294
     -5988.7504      -4666.5584
    719159.05347    560903.81647  21207593.6744   21207594.6704
     -1239.9224       -966.1734
   5077887.99247   3860143.63447  22038784.6744   22038785.7874
     -4974.9844      -3876.6114
   4755799.26946   3701417.36846  22500078.3694   22500080.7954
     -4707.7504      -3668.3774
   -253886.40245   -160119.33943  24699973.5574   24699976.9794
       263.2344        205.1184
     51350.45346     42079.82746  22467917.5254   22467920.1394
      -675.6564       -526.4854
   -220708.41843   -118570.38642  24977758.7754   24977761.9864
      1078.3594        840.2804
   5622327.34843   4353671.92743  25046160.8694   25046165.3464
     -5077.9534      -3956.8474
 98  6 26 19 21 30.0020000  0  8G 5G 6G30G10G26G17G23G24
   6656561.43645   5186928.00445  24004890.3854   24004894.1584
     -5997.7504      -4673.5714
    737848.27647    575466.85847  21211149.9324   21211150.9044
     -1252.0314       -975.6094
   5152620.23047   3918376.53347  22053005.8774   22053006.8854
     -4989.3914      -3887.8374
   4826528.39546   3756530.96746  22513537.5574   22513540.0644
     -4722.8124      -3680.1144
   -257770.58945   -163145.87743  24699234.1434   24699238.4554
       254.6254        198.4094
     61571.26846     50044.11446  22469862.5414   22469865.1894
      -687.1874       -535.4714
   -236819.56043   -131124.43642  24974692.1354   24974696.4474
      1069.7194        833.5474
   5698544.79743   4413062.07542  25060664.4634   25060667.6504
     -5084.3914      -3961.8634
 98  6 26 19 21 45.0020000  0  8G 5G 6G30G10G26G17G23G24
   6746595.75945   5257084.55645  24022022.9324   24022027.2684
     -6006.8754      -4680.6824
    756719.59647    590171.78847  21214741.0254   21214742.2094
     -1264.1874       -985.0814
   5227570.99847   3976779.71347  22067268.4084   22067269.4754
     -5004.1254      -3899.3184
   4897482.52846   3811819.89946  22527039.8224   22527042.1784
     -4737.7344      -3691.7414
   -261525.06645   -166071.42443  24698519.5724   24698522.2794
       245.8754        191.5914
     71967.17446     58144.83046  22471841.0104   22471843.6354
      -698.9844       -544.6634
   -252801.19443   -143577.61542  24971650.6434   24971656.7834
      1061.1094        826.8384
   5774858.95743   4472527.66842  25075187.0254   25075190.9044
     -5090.9224      -3966.9524
 98  6 26 19 22  0.0020000  0  8G 5G 6G30G10G26G17G23G24
   6836763.09845   5327344.76345  24039181.3384   24039184.4794
     -6015.5474      -4687.4394
    775772.64647    605018.32847  21218367.0804   21218368.1464
     -1276.3284       -994.5414
   5302739.69547   4035352.71147  22081572.6584   22081573.6434
     -5018.4374      -3910.4714
   4968657.09346   3867280.58846  22540583.8774   22540586.2214
     -4752.3594      -3703.1374
   -265150.73645   -168896.55543  24697829.5964   24697831.1894
       237.4384        185.0164
     82537.24146     66381.25746  22473852.2834   22473854.6504
      -710.4224       -553.5754
   -268655.00043   -155931.17142  24968634.4474   24968639.1824
      1052.5784        820.1914
   5851269.26243   4532068.13042  25089727.4794   25089733.2214
     -5097.2504      -3971.8834
 98  6 26 19 22 15.0020000  0  8G 5G 6G30G10G26G17G23G24
   6927060.58245   5397706.38945  24056364.6504   24056368.3894
     -6024.3284      -4694.2824
    795008.23347    620007.10347  21222027.3304   21222028.4434
     -1288.6254      -1004.1234
   5378120.95647   4094091.34447  22095917.2054   22095918.2604
     -5032.4534      -3921.3924
   5040052.37846   3922913.27446  22554170.1434   22554172.5454
     -4767.1724      -3714.6794
   -268649.37044   -171622.74443  24697163.7604   24697168.3184
       228.8284        178.3084
     93277.98846     74750.68646  22475896.1974   22475899.0214
      -721.8914       -562.5124
   -284378.32943   -168183.09942  24965642.1504   24965645.4794
      1043.6884        813.2634
   5927774.55443   4591682.59242  25104286.0884   25104288.9124
     -5103.6874      -3976.8994
 98  6 26 19 22 30.0020000  0  8G 5G 6G30G10G26G17G23G24
   7017488.86945   5468169.92045  24073572.4164   24073574.9944
     -6032.8444      -4700.9174
    814426.88647    635138.52747  21225722.6504   21225723.8344
     -1300.6254      -1013.4744
   5453706.28047   4152988.97747  22110300.6664   22110301.8734
     -5045.6564      -3931.6804
   5111667.17646   3978717.00646  22567797.5964   22567799.8694
     -4781.5474      -3725.8814
   -272020.78644   -174249.79243  24696521.5964   24696525.8614
       220.6094        171.9034
    104189.63346     83253.27046  22477972.6974   22477975.3224
      -733.0944       -571.2424
   -299969.19944   -180331.72142  24962675.4634   24962679.1434
      1034.9534        806.4574
   6004376.14643   4651372.07642  25118862.6274   25118866.8814
     -5109.9374      -3981.7694
 98  6 26 19 22 45.0020000  0  8G 5G 6G30G10G26G17G23G24
   7108045.22445   5538733.27645  24090804.9794   24090808.0964
     -6041.2344      -4707.4554
    834026.26747    650410.77647  21229452.3224   21229453.4594
     -1312.4534      -1022.6914
   5529489.71247   4212040.98947  22124721.7524   22124722.9594
     -5058.6724      -3941.8224
   5183497.39146   4034688.59446  22581466.4714   22581468.8144
     -4795.7194      -3736.9244
   -275266.80944   -176779.13343  24695903.6274   24695908.0334
       212.2974        165.4264
    115269.87747     91887.24646  22480081.1504   22480083.7294
      -744.1724       -579.8744
   -315427.69644   -192377.23142  24959733.6504   24959737.7294
      1026.3134        799.7244
   6081073.75243   4711136.45542  25133457.3544   25133460.5534
     -5116.2814      -3986.7134
 98  6 26 19 23  0.0020000  0  8G 5G 6G30G10G26G17G23G24
   7198727.53445   5609394.76545  24108061.6354   24108064.6934
     -6049.6254      -4713.9944
    853800.16047    665819.01147  21233214.9324   21233216.0214
     -1323.9064      -1031.6154
   5605468.23347   4271245.01847  22139180.1044   22139181.4284
     -5071.7034      -3951.9764
   5255539.16646   4090825.03646  22595175.6044   22595178.1234
     -4809.6094      -3747.7484
   -278388.45544   -179211.51242  24695311.2524   24695315.3304
       204.1094        159.0464
    126514.44447    100649.26446  22482220.9714   22482223.5494
      -754.8754       -588.2144
   -330757.44344   -204322.49442  24956816.8384   24956821.6784
      1017.7814        793.0764
   6157865.06043   4770973.80142  25148070.8384   25148074.6824
     -5122.4534      -3991.5224
 98  6 26 19 23 15.0020000  0  7G 5G 6G30G10G26G17G23
   7289538.28945   5680156.34045  24125341.9794   24125344.7914
     -6058.3444      -4720.7874
    873747.22047    681362.18747  21237010.4004   21237011.4674
     -1335.5474      -1040.6864
   5681645.44747   4330603.87247  22153675.9794   22153677.3734
     -5085.0944      -3962.4114
   5327787.50646   4147122.43546  22608923.9864   22608926.5184
     -4823.3444      -3758.4504
   -281385.81844   -181547.06343  24694739.8464   24694743.9944
       195.6884        152.4844
    137919.00247    109535.94146  22484390.9714   22484393.6894
      -765.5314       -596.5184
   -345958.07544   -216167.04842  24953924.0494   24953930.9204
      1009.0634        786.2824
 98  6 26 19 23 30.0020000  0  7G 5G 6G30G10G26G17G23
   7380476.63845   5751017.34245  24142646.7214   24142650.2014
     -6066.7194      -4727.3134
    893865.42547    697038.71747  21240839.2214   21240840.4754
     -1346.8124      -1049.4644
   5758018.96547   4390115.68547  22168209.5574   22168210.9044
     -5097.9844      -3972.4554
   5400237.37746   4203576.87546  22622710.9164   22622713.4244
     -4836.5004      -3768.7014
   -284261.42144   -183787.76143  24694193.4084   24694197.5454
       187.8284        146.3604
    149478.42647    118543.30046  22486591.1194   22486593.6154
      -775.6564       -604.4074
   -361029.18744   -227910.72842  24951055.5414   24951060.3344
      1000.5164        779.6234
 98  6 26 19 23 45.0020000  0  7G 5G 6G30G10G26G17G23
   7471541.68745   5821977.05845  24159976.4164   24159980.4944
     -6075.2344      -4733.9494
    914153.65847    712847.73747  21244699.9634   21244700.9824
     -1358.2664      -1058.3894
   5834588.37147   4449780.14247  22182780.2364   22182781.6434
     -5111.2664      -3982.8044
   5472882.82346   4260183.70646  22636534.8694   22636537.1314
     -4849.5624      -3778.8804
   -287020.26444   -185937.44442  24693667.7994   24693671.5144
       179.9844        140.2484
    161192.08247    127670.83246  22488819.6584   22488821.9674
      -786.1874       -612.6144
   -375971.86944   -239554.32843  24948212.2364   24948219.2604
       991.8754        772.8904
 98  6 26 19 24  0.0020000  0  7G 5G 6G30G10G26G17G23
   7562729.71145   5893032.61945  24177328.4794   24177331.9244
     -6083.3444      -4740.2684
    934610.06447    728787.80447  21248592.5644   21248593.5724
     -1369.4064      -1067.0704
   5911353.69247   4509597.25847  22197388.2134   22197389.5844
     -5124.2194      -3992.8984
   5545721.45946   4316941.08446  22650395.7684   22650397.8774
     -4862.4534      -3788.9254
   -289662.94144   -187996.62142  24693164.4714   24693168.0924
       172.2034        134.1844
    173061.53747    136919.78146  22491078.6664   22491080.9514
      -796.4844       -620.6374
   -390788.20244   -251099.42642  24945392.3934   24945398.4284
       983.4534        766.3274
 98  6 26 19 24 15.0020000  0  7G 5G 6G30G10G26G17G23
   7654038.43945   5964182.22245  24194704.4474   24194707.6824
     -6091.1874      -4746.3804
    955231.69947    744856.61947  21252516.5804   21252517.7754
     -1380.1254      -1075.4224
   5988310.79247   4569563.81247  22212032.5644   22212033.9004
     -5136.7344      -4002.6504
   5618753.70746   4373849.31946  22664293.4554   22664295.7404
     -4875.1874      -3798.8474
   -292189.99544   -189965.77843  24692684.1824   24692688.9864
       164.6884        128.3284
    185083.24047    146287.34546  22493366.0024   22493368.3114
      -806.4374       -628.3934
   -405478.35244   -262546.28743  24942596.8694   24942602.5644
       975.2194        759.9114
 98  6 26 19 24 30.0020000  0  7G 5G 6G30G10G26G17G23
   7745464.88745   6035423.56244  24212102.1354   24212106.6464
     -6099.0164      -4752.4804
    976013.23247    761050.02547  21256471.4164   21256472.4364
     -1390.8124      -1083.7504
   6065455.17347   4629676.29747  22226712.6504   22226714.0804
     -5149.2344      -4012.3904
   5691976.31246   4430905.88646  22678227.1194   22678229.1354
     -4887.8284      -3808.6974
   -294603.78244   -191846.54642  24692225.0804   24692230.4004
       157.0784        122.3994
    197256.04346    155772.66246  22495682.4794   22495685.0214
      -816.6724       -636.3684
   -420045.37244   -273897.12342  24939824.6584   24939829.0764
       967.0474        753.5434
 98  6 26 19 24 45.0020000  0  7G 5G 6G30G10G26G17G23
   7837006.12745   6106754.33944  24229521.7994   24229525.1624
     -6106.4064      -4758.2394
    996955.40247    777368.60247  21260456.4554   21260457.5454
     -1401.3914      -1091.9934
   6142787.63447   4689935.33947  22241428.7134   22241430.0844
     -5161.7664      -4022.1554
   5765386.94146   4488108.96846  22692196.8384   22692198.9944
     -4900.1874      -3818.3284
   -296904.39544   -193639.16843  24691786.8224   24691791.2174
       149.8134        116.7374
    209582.41746    165377.64646  22498028.0414   22498030.7604
      -826.7814       -644.2454
   -434490.31544   -285152.88743  24937076.2364   24937081.4864
       959.0474        747.3094
 98  6 26 19 25  0.0020000  0  7G 5G 6G30G10G26G17G23
   7928658.09945   6178171.40044  24246962.8224   24246965.7754
     -6113.8914      -4764.0714
   1018054.66447    793809.59747  21264471.6114   21264472.7834
     -1411.8594      -1100.1504
   6220309.85647   4750342.24947  22256180.6504   22256182.0214
     -5174.5624      -4032.1274
   5838982.31346   4545456.00446  22706201.4004   22706203.6274
     -4912.5944      -3827.9954
   -299097.43544   -195347.93742  24691369.9944   24691372.7254
       142.5944        111.1124
    222059.70147    175100.21846  22500402.4944   22500405.0254
      -836.8594       -652.0984
   -448816.82244   -296316.28343  24934350.4244   24934355.4514
       951.1254        741.1364
 98  6 26 19 25 15.0020000  0  7G 5G 6G30G10G26G17G23
   8020420.32545   6249674.38944  24264424.5334   24264427.5214
     -6121.1094      -4769.6964
   1039309.92347    810372.14747  21268516.2214   21268517.4044
     -1422.2974      -1108.2834
   6298020.91647   4810896.30647  22270968.6664   22270969.8854
     -5186.9374      -4041.7694
   5912761.56846   4602946.32246  22720241.2364   22720243.6504
     -4924.6564      -3837.3944
   -301184.00344   -196973.82642  24690972.5644   24690978.5294
       135.5164        105.5974
    234684.50147    184937.73446  22502804.7294   22502807.2134
      -846.5314       -659.6354
   -463025.07244   -307387.61043  24931646.4794   24931651.1664
       943.1724        734.9394
 98  6 26 19 25 30.0020000  0  7G 5G 6G30G10G26G17G23
   8112287.73945   6321259.33045  24281906.2214   24281908.7754
     -6127.8444      -4774.9434
   1060721.79347    827056.73147  21272590.7054   21272591.9364
     -1432.5784      -1116.2954
   6375914.88747   4871592.89047  22285791.5254   22285792.8264
     -5198.8914      -4051.0844
   5986721.13746   4660577.14946  22734315.3854   22734317.6114
     -4936.6724      -3846.7574
   -303163.71744   -198516.39142  24690595.3854   24690599.6974
       128.4844        100.1184
    247454.76047    194888.60446  22505234.9474   22505237.5964
      -856.1724       -667.1474
   -477112.83944   -318365.01243  24928965.8074   24928971.0104
       935.1884        728.7184
 98  6 26 19 25 45.0020000  0  7G 5G 6G30G10G26G17G23
   8204254.39045   6392921.60545  24299407.1114   24299410.2294
     -6134.3284      -4779.9964
   1082285.94947    843859.97247  21276694.3464   21276695.6704
     -1442.6094      -1124.1114
   6453987.83647   4932428.94147  22300648.1194   22300649.1504
     -5210.8594      -4060.4104
   6060861.15146   4718348.58246  22748423.4394   22748425.8304
     -4948.6564      -3856.0964
   -305039.89544   -199978.31542  24690238.3694   24690239.7294
       121.6414         94.7854
    260369.06247    204951.71246  22507692.6354   22507695.2834
      -865.7344       -674.5984
   -491082.93944   -329250.75943  24926307.0964   24926311.4554
       927.5784        722.7884
 98  6 26 19 26  0.0020000  0  7G 5G 6G30G10G26G17G23
   8296316.70745   6464658.42045  24316926.3774   24316929.2484
     -6140.7034      -4784.9634
   1104000.78447    860780.63047  21280826.4944   21280827.6434
     -1452.7504      -1132.0134
   6532238.65647   4993403.58947  22315539.0414   22315540.2014
     -5222.5624      -4069.5294
   6135182.25346   4776261.11946  22762566.4474   22762568.7214
     -4960.8914      -3865.6294
   -306811.10943   -201358.41242  24689901.5724   24689908.1824
       114.4384         89.1724
    273427.02147    215126.75846  22510177.1504   22510179.6354
      -875.3444       -682.0864
   -504940.17644   -340048.54343  24923670.1194   24923675.1464
       920.0164        716.8954
 98  6 26 19 26 15.0020000  0  7G 5G 6G30G10G26G17G23
   8388474.98445   6536470.02245  24334463.2684   24334467.4754
     -6147.1414      -4789.9804
   1125866.77547    877819.07347  21284987.3074   21284988.3854
     -1462.7194      -1139.7814
   6610661.02247   5054511.91447  22330461.9244   22330463.1434
     -5233.7664      -4078.2594
   6209686.82946   4834316.62546  22776744.1114   22776746.4084
     -4973.0314      -3875.0894
   -308474.94744   -202654.87242  24689585.0024   24689589.8074
       107.4694         83.7424
    286625.28047    225411.13046  22512688.9084   22512691.3114
      -884.4064       -689.1484
   -518685.43344   -350759.09943  24921054.4794   24921058.8734
       912.6724        711.1734
 98  6 26 19 26 30.0020000  0  7G 5G 6G30G10G26G17G23
   8480730.38245   6608357.29545  24352018.9004   24352022.2174
     -6153.6414      -4795.0454
   1147881.64147    894973.51847  21289176.7684   21289177.8574
     -1472.6874      -1147.5494
   6689251.00747   5115750.84547  22345417.5964   22345418.6154
     -5244.9534      -4086.9764
   6284372.09446   4892512.93346  22790956.3614   22790958.3184
     -4985.0314      -3884.4404
   -310035.14744   -203870.59043  24689288.4634   24689292.4944
       100.4844         78.3004
    299958.81347    235800.91346  22515226.2754   22515228.7014
      -893.4534       -696.1974
   -532322.23945   -361385.12044  24918460.0254   24918465.4984
       905.5474        705.6214
 98  6 26 19 26 45.0020000  0  7G 5G 6G30G10G26G17G23
   8573083.26545   6680320.52445  24369593.5104   24369597.1664
     -6160.1414      -4800.1104
   1170047.53447    912245.64847  21293394.8144   21293395.9634
     -1482.8124      -1155.4384
   6768010.07547   5177121.53246  22360404.6504   22360405.8464
     -5256.3594      -4095.8644
   6359237.52446   4950849.61946  22805202.7684   22805204.8894
     -4997.1094      -3893.8514
   -311490.83444   -205004.83343  24689010.8774   24689014.4044
        93.5474         72.8944
    313428.65147    246296.90246  22517789.2054   22517791.5144
      -902.5624       -703.2954
   -545853.21944   -371928.69243  24915884.7604   24915889.6824
       898.5004        700.1304
 98  6 26 19 27  0.0020000  0  7G 5G 6G30G10G26G17G23
   8665531.49445   6752358.05345  24387185.6744   24387189.5764
     -6166.5474      -4805.1014
   1192360.24247    929632.18047  21297640.8224   21297642.1114
     -1492.3754      -1162.8904
   6846937.77847   5238623.62246  22375424.2524   22375425.5294
     -5267.5314      -4104.5704
   6434280.76446   5009324.86246  22819482.9324   22819485.0644
     -5008.9064      -3903.0444
   -312845.95044   -206060.74343  24688752.9164   24688755.4244
        86.9224         67.7314
    327030.29547    256895.60246  22520377.6194   22520379.9164
      -911.1414       -709.9804
   -559282.48545   -382392.99743  24913329.0724   24913332.4824
       891.8754        694.9684
 98  6 26 19 27 15.0020000  0  7G 5G 6G30G10G26G17G23
   8758077.77045   6824471.99045  24404796.5724   24404800.4634
     -6172.8914      -4810.0454
   1214817.65647    947131.47047  21301914.3384   21301915.6504
     -1501.9844      -1170.3774
   6926033.83347   5300256.88946  22390475.7914   22390477.0574
     -5278.5314      -4113.1414
   6509504.20046   5067940.52246  22833797.4554   22833799.7294
     -5020.8754      -3912.3704
   -314098.33944   -207036.56643  24688514.2994   24688518.1544
        80.0634         62.3864
    340760.56747    267594.52546  22522990.5724   22522992.9634
      -919.5624       -716.5424
   -572612.84545   -392780.24843  24910792.3614   24910797.5184
       885.5004        690.0004
 98  6 26 19 27 30.0020000  0  7G 5G 6G30G10G26G17G23
   8850717.21245   6896658.51745  24422425.2524   24422429.6114
     -6179.0314      -4814.8304
   1237420.11847    964743.78347  21306215.4554   21306216.3224
     -1511.6874      -1177.9384
   7005294.03047   5362018.06446  22405558.4554   22405559.4394
     -5289.5784      -4121.7494
   6584905.74746   5126694.96046  22848146.0884   22848148.2214
     -5032.7344      -3921.6114
   -315247.62745   -207932.06043  24688295.7214   24688299.0844
        73.1724         57.0174
    354617.28347    278391.97946  22525627.3224   22525629.9124
      -928.1094       -723.2024
   -585847.95244   -403093.27543  24908273.7364   24908279.6664
       879.2034        685.0934
 98  6 26 19 27 45.0020000  0  7G 5G 6G30G10G26G17G23
   8943448.13945   6968916.32145  24440072.0574   24440075.0924
     -6185.2034      -4819.6394
   1260167.08247    982468.69247  21310544.0254   21310545.1274
     -1521.2814      -1185.4144
   7084722.18047   5423910.11446  22420672.8544   22420674.0494
     -5300.9374      -4130.6014
   6660487.04946   5185589.47746  22862528.8074   22862531.0684
     -5044.8444      -3931.0474
   -316294.12545   -208747.46743  24688096.8144   24688100.6934
        66.3754         51.7214
    368603.56347    289290.39446  22528289.0104   22528291.6114
      -936.7194       -729.9114
   -598990.82444   -413334.42743  24905773.0964   24905778.2294
       873.1884        680.4064
 98  6 26 19 28  0.0020000  0  7G 5G 6G30G10G26G17G23
   9036272.28045   7041246.75145  24457735.0804   24457737.9044
     -6191.3284      -4824.4124
   1283057.94147   1000305.73347  21314900.2604   21314901.3614
     -1530.8124      -1192.8414
   7164322.54147   5485936.35246  22435820.5644   22435821.7954
     -5312.3594      -4139.5014
   6736249.11246   5244624.83946  22876945.7364   22876947.9164
     -5056.6874      -3940.2764
   -317237.61445   -209482.62443  24687917.5574   24687921.4004
        59.4224         46.3034
    382717.18747    300288.03946  22530974.4084   22530976.9164
      -945.1094       -736.4494
   -612045.76944   -423507.05543  24903288.0804   24903293.6584
       867.4694        675.9504
 98  6 26 19 28 15.0020000  0  7G 5G 6G30G10G26G17G23
   9129186.24345   7113647.20645  24475416.3774   24475420.3264
     -6197.2194      -4829.0024
   1306089.76047   1018252.61147  21319282.9554   21319284.0684
     -1540.0944      -1200.0734
   7244089.22347   5548092.19346  22450999.7524   22451001.0414
     -5323.2664      -4147.9994
   6812185.52146   5303796.05946  22891395.7214   22891398.2754
     -5068.1874      -3949.2374
   -318078.85645   -210138.05043  24687757.2994   24687760.7564
        52.7504         41.1044
    396953.93647    311381.61446  22533683.6434   22533686.2094
      -953.1094       -742.6834
   -625015.66544   -433613.42443  24900820.2914   24900824.5924
       861.8284        671.5544
 98  6 26 19 28 30.0020000  0  7G 5G 6G30G10G26G17G23
   9222186.97345   7186115.23644  24493113.7914   24493117.5414
     -6203.0164      -4833.5194
   1329258.46947   1036306.15647  21323691.7054   21323692.9124
     -1549.1874      -1207.1594
   7324019.99947   5610375.89546  22466210.1434   22466211.2444
     -5334.3754      -4156.6564
   6888291.97646   5363099.78346  22905878.5184   22905881.2014
     -5079.4694      -3958.0284
   -318821.78145   -210716.90943  24687616.2134   24687619.4004
        46.1414         35.9544
    411309.02947    322567.41946  22536415.5574   22536418.2174
      -961.1414       -748.9414
   -637902.25044   -443654.86643  24898367.7294   24898373.9634
       856.2504        667.2084
 98  6 26 19 28 45.0020000  0  7G 5G 6G30G10G26G17G23
   9315274.01245   7258650.50944  24510827.2684   24510831.6274
     -6208.5474      -4837.8294
   1352565.03447   1054467.11747  21328126.7294   21328128.0414
     -1558.3594      -1214.3064
   7404119.92247   5672791.40146  22481452.6194   22481453.7094
     -5345.6414      -4165.4344
   6964568.73946   5422536.21046  22920393.5254   22920395.5414
     -5090.7194      -3966.7944
   -319463.89445   -211217.18643  24687493.3614   24687497.7684
        39.4844         30.7674
    425788.52447    333850.15246  22539170.6044   22539173.1704
      -969.4534       -755.4184
   -650704.06344   -453630.23643  24895932.1744   24895937.1314
       850.6254        662.8254
 98  6 26 19 29  0.0020000  0  7G 5G 6G30G10G26G17G23
   9408443.08645   7331249.72444  24528557.5644   24528562.9904
     -6214.1094      -4842.1634
   1376009.49247   1072735.53047  21332588.2754   21332589.5644
     -1567.5784      -1221.4894
   7484389.52947   5735339.13046  22496727.4164   22496728.6004
     -5357.0164      -4174.2984
   7041012.80346   5482103.00746  22934940.3694   22934942.4324
     -5101.8754      -3975.4874
   -320006.96245   -211640.34443  24687389.9474   24687394.8814
        32.9064         25.6414
    440392.09147    345229.57146  22541949.7524   22541952.4944
      -977.7504       -761.8834
   -663419.94143   -463538.68943  24893512.3384   24893518.2564
       844.7194        658.2224
 98  6 26 19 29 15.0020000  0  7G 5G 6G30G10G26G17G23
   9501694.06145   7403912.77144  24546302.3934   24546307.1274
     -6219.4534      -4846.3274
   1399589.37147   1091109.46347  21337075.1894   21337076.3384
     -1576.5944      -1228.5154
   7564825.91647   5798016.81846  22512033.8694   22512035.0884
     -5367.9534      -4182.8214
   7117621.23546   5541797.87846  22949518.6114   22949520.9674
     -5112.7504      -3983.9614
   -320453.73745   -211988.43043  24687305.1584   24687310.1044
        26.5004         20.6494
    455116.74747    356703.34046  22544751.3774   22544754.0374
      -985.6874       -768.0684
   -676047.69444   -473378.41343  24891109.4944   24891115.4004
       838.8284        653.6324
 98  6 26 19 29 30.0020000  0  7G 5G 6G30G10G26G17G23
   9595023.32945   7476636.83244  24564062.5414   24564066.2444
     -6224.5624      -4850.3084
   1423306.20347   1109590.11547  21341588.4794   21341589.6154
     -1585.7664      -1235.6624
   7645425.24847   5860821.47546  22527371.3304   22527372.6434
     -5378.7344      -4191.2224
   7194391.35346   5601618.74046  22964127.4084   22964129.4004
     -5123.3124      -3992.1924
   -320803.04545   -212260.53043  24687238.4794   24687241.8894
        19.9534         15.5484
    469961.71647    368270.86246  22547576.7364   22547579.2214
      -993.7814       -774.3754
   -688586.68844   -483149.02943  24888723.1664   24888727.9594
       832.8914        649.0064
 98  6 26 19 29 45.0020000  0  7G 5G 6G30G10G26G17G23
   9688429.19145   7549420.53844  24581836.7684   24581841.2794
     -6229.5314      -4854.1804
   1447159.01447   1128176.72247  21346127.4324   21346128.3574
     -1594.5944      -1242.5414
   7726186.76547   5923752.51146  22542740.0724   22542741.5024
     -5389.4224      -4199.5504
   7271317.31646   5661561.04246  22978766.0644   22978768.1864
     -5133.4534      -4000.0934
   -321054.87345   -212456.74343  24687190.3144   24687193.0924
        13.6414         10.6294
    484928.19347    379933.07046  22550424.5414   22550427.2254
     -1001.7194       -780.5604
   -701034.71244   -492848.73943  24886353.3144   24886358.5064
       826.9064        644.3434
 98  6 26 19 30  0.0020000  0  7G 5G 6G30G10G26G17G23
   9781910.03945   7622262.71644  24599625.9634   24599630.5334
     -6234.6414      -4858.1624
   1471144.36647   1146866.61447  21350691.7914   21350692.7054
     -1603.5164      -1249.4934
   7807105.73347   5986806.23546  22558138.5184   22558139.8774
     -5399.8124      -4207.6464
   7348393.65046   5721620.50946  22993433.0254   22993435.3814
     -5143.4374      -4007.8734
   -321211.96245   -212579.09243  24687160.9714   24687163.2214
         7.3134          5.6984
    500011.80047    391686.54346  22553294.7364   22553297.2444
     -1009.4374       -786.5754
   -713393.75644   -502479.11543  24884001.8934   24884005.9824
       820.8134        639.5944
 98  6 26 19 30 15.0020000  0  7G 5G 6G30G10G26G17G23
   9875468.81745   7695165.60444  24617429.3774   24617432.3184
     -6239.8444      -4862.2164
   1495265.60147   1165662.38347  21355281.9004   21355282.8964
     -1612.6564      -1256.6154
   7888178.85647   6049980.08346  22573566.0334   22573567.2294
     -5409.8444      -4215.4634
   7425619.46246   5781796.46146  23008128.5104   23008130.9124
     -5153.3284      -4015.5804
   -321273.07445   -212626.63244  24687149.3144   24687152.3614
         0.9384          0.7314
    515212.35347    403531.14146  22556187.4634   22556189.9364
     -1017.3124       -792.7114
   -725656.92344   -512034.76743  24881669.2524   24881673.1544
       814.2504        634.4814
 98  6 26 19 30 30.0020000  0  7G 5G 6G30G10G26G17G23
   9969108.54745   7768131.56744  24635248.8224   24635252.1624
     -6245.5624      -4866.6724
   1519528.80247   1184568.77747  21359899.0884   21359900.0494
     -1622.5314      -1264.3104
   7969404.28147   6113272.60446  22589022.8224   22589024.1004
     -5420.3124      -4223.6204
   7502997.48046   5842091.00846  23022853.0964   23022855.7444
     -5163.8124      -4023.7504
   -321237.54045   -212598.92744  24687155.6504   24687157.5254
        -5.6874         -4.4324
    530534.53247    415470.51546  22559103.2134   22559105.6504
     -1025.7194       -799.2614
   -737816.61945   -521509.82043  24879354.7834   24879359.5064
       807.0164        628.8434
 98  6 26 19 30 45.0020000  0  7G 5G 6G30G10G26G17G23
  10062829.51045   7841160.81444  24653083.7134   24653089.3734
     -6250.5944      -4870.5934
   1543936.11747   1203587.47147  21364543.4554   21364544.6864
     -1631.8754      -1271.5914
   8050782.29947   6176684.03346  22604508.6274   22604509.9984
     -5430.1724      -4231.3034
   7580527.36246   5902503.88946  23037606.7604   23037609.5724
     -5173.5784      -4031.3604
   -321108.07245   -212498.00544  24687180.0254   24687182.8264
       -11.5624         -9.0104
    545978.83747    427505.05246  22562042.2994   22562044.7134
     -1033.6094       -805.4104
   -749873.21945   -530904.52943  24877060.6824   24877064.1504
       800.4064        623.6934
 98  6 26 19 31  0.0020000  0  7G 5G 6G30G10G26G17G23
  10156627.93845   7914250.43144  24670932.3544   24670936.2214
     -6255.6874      -4874.5624
   1568488.24847   1222719.00647  21369215.7444   21369216.8224
     -1641.5944      -1279.1644
   8132310.85247   6240212.75246  22620022.9864   22620024.2754
     -5440.1414      -4239.0714
   7658207.55146   5963033.89546  23052388.8074   23052391.6314
     -5183.5784      -4039.1524
   -320886.85245   -212325.57244  24687221.7684   24687225.8464
       -17.7194        -13.8074
    561543.66847    439633.50546  22565004.2914   22565006.7294
     -1041.4534       -811.5224
   -761826.25645   -540218.52343  24874785.7364   24874788.7364
       793.4224        618.2514
 98  6 26 19 31 15.0030000  0  7G 5G 6G30G10G26G17G23
  10250504.63545   7987401.04644  24688796.3124   24688800.5774
     -6260.3594      -4878.2024
   1593183.00447   1241961.67247  21373914.9994   21373915.9954
     -1650.7814      -1286.3234
   8213986.73047   6303856.27846  22635565.0774   22635566.5074
     -5449.2034      -4246.1324
   7736038.21846   6023681.15846  23067199.3664   23067201.9334
     -5193.2034      -4046.6524
   -320577.95045   -212084.80944  24687280.8584   24687285.1944
       -23.5474        -18.3484
    577220.85247    451849.50746  22567987.2804   22567989.5894
     -1048.7034       -817.1714
   -773679.89345   -549455.09643  24872529.9684   24872533.4834
       786.9694        613.2224
 98  6 26 19 31 30.0030000  0  7G 5G 6G30G10G26G17G23
  10344446.18645   8060602.19244  24706672.9914   24706676.9644
     -6265.2194      -4881.9894
   1618017.21747   1261313.01747  21378640.7414   21378641.8194
     -1660.5784      -1293.9574
   8295792.89547   6367601.32646  22651132.4054   22651133.5894
     -5458.4064      -4253.3044
   7814010.33746   6084438.64646  23082036.9524   23082039.4724
     -5203.1564      -4054.4074
   -320177.20745   -211772.48844  24687357.1084   24687361.8664
       -29.9844        -23.3644
    593007.65147    464150.92346  22570991.4294   22570993.7144
     -1056.3594       -823.1374
   -785435.47945   -558615.23743  24870293.1474   24870297.0384
       780.3914        608.0974
 98  6 26 19 31 45.0030000  0  7G 5G 6G30G10G26G17G23
  10438456.05845   8133856.58744  24724562.6874   24724567.0584
     -6269.2504      -4885.1304
   1642995.64347   1280776.72547  21383393.8274   21383394.9994
     -1669.6724      -1301.0434
   8377733.77247   6431451.34146  22666725.3354   22666726.8234
     -5466.8594      -4259.8904
   7892127.54246   6145309.17846  23096902.0694   23096904.7414
     -5212.2664      -4061.5064
   -319684.18245   -211388.26744  24687450.7654   24687454.9374
       -35.5004        -27.6624
    608906.27847    476539.47546  22574016.7654   22574019.2024
     -1063.2504       -828.5064
   -797096.68145   -567701.86543  24868074.0224   24868078.5114
       774.6564        603.6284
 98  6 26 19 32  0.0030000  0  7G 5G 6G30G10G26G17G23
  10532532.12245   8207162.54544  24742465.2884   24742469.6834
     -6274.1414      -4888.9414
   1668115.91147   1300350.97147  21388174.0934   21388175.3004
     -1679.6414      -1308.8114
   8459806.32647   6495403.96846  22682343.2654   22682344.5424
     -5476.0314      -4267.0374
   7970387.70546   6206291.11246  23111794.6944   23111797.2964
     -5222.4064      -4069.4074
   -319104.88045   -210936.80144  24687561.6014   24687564.9054
       -41.6254        -32.4354
    624913.35047    489012.53346  22577063.0304   22577065.5974
     -1070.9534       -834.5094
   -808665.91545   -576716.79843  24865872.8274   24865877.5154
       768.0004        598.4424
 98  6 26 19 32 15.0030000  0  7G 5G 6G30G10G26G17G23
  10626671.97445   8280518.21243  24760379.3904   24760383.8904
     -6278.4844      -4892.3254
   1693376.90747   1320034.86547  21392981.1244   21392982.3434
     -1689.1254      -1316.2014
   8542006.82647   6559456.28546  22697985.5224   22697986.7764
     -5484.7664      -4273.8434
   8048791.93246   6267385.30446  23126714.6404   23126716.7724
     -5232.2504      -4077.0784
   -318444.99945   -210422.53943  24687687.3124   24687691.4954
       -47.0474        -36.6604
    641026.11447    501567.94546  22580129.1404   22580131.4014
     -1078.0944       -840.0734
   -820144.00045   -585660.71543  24863687.5854   24863691.7694
       761.7344        593.5594
 98  6 26 19 32 30.0030000  0  7G 5G 6G30G10G26G17G23
  10720877.99245   8353925.41144  24778306.1244   24778311.1164
     -6282.0784      -4895.1264
   1718781.72747   1339830.83347  21397815.4524   21397816.5304
     -1697.9534      -1323.0804
   8624342.25547   6623613.74446  22713653.4604   22713654.7614
     -5493.1414      -4280.3694
   8127347.08546   6328597.09846  23141663.2104   23141665.5194
     -5241.5944      -4084.3594
   -317700.51145   -209842.38744  24687829.0774   24687832.3704
       -52.0164        -40.5324
    657249.68247    514209.69946  22583216.2804   22583218.6474
     -1084.8754       -845.3574
   -831527.29545   -594530.78743  24861521.4834   24861525.5264
       756.3444        589.3594
 98  6 26 19 32 45.0030000  0  7G 5G 6G30G10G26G17G23
  10815137.94645   8427374.65544  24796242.9994   24796248.3784
     -6286.0164      -4898.1944
   1744317.78747   1359729.06847  21402674.9294   21402675.9954
     -1706.9064      -1330.0574
   8706805.60047   6687870.87546  22729345.7724   22729347.0154
     -5502.0474      -4287.3094
   8206042.94346   6389918.53846  23156638.4054   23156640.7374
     -5251.2814      -4091.9074
   -316880.11245   -209203.05043  24687984.1794   24687988.3864
       -57.4534        -44.7694
    673575.69247    526931.28046  22586323.1014   22586325.4334
     -1092.0624       -850.9584
   -842831.41645   -603339.14344  24859370.7884   24859374.5504
       750.7974        585.0374
 98  6 26 19 33  0.0030000  0  7G 5G 6G30G10G26G17G23
  10909459.23945   8500871.73143  24814191.6944   24814194.9054
     -6290.1254      -4901.3964
   1769989.67347   1379733.14047  21407560.0224   21407561.1244
     -1715.9694      -1337.1194
   8789405.64747   6752234.52646  22745064.1714   22745065.4484
     -5511.2504      -4294.4814
   8284886.74846   6451355.25746  23171642.1404   23171644.4834
     -5261.2194      -4099.6514
   -315973.55345   -208496.58844  24688156.6014   24688160.0694
       -63.3914        -49.3954
    690013.79747    539740.20246  22589451.2334   22589453.4484
     -1099.6254       -856.8514
   -854049.43245   -612080.38843  24857235.9294   24857241.2494
       744.9534        580.4834
 98  6 26 19 33 15.0030000  0  7G 5G 6G30G10G26G17G23
  11003841.91845   8574416.61643  24832152.3044   24832157.7884
     -6294.1254      -4904.5134
   1795796.48047   1399842.33947  21412471.0384   21412472.2334
     -1724.8284      -1344.0224
   8872141.71647   6816704.17246  22760808.0384   22760809.4794
     -5520.0944      -4301.3724
   8363878.65546   6512907.38246  23186673.7574   23186676.1714
     -5270.9064      -4107.2004
   -314978.40145   -207721.11244  24688347.0074   24688350.2294
       -69.1724        -53.9004
    706563.65647    552636.21346  22592600.4524   22592602.9604
     -1106.9374       -862.5494
   -865180.88545   -620754.23844  24855117.3434   24855122.1014
       739.4064        576.1614
 98  6 26 19 33 30.0030000  0  7G 5G 6G30G10G26G17G23
  11098285.94745   8648009.28043  24850125.0304   24850128.5934
     -6298.2664      -4907.7394
   1821736.75847   1420055.55047  21417407.3274   21417408.5344
     -1733.7194      -1350.9504
   8955011.32747   6881277.87746  22776577.7574   22776578.9644
     -5529.1254      -4308.4094
   8443017.23246   6574573.79346  23201733.3904   23201735.8044
     -5280.7194      -4114.8464
   -313895.81645   -206877.48543  24688552.4914   24688556.5114
       -75.0314        -58.4664
    723226.00647    565619.87546  22595771.1794   22595773.7334
     -1114.5784       -868.5024
   -876228.91045   -629363.02044  24853015.2024   24853019.9724
       733.7814        571.7784
 98  6 26 19 33 45.0030000  0  7G 5G 6G30G10G26G17G23
  11192787.33445   8721646.68244  24868107.7724   24868110.9374
     -6301.6724      -4910.3944
   1847806.66747   1440369.76747  21422368.1474   21422369.2724
     -1741.9844      -1357.3904
   9038016.57947   6945957.27446  22792373.2804   22792374.5224
     -5538.0944      -4315.3984
   8522297.40246   6636350.54646  23216819.6404   23216821.8904
     -5289.7344      -4121.8714
   -312730.49845   -205969.41844  24688774.2024   24688778.6554
       -80.1414        -62.4474
    739998.78547    578689.58246  22598962.8274   22598965.1244
     -1121.5474       -873.9334
   -887194.36945   -637907.48344  24850928.6554   24850933.1794
       728.4694        567.6384
 98  6 26 19 34  0.0030000  0  7G 5G 6G30G10G26G17G23
  11287343.92245   8795327.10444  24886101.4604   24886105.3974
     -6305.5944      -4913.4504
   1874003.42747   1460782.82947  21427353.2334   21427354.4294
     -1750.6094      -1364.1114
   9121163.33247   7010746.93746  22808195.3434   22808196.5384
     -5547.8914      -4323.0324
   8601718.56946   6698237.15846  23231932.6794   23231935.3044
     -5299.5004      -4129.4814
   -311484.22345   -204998.22944  24689011.0464   24689014.7724
       -85.7814        -66.8434
    756879.57747    591843.46446  22602175.0154   22602177.2414
     -1128.9694       -879.7164
   -898073.46145   -646384.65544  24848858.4524   24848864.6164
       722.3444        562.8654
 98  6 26 19 34 15.0030000  0  7G 5G 6G30G10G26G17G23
  11381954.98945   8869049.94644  24904104.9764   24904107.4834
     -6309.1874      -4916.2504
   1900324.12747   1481292.46947  21432361.8904   21432363.1554
     -1758.8754      -1370.5524
   9204453.52647   7075648.36846  22824045.3124   22824046.7184
     -5557.5004      -4330.5194
   8681281.88146   6760234.53146  23247073.2804   23247075.8124
     -5308.9694      -4136.8594
   -310156.81545   -203963.84043  24689263.8904   24689267.3234
       -91.2504        -71.1044
    773866.82247    605080.28646  22605407.8274   22605410.1474
     -1136.0164       -885.2074
   -908864.31045   -654793.02943  24846805.2024   24846810.1124
       716.4064        558.2394
 98  6 26 19 34 30.0030000  0  7G 5G 6G30G10G26G17G23
  11476616.34245   8942811.96943  24922118.8824   24922124.4134
     -6312.4064      -4918.7584
   1926766.00447   1501896.53047  21437393.4764   21437394.6594
     -1766.8754      -1376.7864
   9287883.86847   7140659.00446  22839921.1944   22839922.5194
     -5566.7034      -4337.6914
   8760983.47846   6822339.66946  23262240.1554   23262242.6284
     -5318.0474      -4143.9334
   -308749.24045   -202866.99244  24689531.5774   24689535.6324
       -96.6254        -75.2924
    790956.10947    618396.63346  22608659.8354   22608662.3664
     -1142.7034       -890.4184
   -919570.98245   -663135.87744  24844768.4134   24844771.3544
       710.9844        554.0144
 98  6 26 19 34 45.0030000  0  7G 5G 6G30G10G26G17G23
  11571327.52045   9016612.82643  24940141.3584   24940145.0034
     -6315.7194      -4921.3394
   1953329.22147   1522595.14647  21442448.4444   21442449.7104
     -1774.8284      -1382.9834
   9371451.62847   7205776.72346  22855823.8434   22855825.2964
     -5575.5944      -4344.6194
   8840820.20346   6884550.08846  23277432.6084   23277434.9294
     -5326.7974      -4150.7514
   -307259.50145   -201706.11644  24689815.4134   24689819.0224
      -101.9374        -79.4324
    808147.55347    631792.57046  22611931.2024   22611933.5934
     -1149.4534       -895.6784
   -930196.12645   -671415.15244  24842745.7964   24842749.8154
       705.7034        549.8994
 98  6 26 19 35  0.0030000  0  7G 5G 6G30G10G26G17G23
  11666087.91945   9090452.04843  24958174.0544   24958179.0344
     -6319.3444      -4924.1644
   1980011.04247   1543386.17547  21447525.7334   21447526.8584
     -1783.1564      -1389.4724
   9455149.73147   7270996.00246  22871751.1014   22871752.8124
     -5584.5164      -4351.5714
   8920786.63046   6946861.58246  23292649.6244   23292651.9794
     -5335.7974      -4157.7644
   -305691.87845   -200484.55044  24690113.1404   24690116.5734
      -107.4844        -83.7544
    825438.12247    645265.75846  22615221.4524   22615223.7964
     -1156.2974       -901.0114
   -940742.32045   -679632.90544  24840738.1244   24840742.9524
       700.0634        545.5034
 98  6 26 19 35 15.0030000  0  7G 5G 6G30G10G26G17G23
  11760905.02645   9164335.43443  24976217.6554   24976221.6874
     -6322.9534      -4926.9764
   2006821.80947   1564277.68747  21452627.7654   21452628.7144
     -1791.6414      -1396.0844
   9538984.78447   7336322.00446  22887704.1874   22887705.7224
     -5593.5004      -4358.5714
   9000891.05946   7009280.60746  23307893.0854   23307895.5344
     -5344.8444      -4164.8134
   -304036.85345   -199194.86644  24690428.1084   24690431.2264
      -113.1564        -88.1744
    842832.18047    658819.58346  22618531.6164   22618534.0424
     -1162.9064       -906.1614
   -951200.67745   -687782.21345  24838749.3584   24838753.1554
       694.3754        541.0714
 98  6 26 19 35 30.0030000  0  7G 5G 6G30G10G26G17G23
  11855775.62645   9238260.51643  24994270.6874   24994274.4834
     -6326.4224      -4929.6794
   2033759.37747   1585268.00347  21457753.9134   21457754.9564
     -1800.0164      -1402.6104
   9622954.41347   7401752.85746  22903683.2724   22903684.7844
     -5602.4694      -4365.5604
   9081130.05246   7071804.47546  23323162.1244   23323164.6204
     -5353.6564      -4171.6804
   -302298.16045   -197840.01544  24690759.0074   24690762.1474
      -118.7194        -92.5084
    860324.46347    672449.94246  22621860.3274   22621862.8004
     -1169.3914       -911.2134
   -961573.26745   -695864.69144  24836774.4994   24836777.7694
       688.6564        536.6154
 98  6 26 19 35 45.0030000  0  7G 5G 6G30G10G26G17G23
  11950699.75445   9312227.31143  25012334.4444   25012339.8944
     -6329.9844      -4932.4554
   2060823.41747   1606356.86447  21462904.0854   21462905.2574
     -1808.3914      -1409.1364
   9707060.48747   7467290.04146  22919687.9994   22919689.3474
     -5611.5004      -4372.5974
   9161502.68346   7134432.50146  23338456.5694   23338459.1714
     -5362.5314      -4178.5964
   -300473.03945   -196417.77844  24691106.1714   24691109.2064
      -124.4694        -96.9894
    877916.05047    686157.68446  22625207.7184   22625210.1084
     -1176.0004       -916.3644
   -971858.79045   -703879.33044  24834817.5464   24834821.2494
       682.8914        532.1234
 98  6 26 19 36  0.0030000  0  7G 5G 6G30G10G26G17G23
  12045691.78845   9386246.98643  25030410.2884   25030415.6554
     -6335.1254      -4936.4614
   2088027.54247   1627554.88947  21468080.5544   21468081.6204
     -1818.2814      -1416.8434
   9791314.92947   7532942.83446  22935721.3744   22935722.7694
     -5621.8124      -4380.6334
   9242023.40746   7197175.90546  23353778.9834   23353781.3974
     -5373.1254      -4186.8514
   -298547.82445   -194917.57343  24691472.5464   24691476.8004
      -131.7504       -102.6624
    895621.39147    699954.06746  22628576.6244   22628579.0384
     -1184.2194       -922.7684
   -982045.76845   -711817.18244  24832878.5384   24832881.1514
       675.9224        526.6924
 98  6 26 19 36 15.0030000  0  7G 5G 6G30G10G26G17G23
  12140751.12845   9460319.15543  25048499.2494   25048504.7694
     -6339.3594      -4939.7614
   2115368.98947   1648859.91647  21473283.5774   21473284.7264
     -1827.1564      -1423.7584
   9875708.52147   7598704.05146  22951780.7414   22951782.0424
     -5630.4534      -4387.3664
   9322693.36846   7260035.60246  23369130.1164   23369132.4724
     -5382.6564      -4194.2784
   -296525.64245   -193341.82143  24691857.5544   24691862.0654
      -137.7974       -107.3744
    913439.94247    713838.66846  22631967.8044   22631970.3474
     -1191.5004       -928.4424
   -992141.74445   -719684.13144  24830957.3584   24830961.6474
       670.3914        522.3824
 98  6 26 19 36 30.0030000  0  7G 5G 6G30G10G26G17G23
  12235871.75945   9534439.06243  25066600.8274   25066606.3124
     -6343.3284      -4942.8534
   2142841.56847   1670267.12747  21478511.5464   21478512.5424
     -1835.7814      -1430.4794
   9960226.32647   7664562.06046  22967863.7654   22967865.1124
     -5638.5004      -4393.6364
   9403500.91146   7323002.51546  23384507.2334   23384509.8474
     -5391.6094      -4201.2544
   -294413.93545   -191696.28843  24692259.0934   24692262.3744
      -143.7344       -112.0014
    931366.32747    727807.29046  22635378.6404   22635380.9484
     -1198.6414       -934.0064
  -1002158.09345   -727489.02344  24829051.7104   24829055.5424
       665.2344        518.3644
 98  6 26 19 36 45.0030000  0  7G 5G 6G30G10G26G17G23
  12331051.93044   9608605.33443  25084712.7654   25084717.4764
     -6347.2034      -4945.8734
   2170441.62947   1691773.66947  21483763.4294   21483764.4604
     -1844.0784      -1436.9444
  10044863.83947   7730513.34946  22983969.8514   22983971.4914
     -5646.4224      -4399.8094
   9484442.61946   7386073.96446  23399909.9444   23399912.3234
     -5400.4694      -4208.1574
   -292211.62845   -189980.17444  24692678.8514   24692682.9874
      -149.7814       -116.7134
    949400.01447    741859.52746  22638810.3744   22638812.7414
     -1205.7194       -939.5214
  -1012099.34845   -735235.38444  24827159.9054   24827164.4174
       660.3284        514.5414
 98  6 26 19 37  0.0030000  0  7G 5G 6G30G10G26G17G23
  12426291.61144   9682818.01543  25102836.3354   25102840.5544
     -6351.3284      -4949.0874
   2198166.47247   1713377.44647  21489039.4914   21489040.7694
     -1852.5004      -1443.5064
  10129623.35547   7796559.70446  23000099.0694   23000100.6634
     -5654.8284      -4406.3604
   9565518.34046   7449249.84546  23415338.1874   23415340.5774
     -5409.6254      -4215.2924
   -289916.24545   -188191.52944  24693115.6084   24693118.9014
      -156.2504       -121.7534
    967542.74047    755996.72746  22642262.9914   22642265.3704
     -1213.2034       -945.3534
  -1021963.91845   -742922.00944  24825282.3274   24825285.8784
       655.0004        510.3904
 98  6 26 19 37 15.0030000  0  7G 5G 6G30G10G26G17G23
  12521585.20044   9757072.67243  25120970.3194   25120976.3434
     -6354.5004      -4951.5584
   2226012.52347   1735075.66647  21494338.2264   21494339.5034
     -1860.3594      -1449.6314
  10214504.17447   7862700.57646  23016251.6324   23016253.2024
     -5662.7194      -4412.5084
   9646727.02346   7512529.32346  23430791.8514   23430794.3704
     -5418.2344      -4222.0014
   -287527.92645   -186330.45744  24693569.4444   24693572.7144
      -162.2974       -126.4654
    985789.66147    770215.12146  22645735.3514   22645737.6244
     -1219.7504       -950.4554
  -1031753.43045   -750550.16444  24823419.2334   24823423.8864
       650.1724        506.6274
 98  6 26 19 37 30.0030000  0  7G 5G 6G30G10G26G17G23
  12616928.03544   9831365.71443  25139113.6944   25139117.4334
     -6357.7664      -4954.1034
   2253977.86247   1756866.84147  21499659.9684   21499661.0464
     -1868.2504      -1455.7794
  10299505.61547   7928935.44446  23032426.6244   23032428.1834
     -5670.7034      -4418.7304
   9728065.66046   7575910.07046  23446269.7494   23446271.9764
     -5426.8284      -4228.6974
   -285047.77545   -184397.83644  24694041.0774   24694044.4524
      -168.2664       -131.1164
   1004137.20747    784511.91846  22649226.6244   22649229.0384
     -1226.5314       -955.7394
  -1041467.97245   -758119.86744  24821570.4684   24821574.3704
       645.1884        502.7444
 98  6 26 19 37 45.0030000  0  7G 5G 6G30G10G26G17G23
  12712317.36244   9905694.98943  25157265.3514   25157270.4254
     -6361.0004      -4956.6234
   2282060.28247   1778749.26147  21505003.8824   21505005.2294
     -1876.2814      -1462.0374
  10384625.09047   7995262.28046  23048624.5464   23048625.8704
     -5678.6724      -4424.9394
   9809530.38746   7639389.07146  23461772.1164   23461774.5894
     -5435.3444      -4235.3334
   -282479.93945   -182396.87944  24694530.2494   24694533.4254
      -174.2974       -135.8164
   1022585.33847    798887.09846  22652737.2804   22652739.6364
     -1233.4064       -961.0964
  -1051110.75645   -765633.65644  24819735.6714   24819741.3904
       640.4224        499.0304
 98  6 26 19 38  0.0030000  0  7G 5G 6G30G10G26G17G23
  12807755.80444   9980062.51043  25175427.0154   25175431.7264
     -6364.2504      -4959.1564
   2310262.96947   1800725.38447  21510370.8514   21510371.8824
     -1884.2194      -1468.2224
  10469861.75347   8061680.43246  23064844.5694   23064846.0584
     -5686.3754      -4430.9424
   9891123.47246   7702968.08946  23477298.9764   23477301.3904
     -5443.9064      -4242.0054
   -279822.08045   -180325.79744  24695035.5074   24695038.6944
      -180.2034       -140.4184
   1041135.68147    813341.92446  22656267.2104   22656269.6014
     -1240.0944       -966.3074
  -1060683.87145   -773093.17144  24817913.6014   24817918.1244
       635.8594        495.4754
 98  6 26 19 38 15.0030000  0  7G 5G 6G30G10G26G17G23
  12903244.19544  10054468.95043  25193597.6404   25193601.1204
     -6367.4534      -4961.6524
   2338586.09247   1822795.35047  21515760.3584   21515761.4604
     -1892.1564      -1474.4074
  10555216.90247   8128190.91346  23081087.3274   23081088.7694
     -5694.2504      -4437.0784
   9972846.87446   7766648.65546  23492850.2414   23492852.4794
     -5452.4224      -4248.6404
   -277073.53845   -178184.07144  24695558.6634   24695562.2144
      -186.2344       -145.1184
   1059787.24747    827875.62046  22659816.4834   22659818.8514
     -1246.6724       -971.4334
  -1070185.20945   -780496.78045  24816105.9604   24816109.7224
       630.9534        491.6524
 98  6 26 19 38 30.0030000  0  7G 5G 6G30G10G26G17G23
  12998782.88445  10128914.63643  25211778.3664   25211783.4174
     -6371.1094      -4964.5014
   2367032.37447   1844961.28847  21521173.4994   21521174.7184
     -1900.7814      -1481.1284
  10640693.29747   8194795.88046  23097352.7414   23097354.3124
     -5702.7664      -4443.7134
  10054696.24746   7830427.37746  23508425.7024   23508428.3514
     -5460.9064      -4255.2524
   -274231.94545   -175969.77844  24696099.7724   24696103.7224
      -192.7974       -150.2314
   1078538.34347    842486.87546  22663384.6474   22663386.8744
     -1253.5784       -976.8144
  -1079607.79745   -787838.97445  24814312.7104   24814316.7884
       625.2344        487.1964
 98  6 26 19 38 45.0030000  0  7G 5G 6G30G10G26G17G23
  13094372.03345  10203399.62643  25229967.8744   25229970.7924
     -6374.0474      -4966.7904
   2395604.38747   1867225.20047  21526610.4214   21526611.5584
     -1908.7664      -1487.3504
  10726297.85947   8261500.71146  23113642.7334   23113644.1044
     -5711.0944      -4450.2034
  10136672.09846   7894304.65346  23524025.2804   23524027.9294
     -5469.1724      -4261.6924
   -271293.82045   -173680.31244  24696658.7654   24696661.8004
      -198.8444       -154.9434
   1097390.12947    857176.59046  22666972.3354   22666974.5854
     -1259.9064       -981.7454
  -1088944.18945   -795114.03545  24812536.6794   24812540.3004
       619.7344        482.9104
 98  6 26 19 39  0.0030000  0  7G 5G 6G30G10G26G17G23
  13190006.54145  10277919.93943  25248167.3904   25248172.8974
     -6376.9534      -4969.0544
   2424298.45347   1889584.21547  21532071.1084   21532072.3154
     -1916.8914      -1493.6814
  10812028.17847   8328303.53746  23129956.7414   23129958.1124
     -5719.3124      -4456.6074
  10218774.10046   7958280.23346  23539648.7334   23539651.2534
     -5477.4534      -4268.1454
   -268266.20445   -171321.08744  24697235.2104   24697238.3744
      -204.5624       -159.3994
   1116336.92647    871940.33746  22670577.7184   22670580.0854
     -1266.0624       -986.5424
  -1098197.24645   -802324.17245  24810775.3584   24810779.0974
       614.2194        478.6124
 98  6 26 19 39 15.0030000  0  7G 5G 6G30G10G26G17G23
  13285688.81845  10352477.48543  25266375.5384   25266380.5194
     -6380.5784      -4971.8794
   2453119.74547   1912042.37147  21537555.6244   21537556.5264
     -1925.9224      -1500.7184
  10897884.96947   8395204.91346  23146294.9444   23146296.3154
     -5728.1564      -4463.4984
  10301003.52546   8022355.09746  23555296.3044   23555298.8944
     -5486.4374      -4275.1464
   -265150.80545   -168893.47245  24697827.7264   24697830.3154
      -210.7344       -164.2094
   1135380.05747    886779.15446  22674201.3664   22674203.7454
     -1272.9064       -991.8754
  -1107362.31045   -809465.71345  24809031.4764   24809035.3904
       607.8444        473.6444
 98  6 26 19 39 30.0030000  0  7G 5G 6G30G10G26G17G23
  13381420.00445  10427073.14543  25284592.4134   25284595.8704
     -6383.7344      -4974.3384
   2482072.90647   1934603.27647  21543065.1634   21543066.2654
     -1934.6094      -1507.4884
  10983868.38047   8462204.95346  23162656.7104   23162657.9404
     -5736.4224      -4469.9394
  10383361.59546   8086530.20746  23570968.7184   23570970.7104
     -5494.7344      -4281.6114
   -261947.93345   -166397.70145  24698437.7964   24698440.5974
      -216.4224       -168.6404
   1154520.39547    901693.71746  22677843.6714   22677846.0384
     -1279.3444       -996.8914
  -1116436.76945   -816536.68045  24807304.2494   24807308.2104
       601.9844        469.0794
 98  6 26 19 39 45.0030000  0  7G 5G 6G30G10G26G17G23
  13477199.81145  10501706.69043  25302818.6474   25302823.9684
     -6386.9374      -4976.8344
   2511156.70647   1957265.98247  21548599.4764   21548600.6014
     -1943.2814      -1514.2454
  11069974.91547   8529300.93746  23179042.3434   23179044.1714
     -5744.4844      -4476.2224
  10465843.99946   8150802.20446  23586664.6014   23586667.4254
     -5502.9844      -4288.0404
   -258659.87345   -163835.53244  24699062.8124   24699066.0584
      -222.0784       -173.0484
   1173759.00747    916684.85546  22681504.7184   22681506.9334
     -1285.8594      -1001.9684
  -1125424.08745   -823539.69444  24805594.3904   24805598.1874
       596.2194        464.5864
 98  6 26 19 40  0.0030000  0  7G 5G 6G30G10G26G17G23
  13573029.47745  10576379.09343  25321054.2654   25321059.2454
     -6390.2974      -4979.4524
   2540372.00347   1980031.15447  21554159.0154   21554160.3394
     -1952.0314      -1521.0634
  11156204.33947   8596492.66946  23195451.3274   23195453.1324
     -5752.6564      -4482.5894
  10548452.65746   8215172.56745  23602384.2654   23602387.2534
     -5511.4534      -4294.6394
   -255283.59445   -161204.65645  24699705.4054   24699707.6324
      -228.0004       -177.6624
   1193096.60247    931753.12746  22685184.5154   22685186.6834
     -1292.4224      -1007.0824
  -1134320.86645   -830472.23244  24803900.8744   24803904.1904
       590.0474        459.7774
 98  6 26 19 40 15.0030000  0  7G 5G 6G30G10G26G17G23
  13668910.74445  10651091.67743  25339300.0854   25339305.9564
     -6393.7814      -4982.1674
   2569718.81847   2002898.80547  21559743.5694   21559744.5544
     -1960.8594      -1527.9424
  11242556.17947   8663779.79746  23211883.5934   23211885.2924
     -5760.8914      -4489.0064
  10631189.40946   8279642.75145  23618128.6714   23618131.5774
     -5520.0474      -4301.3354
   -251818.53345   -158504.57044  24700364.9524   24700369.0544
      -233.9064       -182.2654
   1212533.91047    946899.08746  22688883.2494   22688885.5464
     -1299.1414      -1012.3174
  -1143121.10745   -837329.48345  24802226.2334   24802230.0654
       583.3284        454.5414
 98  6 26 19 40 30.0030000  0  7G 5G 6G30G10G26G17G23
  13764841.35945  10725842.74843  25357555.3514   25357560.6714
     -6397.0784      -4984.7364
   2599198.51947   2025870.01147  21565353.3974   21565354.4874
     -1969.9224      -1535.0044
  11329029.99046   8731161.96846  23228339.0304   23228340.5424
     -5769.0624      -4495.3734
  10714051.64146   8344210.71645  23633896.8904   23633899.8664
     -5528.3914      -4307.8374
   -248268.19545   -155738.04345  24701040.4604   24701043.5194
      -239.5944       -186.6964
   1232069.42147    962121.57646  22692600.5544   22692602.8274
     -1305.6874      -1017.4194
  -1151821.23045   -844108.75345  24800570.9054   24800575.5114
       576.6254        449.3184
 98  6 26 19 40 45.0030000  0  7G 5G 6G30G10G26G17G23
  13860818.04345  10800629.69043  25375818.5224   25375823.7724
     -6399.7664      -4986.8304
   2628811.68947   2048945.20947  21570988.3434   21570989.3154
     -1978.4224      -1541.6274
  11415623.13546   8798637.12146  23244817.1324   23244818.7614
     -5776.6414      -4501.2784
  10797037.71946   8408875.17246  23649688.5074   23649691.5544
     -5536.4534      -4314.1194
   -244635.01145   -152906.96445  24701731.9444   24701734.5224
      -244.8444       -190.7874
   1251701.17447    977419.05847  22696336.6084   22696339.0814
     -1311.8754      -1022.2404
  -1160425.28545   -850813.15645  24798933.5224   24798937.5894
       570.6884        444.6924
 98  6 26 19 41  0.0040000  0  7G 5G 6G30G10G26G17G23
  13956846.24745  10875456.80643  25394092.0514   25394098.9104
     -6402.8444      -4989.2294
   2658557.64647   2072123.88447  21576648.8874   21576649.9304
     -1987.2034      -1548.4704
  11502338.51646   8866207.52646  23261318.7384   23261319.9574
     -5784.3124      -4507.2564
  10880156.25546   8473642.85146  23665505.4964   23665508.1804
     -5544.9374      -4320.7314
   -240917.08445   -150009.83545  24702439.4964   24702442.4374
      -250.5784       -195.2564
   1271431.17647    992793.09347  22700090.9804   22700093.3014
     -1318.3284      -1027.2694
  -1168938.74545   -857446.96245  24797313.0274   24797317.4104
       564.7194        440.0414
 98  6 26 19 41 15.0040000  0  8G 5G 6G30G10G26G17G23G22
  14052909.10745  10950310.92043  25412372.3874   25412377.7074
     -6405.4224      -4991.2384
   2688430.02147   2095401.06047  21582333.5204   21582334.6214
     -1995.6724      -1555.0694
  11589159.04846   8933859.86746  23277840.1214   23277841.4804
     -5791.6724      -4512.9914
  10963391.06846   8538501.12646  23681344.9884   23681347.6024
     -5552.8914      -4326.9284
   -237115.93845   -147047.88345  24703162.7304   24703166.0704
      -256.1874       -199.6274
   1291252.25147   1008238.10647  22703862.6214   22703864.9534
     -1324.3914      -1031.9934
  -1177366.49345   -864013.99545  24795709.6844   24795713.3874
       559.0474        435.6214
      3540.59344                  25705339.0274
      -256.9374
 98  6 26 19 41 30.0040000  0  8G 5G 6G30G10G26G17G23G22
  14149012.62544  11025196.70943  25430660.6454   25430665.2734
     -6408.2504      -4993.4424
   2718431.02747   2118778.46947  21588042.6294   21588043.6024
     -2004.3754      -1561.8514
  11676091.85746   9001599.69846  23294382.6914   23294384.2154
     -5799.2814      -4518.9204
  11046746.57546   8603453.45946  23697206.8954   23697209.4734
     -5561.1414      -4333.3564
   -233227.37845   -144017.80145  24703902.6684   24703905.1994
      -262.3124       -204.3994
   1311166.14847   1023755.44047  22707652.2544   22707654.7034
     -1330.7034      -1036.9124
  -1185707.22645   -870513.18544  24794121.8874   24794125.4144
       553.1724        431.0434
      7462.25544                  25706084.9184
      -265.8444
 98  6 26 19 41 45.0040000  0  8G 5G 6G30G10G26G17G23G22
  14245154.41945  11100112.29443  25448955.3954   25448960.3284
     -6410.7664      -4995.4024
   2748558.47747   2142254.40847  21593775.4884   21593776.4734
     -2012.7194      -1568.3524
  11763134.39246   9069425.01946  23310946.4654   23310947.9654
     -5806.5004      -4524.5454
  11130221.38946   8668498.75746  23713091.5514   23713093.9654
     -5568.9534      -4339.4444
   -229249.08045   -140917.78545  24704659.5354   24704662.4304
      -268.1874       -208.9774
   1331170.59647   1039343.33146  22711459.1294   22711461.4734
     -1336.6254      -1041.5264
  -1193965.05745   -876947.81945  24792550.9734   24792555.2974
       547.7664        426.8304
     11514.57143                  25706855.5664
      -274.5474
 98  6 26 19 42  0.0040000  0  8G 5G 6G30G10G26G17G23G22
  14341335.38544  11175058.45043  25467259.0594   25467263.1844
     -6413.3124      -4997.3864
   2778811.81147   2165828.44047  21599532.4494   21599533.5864
     -2021.0474      -1574.8424
  11850285.49246   9137334.95146  23327530.8714   23327532.5124
     -5813.6564      -4530.1224
  11213815.81846   8733637.26046  23728999.1764   23729001.6374
     -5576.9374      -4345.6664
   -225182.67245   -137749.11644  24705433.3554   24705436.6374
      -273.9844       -213.4944
   1351263.29547   1054999.99447  22715282.3554   22715284.6524
     -1342.3914      -1046.0194
  -1202139.39845   -883317.36444  24790995.0514   24790998.8714
       542.1884        422.4844
     15698.76343                  25707651.9964
      -283.3124
 98  6 26 19 42 15.0040000  0  8G 5G 6G30G10G26G17G23G22
  14437556.51344  11250035.87342  25485568.3484   25485576.9064
     -6416.1254      -4999.5784
   2809192.56247   2189501.76347  21605313.8244   21605315.0084
     -2029.7504      -1581.6234
  11937546.53446   9205330.54446  23344135.9344   23344137.6334
     -5821.0944      -4535.9174
  11297531.35246   8798870.12946  23744929.5514   23744931.9654
     -5585.0784      -4352.0094
   -221027.87545   -134511.58745  24706224.0274   24706226.5824
      -279.9224       -218.1214
   1371444.68847   1070725.76547  22719123.0204   22719125.3634
     -1348.4844      -1050.7674
  -1210229.81945   -889621.53645  24789455.5744   24789459.7344
       536.6094        418.1374
     20015.91843                  25708473.6214
      -292.2344
 98  6 26 19 42 30.0040000  0  8G 5G 6G30G10G26G17G23G22
  14533818.12444  11325044.82042  25503886.8244   25503892.2854
     -6418.7194      -5001.5994
   2839704.14447   2213277.02447  21611120.0274   21611121.2114
     -2038.4844      -1588.4294
  12024919.03246   9273412.98346  23360762.6134   23360764.3484
     -5828.6094      -4541.7744
  11381367.33046   8864196.85246  23760883.1134   23760885.5164
     -5593.0164      -4358.1944
   -216783.00845   -131203.87045  24707031.8634   24707034.8754
      -286.1094       -222.9424
   1391717.70447   1086522.93047  22722980.7704   22722983.1484
     -1354.5944      -1055.5284
  -1218239.45345   -895862.75545  24787931.5824   24787935.0274
       531.4064        414.0834
     24465.71143      3010.59852  25709319.8324   25709326.3594
      -301.0944       -234.6194
 98  6 26 19 42 45.0040000  0  8G 5G 6G30G10G26G17G23G22
  14630113.29044  11400079.98742  25522211.1294   25522216.2154
     -6420.5164      -5002.9994
   2870342.09647   2237150.75447  21616950.2774   21616951.6024
     -2046.4224      -1594.6144
  12112400.25746   9341580.14646  23377409.6374   23377411.4184
     -5835.4224      -4547.0824
  11465318.14246   8929613.06445  23776858.1604   23776860.1414
     -5600.3594      -4363.9164
   -212446.81245   -127824.96444  24707856.6844   24707859.4964
      -292.0314       -227.5574
   1412080.57647   1102390.11647  22726855.5664   22726857.6414
     -1360.4224      -1060.0694
  -1226177.22045   -902047.95045  24786420.8484   24786424.0004
       527.0944        410.7224
     29044.60043      6578.60942  25710191.9104   25710196.6684
      -309.3754       -241.0714
 98  6 26 19 43  0.0040000  0  8G 5G 6G30G10G26G17G23G22
  14726438.98244  11475138.85842  25540541.7234   25540548.9574
     -6422.7664      -5004.7524
   2901101.13647   2261118.84247  21622803.6214   21622804.6764
     -2054.6414      -1601.0194
  12199986.68746   9409829.28446  23394076.5274   23394077.8404
     -5842.6414      -4552.7074
  11549383.65046   8995118.64345  23792855.6604   23792858.1564
     -5608.2664      -4370.0774
   -208016.25845   -124372.56145  24708699.4264   24708702.3794
      -298.5314       -232.6224
   1432536.33447   1118329.68047  22730748.0594   22730750.3094
     -1366.8754      -1065.0974
  -1234046.54445   -908179.86445  24784923.1994   24784926.3754
       522.2664        406.9604
     33752.71643     10247.26842  25711088.0274   25711090.7814
      -318.2194       -247.9634
 98  6 26 19 43 15.0040000  0  8G 5G 6G30G10G26G17G23G22
  14822796.35044  11550222.49442  25558878.1374   25558885.0084
     -6424.8594      -5006.3844
   2931983.31247   2285182.88147  21628680.2704   21628681.2774
     -2062.9694      -1607.5084
  12287680.11046   9478161.80246  23410764.1214   23410765.7154
     -5849.8124      -4558.2954
  11633566.58446   9060715.71345  23808874.8634   23808877.3594
     -5616.0624      -4376.1534
   -203489.35145   -120845.06044  24709561.2464   24709564.1994
      -305.0004       -237.6624
   1453087.92947   1134343.91747  22734658.8954   22734661.0864
     -1373.3754      -1070.1624
  -1241842.21345   -914254.33945  24783440.4734   24783444.2704
       517.1254        402.9554
     38592.40743     14018.56942  25712008.5594   25712013.9734
      -327.0314       -254.8304
 98  6 26 19 43 30.0040000  0  8G 5G 6G30G10G26G17G23G22
  14919185.46944  11625330.79542  25577219.9184   25577223.9614
     -6427.0784      -5008.1134
   2962990.73847   2309344.51547  21634580.5824   21634581.6374
     -2071.3444      -1614.0344
  12375482.49546   9546579.22146  23427472.4734   23427474.2074
     -5857.1254      -4563.9944
  11717866.01746   9126403.57745  23824916.3324   23824919.1454
     -5623.7974      -4382.1794
   -198865.96345   -117242.39445  24710440.8714   24710444.7624
      -311.4374       -242.6794
   1473737.71047   1150434.67047  22738588.5124   22738590.8794
     -1379.9224      -1075.2644
  -1249558.48945   -920266.95645  24781971.6684   24781975.1844
       511.7034        398.7304
     43564.90043     17893.23343  25712955.4804   25712958.8204
      -335.9064       -261.7454
 98  6 26 19 43 45.0040000  0  8G 5G 6G30G10G26G17G23G22
  15015609.81844  11700466.61042  25595568.7624   25595570.5784
     -6429.3914      -5009.9154
   2994124.04447   2333604.23547  21640505.1294   21640506.2424
     -2079.7034      -1620.5484
  12463394.85046   9615082.32846  23444201.6214   23444203.0864
     -5864.5004      -4569.7404
  11802281.20546   9192181.62345  23840980.3874   23840982.5434
     -5631.4694      -4388.1574
   -194146.07945   -113564.52545  24711339.0594   24711342.2934
      -317.7814       -247.6224
   1494487.56947   1166603.40747  22742537.0594   22742539.4844
     -1386.6564      -1080.5114
  -1257193.99845   -926216.66345  24780518.4414   24780522.2504
       506.4384        394.6274
     48668.92043     21870.40842  25713926.0044   25713928.3834
      -344.5784       -268.5024
 98  6 26 19 44  0.0040000  0  8G 5G 6G30G10G26G17G23G22
  15112065.29344  11775626.67242  25613923.7704   25613928.3054
     -6431.4844      -5011.5464
   3025381.42647   2357960.64247  21646453.3794   21646454.5394
     -2088.1094      -1627.0984
  12551416.89346   9683670.90746  23460951.6994   23460953.3404
     -5871.8914      -4575.4994
  11886808.36346   9258046.93245  23857065.3244   23857067.8674
     -5639.0004      -4394.0264
   -189334.64445   -109815.33345  24712254.7384   24712258.5594
      -323.8754       -252.3704
   1515336.17047   1182849.07947  22746504.4184   22746506.8324
     -1393.3124      -1085.6984
  -1264751.64745   -932105.68245  24779080.2544   24779083.5354
       501.1094        390.4754
     53900.90543     25947.31042  25714921.5984   25714925.0784
      -353.1724       -275.1994
 98  6 26 19 44 15.0040000  0  8G 5G 6G30G10G26G17G23G22
  15208553.07044  11850811.89042  25632284.9104   25632289.3634
     -6433.3594      -5013.0074
   3056765.99747   2382416.15847  21652425.3404   21652426.5944
     -2096.3284      -1633.5024
  12639550.18246   9752346.17246  23477722.8404   23477724.4804
     -5879.0784      -4581.1004
  11971449.83246   9324001.30545  23873171.8794   23873174.5744
     -5646.3594      -4399.7614
   -184430.15645   -105993.61145  24713188.0434   24713190.5864
      -329.9534       -257.1064
   1536286.94447   1199174.37447  22750491.3014   22750493.8204
     -1400.0164      -1090.9214
  -1272228.97745   -937932.10745  24777657.6454   24777661.8164
       496.0314        386.5184
     59262.19744     30124.97642  25715942.0434   25715945.1254
      -361.4694       -281.6644
 98  6 26 19 44 30.0040000  0  8G 5G 6G30G10G26G17G23G22
  15305069.48144  11926019.41542  25650651.7464   25650655.4734
     -6435.5624      -5014.7244
   3088274.71147   2406968.40547  21658421.3244   21658422.6484
     -2104.8594      -1640.1504
  12727793.50646   9821107.16746  23494515.1524   23494516.6874
     -5886.7344      -4587.0664
  12056202.47246   9390042.31245  23889299.9264   23889302.3754
     -5654.0474      -4405.7514
   -179432.39945   -102099.23045  24714138.8484   24714142.0824
      -336.4844       -262.1964
   1557340.47247   1215579.72846  22754497.4804   22754499.8954
     -1407.1724      -1096.4984
  -1279628.46045   -943697.88545  24776249.6374   24776252.9884
       490.4534        382.1714
     64747.38244     34399.12742  25716985.5434   25716988.2274
      -369.9064       -288.2394
 98  6 26 19 44 45.0040000  0  8G 5G 6G30G10G26G17G23G22
  15401611.13744  12001246.60442  25669022.6764   25669027.2234
     -6437.0164      -5015.8564
   3119903.03447   2431613.86147  21664439.9184   21664441.0434
     -2112.5624      -1646.1534
  12816143.49546   9889951.28746  23511327.6994   23511329.6094
     -5893.5624      -4592.3864
  12141063.48646   9456167.76645  23905448.5274   23905451.3054
     -5661.1414      -4411.2784
   -174342.34645    -98132.90045  24715107.4654   24715110.8754
      -342.5164       -266.8954
   1578493.00547   1232062.23247  22758522.6844   22758525.2154
     -1413.5004      -1101.4294
  -1286949.33745   -949402.40345  24774855.9884   24774859.3754
       485.2034        378.0804
     70351.95144     38766.37342  25718052.4024   25718054.2774
      -377.7344       -294.3384
 98  6 26 19 45  0.0040000  0  8G 5G 6G30G10G26G17G23G22
  15498182.78344  12076497.19342  25687400.0274   25687406.6954
     -6439.1564      -5017.5244
   3151653.93547   2456354.83047  21670481.6454   21670482.8984
     -2120.8124      -1652.5814
  12904601.79646   9958879.80846  23528160.5354   23528162.1874
     -5900.8124      -4598.0364
  12226039.77346   9522383.04345  23921619.2304   23921621.9264
     -5668.9374      -4417.3544
   -169156.98545    -94092.34645  24716094.3714   24716097.8874
      -348.7814       -271.7784
   1599747.69647   1248624.34046  22762567.4574   22762569.9774
     -1420.2974      -1106.7254
  -1294180.52545   -955037.04745  24773480.3014   24773483.2544
       479.0164        373.2594
     76080.58744     43230.23842  25719142.5044   25719145.5164
      -385.9694       -300.7554
 98  6 26 19 45 15.0040000  0  8G 5G 6G30G10G26G17G23G22
  15594786.51644  12151772.74642  25705782.2934   25705786.1374
     -6441.3284      -5019.2174
   3183529.55247   2481192.97047  21676547.5904   21676548.7624
     -2129.2504      -1659.1564
  12993169.92946  10027893.91146  23545014.8094   23545016.4494
     -5908.2194      -4603.8074
  12311131.61846   9588688.36345  23937811.2934   23937814.0004
     -5676.5944      -4423.3204
   -163880.81045    -89981.01345  24717098.4574   24717101.5624
      -354.7194       -276.4044
   1621100.63347   1265263.00047  22766630.7934   22766633.3014
     -1426.7194      -1111.7294
  -1301318.29645   -960598.89345  24772122.0744   24772125.7194
       472.6884        368.3284
     81930.55944     47788.72042  25720256.0664   25720257.3674
      -393.9844       -307.0014
 98  6 26 19 45 30.0040000  0  8G 5G 6G30G10G26G17G23G22
  15691424.85944  12227075.25742  25724172.0124   25724177.5434
     -6443.6564      -5021.0314
   3215533.11047   2506130.81447  21682637.8324   21682639.1094
     -2137.6874      -1665.7314
  13081849.23846  10096994.65146  23561889.9654   23561891.7234
     -5915.5624      -4609.5294
  12396336.49646   9655081.77145  23954025.4884   23954027.6804
     -5683.9064      -4429.0184
   -158514.66545    -85799.56745  24718119.4804   24718123.1954
      -360.5784       -280.9704
   1642550.45747   1281977.15646  22770712.2544   22770714.8554
     -1433.0944      -1116.6964
  -1308361.14945   -966086.77145  24770781.8324   24770786.0864
       466.5784        363.5674
     87901.11544     52441.09042  25721391.9654   25721396.6414
      -401.9064       -313.1744
 98  6 26 19 45 45.0040000  0  8G 5G 6G30G10G26G17G23G22
  15788096.73444  12302403.94942  25742568.9344   25742574.5004
     -6446.2814      -5023.0764
   3247660.66147   2531165.27147  21688751.7704   21688753.0124
     -2146.3754      -1672.5004
  13170637.28346  10166180.11946  23578785.6214   23578787.2034
     -5923.2034      -4615.4834
  12481649.01746   9721559.05445  23970260.0664   23970262.3754
     -5691.5004      -4434.9354
   -153063.64245    -81551.96945  24719156.7854   24719159.9614
      -366.5784       -285.6454
   1664092.64547   1298763.28847  22774811.6764   22774814.1024
     -1439.5944      -1121.7614
  -1315316.92145   -971506.80245  24769457.9964   24769461.6644
       460.4844        358.8194
     93988.49644     57184.54742  25722550.3094   25722551.6564
      -410.1254       -319.5784
 98  6 26 19 46  0.0040000  0  8G 5G 6G30G10G26G17G23G22
  15884805.83444  12377761.54542  25760972.1214   25760977.2774
     -6448.2814      -5024.6354
   3279918.64847   2556301.36747  21694890.2154   21694891.4224
     -2154.7504      -1679.0264
  13259539.20846  10235454.32646  23595703.4734   23595705.1134
     -5930.3754      -4621.0714
  12567077.06846   9788126.33945  23986516.4804   23986519.0704
     -5698.9374      -4440.7314
   -147521.53845    -77233.44345  24720211.3164   24720214.4344
      -372.3754       -290.1624
   1685733.25447   1315626.11047  22778929.8794   22778932.1524
     -1445.7974      -1126.5954
  -1322181.05445   -976855.43145  24768151.9104   24768154.9924
       454.6724        354.2904
    100201.03244     62025.46142  25723732.2854   25723732.8484
      -418.2664       -325.9214
 98  6 26 19 46 15.0040000  0  8G 5G 6G30G10G26G17G23G22
  15981545.75944  12453143.25643  25779380.9104   25779384.1804
     -6450.2974      -5026.2054
   3312303.16247   2581536.05747  21701052.5434   21701053.7034
     -2163.0784      -1685.5154
  13348546.29446  10304810.47246  23612640.4574   23612642.0394
     -5937.1564      -4626.3564
  12652617.02146   9854780.84145  24002794.0434   24002796.3874
     -5706.3284      -4446.4894
   -141891.64545    -72846.46145  24721282.7774   24721286.1994
      -378.2034       -294.7044
   1707465.86047   1332560.62247  22783065.5274   22783067.9884
     -1451.7814      -1131.2584
  -1328957.08345   -982135.41145  24766862.4494   24766866.5274
       448.8914        349.7854
    106536.94844     66962.56043  25724938.3164   25724940.7074
      -426.4534       -332.3014
 98  6 26 19 46 30.0040000  0  8G 5G 6G30G10G26G17G23G22
  16078317.22644  12528549.55542  25797796.0204   25797798.7504
     -6452.5164      -5027.9344
   3344812.75947   2606868.21647  21707239.1764   21707240.3834
     -2171.4844      -1692.0664
  13437656.65546  10374247.09746  23629597.8874   23629599.5744
     -5944.1874      -4631.8344
  12738269.56446   9921523.07445  24019093.1214   24019095.7114
     -5713.8914      -4452.3824
   -136171.50745    -68389.17945  24722371.0514   24722374.8014
      -384.4064       -299.5374
   1729290.16947   1349566.58747  22787218.6684   22787220.8484
     -1458.0004      -1136.1044
  -1335643.02145   -987345.17645  24765589.6764   24765592.9454
       442.5944        344.8784
    112998.42045     71997.49142  25726167.9264   25726170.7974
      -435.0164       -338.9734
 98  6 26 19 46 45.0040000  0  8G 5G 6G30G10G26G17G23G22
  16175119.58145  12603979.84343  25816216.8954   25816222.0864
     -6454.5314      -5029.5054
   3377447.13747   2632297.60847  21713449.3324   21713450.4104
     -2179.8914      -1698.6164
  13526870.75946  10443764.55846  23646574.9104   23646576.5274
     -5951.0474      -4637.1794
  12824032.59046   9988351.39345  24035413.4804   24035415.7664
     -5721.2344      -4458.1054
   -130360.20045    -63860.86645  24723477.0664   24723480.1604
      -390.4534       -304.2494
   1751204.23647   1366642.49747  22791388.6604   22791391.0394
     -1463.9374      -1140.7314
  -1342235.93645   -992482.45445  24764335.1684   24764338.5434
       436.3754        340.0324
    119588.06045     77132.31743  25727421.7934   25727424.0204
      -443.7974       -345.8164
 98  6 26 19 47  0.0040000  0  8G 5G 6G30G10G26G17G23G22
  16271951.19245  12679433.02542  25834644.0514   25834648.8204
     -6456.4064      -5030.9664
   3410206.76447   2657824.59047  21719683.0984   21719684.0944
     -2188.1724      -1705.0694
  13616185.87146  10513360.72146  23663570.8954   23663572.5124
     -5957.7664      -4642.4154
  12909904.99446  10055264.93745  24051754.6524   24051757.5824
     -5728.5314      -4463.7914
   -124460.74145    -59263.86945  24724599.6454   24724602.9494
      -396.2344       -308.7544
   1773205.83047   1383786.60947  22795575.5984   22795578.0004
     -1469.7504      -1145.2604
  -1348736.75945   -997547.98245  24763098.1374   24763101.7584
       430.3444        335.3334
    126311.45145     82371.35242  25728701.3324   25728703.6524
      -452.8284       -352.8534
 98  6 26 19 47 15.0040000  0  8G 5G 6G30G10G26G17G23G22
  16368811.43045  12754908.45543  25853075.4024   25853081.6134
     -6458.2664      -5032.4154
   3443091.81847   2683449.31547  21725941.0824   21725942.1844
     -2196.4694      -1711.5344
  13705604.08146  10583037.21346  23680586.5274   23680588.2034
     -5964.6564      -4647.7844
  12995886.02946  10122263.13145  24068115.8094   24068118.5394
     -5735.5624      -4469.2694
   -118475.26145    -54599.82545  24725738.3324   24725742.6094
      -401.9374       -313.1984
   1795295.31347   1400999.20347  22799779.0904   22799781.4924
     -1475.4844      -1149.7284
  -1355149.71145  -1002545.02645  24761877.3794   24761881.5984
       424.7664        330.9864
    133171.09045     87716.47942  25730006.2304   25730009.1954
      -461.8444       -359.8784
 98  6 26 19 47 30.0040000  0  8G 5G 6G30G10G26G17G23G22
  16465698.77544  12830405.01143  25871512.9494   25871518.9024
     -6460.1094      -5033.8514
   3476101.28947   2709170.98447  21732222.4494   21732223.2704
     -2204.8284      -1718.0484
  13795125.54446  10652794.17646  23697622.2624   23697623.9494
     -5971.5314      -4653.1414
  13081972.58246  10189343.54445  24084497.7544   24084501.0354
     -5742.6724      -4474.8094
   -112401.78145    -49867.20645  24726894.3324   24726897.3324
      -407.9694       -317.8984
   1817471.41447   1418279.29447  22803998.5594   22804000.9614
     -1481.3914      -1154.3304
  -1361479.91645  -1007477.61645  24760673.4734   24760676.8124
       419.2194        326.6644
    140169.07245     93169.48543  25731338.4804   25731341.8444
      -471.2814       -367.2324
 98  6 26 19 47 45.0040000  0  8G 5G 6G30G10G26G17G23G22
  16562614.87744  12905924.00442  25889956.3094   25889961.5234
     -6461.8594      -5035.2154
   3509236.09347   2734990.31947  21738527.6374   21738528.6914
     -2213.0164      -1724.4284
  13884748.84446  10722630.48846  23714676.9654   23714678.5004
     -5978.1254      -4658.2794
  13168166.02846  10256507.25045  24100899.6214   24100902.4924
     -5749.7344      -4480.3124
   -106236.06245    -45062.71145  24728067.7854   24728070.8554
      -414.0474       -322.6344
   1839736.16947   1435628.46447  22808235.6994   22808238.2894
     -1487.1414      -1158.8114
  -1367726.82145  -1012345.28545  24759484.4804   24759488.6524
       413.7344        322.3904
    147308.60245     98732.78343  25732696.9494   25732700.7704
      -480.5784       -374.4764
 98  6 26 19 48  0.0040000  0  8G 5G 6G30G10G26G17G23G22
  16659555.55144  12981462.18142  25908403.0904   25908409.6294
     -6463.5004      -5036.4944
   3542494.46047   2760905.93347  21744856.5824   21744857.6604
     -2221.3754      -1730.9424
  13974470.46246  10792543.41446  23731750.2774   23731752.1644
     -5984.6564      -4663.3694
  13254466.58746  10323754.42145  24117322.2624   24117325.4374
     -5756.9694      -4485.9504
    -99975.93745    -40184.66645  24729259.0664   24729261.5744
      -420.5784       -327.7234
   1862087.98747   1453045.47347  22812488.9964   22812491.5044
     -1493.0474      -1163.4134
  -1373887.97845  -1017146.12545  24758311.8324   24758315.2074
       407.7814        317.7524
    154589.35545    104406.12343  25734081.8404   25734084.5594
      -490.1724       -381.9524
 98  6 26 19 48 15.0040000  0  8G 5G 6G30G10G26G17G23G22
  16756520.15944  13057018.91342  25926854.0594   25926859.9774
     -6465.0784      -5037.7234
   3575877.24447   2786918.49447  21751208.9884   21751210.1374
     -2229.6094      -1737.3584
  14064289.16446  10862531.98246  23748842.1214   23748844.0784
     -5991.1254      -4668.4094
  13340874.75246  10391085.44745  24133764.9494   24133768.3244
     -5764.0004      -4491.4294
    -93617.21145    -35229.78545  24730469.1374   24730471.4104
      -427.1414       -332.8374
   1884527.31547   1470530.67447  22816759.1374   22816761.4454
     -1498.7664      -1167.8694
  -1379960.23045  -1021877.70545  24757156.2624   24757159.4734
       401.9534        313.2104
    162011.65145    110189.73043  25735494.8404   25735498.9534
      -499.3754       -389.1234
 98  6 26 19 48 30.0040000  0  8G 5G 6G30G10G26G17G23G22
  16853510.78944  13132595.91442  25945310.7304   25945316.0164
     -6466.7504      -5039.0264
   3609385.05347   2813028.47947  21757585.5514   21757586.5704
     -2237.8594      -1743.7874
  14154207.68246  10932598.33646  23765952.9024   23765955.0124
     -5997.8124      -4673.6204
  13427389.47446  10458499.49145  24150228.3954   24150231.9224
     -5771.0784      -4496.9444
    -87159.68945    -30197.91445  24731697.9104   24731699.9264
      -433.6564       -337.9144
   1907053.78247   1488083.77747  22821045.4264   22821048.0394
     -1504.5624      -1172.3864
  -1385944.39945  -1026540.66345  24756017.6524   24756021.3204
       396.1564        308.6934
    169572.49845    116081.29543  25736933.5514   25736935.4964
      -508.5004       -396.2344
 98  6 26 19 48 45.0040000  0  8G 5G 6G30G10G26G17G23G22
  16950525.47844  13208191.74642  25963772.4264   25963776.2814
     -6468.5004      -5040.3904
   3643015.56447   2839234.07147  21763985.3094   21763986.4224
     -2246.1874      -1750.2764
  14244225.03546  11002741.70546  23783082.8324   23783084.7544
     -6004.4374      -4678.7824
  13514009.53346  10525995.62845  24166711.7624   24166714.4694
     -5778.1874      -4502.4844
    -80604.08545    -25089.62645  24732945.3014   24732947.9494
      -440.3284       -343.1134
   1929666.56347   1505704.14047  22825348.8404   22825351.2774
     -1510.3594      -1176.9034
  -1391842.69345  -1031136.68545  24754895.3794   24754898.4264
       390.4534        304.2494
    177268.32045    122078.08643  25738398.3014   25738401.3364
      -517.4844       -403.2354
 98  6 26 19 49  0.0040000  0  8G 5G 6G30G10G26G17G23G22
  17047566.71544  13283808.21242  25982238.3634   25982245.3404
     -6470.3914      -5041.8634
   3676772.90947   2865538.49947  21770408.9024   21770410.1094
     -2254.8284      -1757.0094
  14334341.32246  11072962.16046  23800231.6764   23800233.5164
     -6011.1094      -4683.9814
  13600737.70346  10593576.00145  24183215.7074   24183219.0594
     -5785.6094      -4508.2674
    -73949.40145    -19904.12845  24734211.3874   24734214.0124
      -447.0314       -348.3364
   1952365.92047   1523391.96247  22829668.4734   22829670.9104
     -1516.2814      -1181.5184
  -1397658.11745  -1035668.13445  24753788.1994   24753791.1874
       384.8754        299.9034
    185097.45645    128178.74443  25739887.6994   25739891.9534
      -526.4064       -410.1874
 98  6 26 19 49 15.0040000  0  8G 5G 6G30G10G26G17G23G22
  17144635.42043  13359446.12942  26000710.2464   26000715.4614
     -6472.0944      -5043.1904
   3710658.31547   2891942.71747  21776857.1054   21776858.2664
     -2263.2504      -1763.5714
  14424557.04946  11143260.09946  23817399.2074   23817400.8714
     -6017.6254      -4689.0584
  13687576.31146  10661242.43445  24199740.4414   24199743.1844
     -5792.8284      -4513.8924
    -67193.46345    -14639.74945  24735497.0744   24735499.5594
      -453.7814       -353.5964
   1975153.89047   1541148.83047  22834004.5744   22834006.8244
     -1522.1094      -1186.0594
  -1403390.01945  -1040134.51645  24752697.7154   24752701.2774
       379.4384        295.6664
    193056.63045    134380.72143  25741402.6684   25741405.7854
      -534.7814       -416.7134
 98  6 26 19 49 30.0040000  0  8G 5G 6G30G10G26G17G23G22
  17241731.56644  13435105.37542  26019186.7774   26019191.3714
     -6474.1564      -5044.7974
   3744672.18147   2918447.03347  21783329.8954   21783331.0434
     -2272.0784      -1770.4504
  14514870.58646  11213634.25346  23834585.2774   23834587.1644
     -6024.2814      -4694.2454
  13774523.05146  10728993.12345  24216285.7544   24216288.6604
     -5800.2194      -4519.6514
    -60333.01945     -9293.89845  24736802.5274   24736805.9844
      -461.1414       -359.3304
   1998029.86347   1558974.27347  22838357.7704   22838360.1484
     -1528.2034      -1190.8084
  -1409038.83545  -1044536.11645  24751622.4414   24751626.2274
       373.5634        291.0884
    201140.58745    140679.90944  25742940.3554   25742943.3674
      -543.2344       -423.3004
 98  6 26 19 49 45.0040000  0  8G 5G 6G30G10G26G17G23G22
  17338857.55644  13510787.88742  26037669.8244   26037674.8874
     -6475.7504      -5046.0394
   3778818.20447   2945054.32747  21789827.4884   21789828.4844
     -2280.5314      -1777.0374
  14605280.97046  11284083.86746  23851789.8714   23851791.6994
     -6030.2504      -4698.8964
  13861579.87446  10796829.60345  24232852.0824   24232854.2734
     -5807.1724      -4525.0694
    -53363.04845     -3862.71445  24738128.9344   24738131.8984
      -467.9844       -364.6634
   2020997.36447   1576871.03747  22842728.4344   22842730.9654
     -1533.9224      -1195.2644
  -1414599.08045  -1048868.73945  24750564.8404   24750568.2624
       367.9844        286.7414
    209350.24445    147077.08643  25744502.4804   25744506.5354
      -551.1724       -429.4854
 98  6 26 19 50  0.0040000  0  8G 5G 6G30G10G26G17G23G22
  17436010.57144  13586491.53043  26056157.0824   26056161.6054
     -6477.8594      -5047.6834
   3813094.25147   2971762.93747  21796350.2384   21796351.5044
     -2289.4844      -1784.0144
  14695785.17646  11354606.60246  23869012.1214   23869013.4694
     -6036.9064      -4704.0834
  13948745.09246  10864750.53945  24249439.2384   24249441.8754
     -5814.7504      -4530.9744
    -46286.51545      1651.50745  24739475.1764   24739478.3754
      -475.4844       -370.5074
   2044054.43947   1594837.60047  22847115.8554   22847118.3874
     -1540.2814      -1200.2194
  -1420071.50445  -1053132.91945  24749522.9024   24749526.2544
       361.7814        281.9074
    217681.95445    153569.32444  25746087.7464   25746090.8524
      -559.6414       -436.0844
 98  6 26 19 50 15.0050000  0  8G 5G 6G30G10G26G17G23G22
  17533199.84344  13662223.31642  26074652.0954   26074657.2514
     -6479.7974      -5049.1924
   3847504.82147   2998576.37447  21802898.2904   21802899.4624
     -2298.2344      -1790.8324
  14786394.85046  11425211.51946  23886254.7354   23886256.2824
     -6043.4844      -4709.2094
  14036027.39246  10932762.70445  24266048.6814   24266051.0484
     -5822.0624      -4536.6724
    -39099.88945      7251.50345  24740842.8534   24740845.9114
      -482.5474       -376.0114
   2067206.46047   1612878.15247  22851521.6184   22851524.1494
     -1546.3914      -1204.9804
  -1425453.79245  -1057326.86345  24748498.7984   24748502.4314
       355.9064        277.3304
    226139.67245    160159.80343  25747697.8604   25747700.4384
      -567.8914       -442.5124
 98  6 26 19 50 30.0050000  0  8G 5G 6G30G10G26G17G23G22
  17630409.40144  13737970.98442  26093150.0244   26093154.0914
     -6481.5474      -5050.5564
   3882041.36147   3025487.96147  21809470.2354   21809471.4194
     -2306.7344      -1797.4554
  14877093.67246  11495885.88946  23903514.2354   23903515.9934
     -6049.7344      -4714.0794
  14123409.88446  11000852.94645  24282677.1034   24282679.6574
     -5829.0314      -4542.1024
    -31812.08345     12930.32945  24742229.3214   24742233.0484
      -489.2194       -381.2094
   2090446.29647   1630987.11947  22855943.9854   22855946.4114
     -1552.3284      -1209.6064
  -1430751.25245  -1061454.69945  24747490.5954   24747494.6034
       350.3134        272.9714
    234717.93445    166844.14943  25749330.4934   25749334.6304
      -576.0474       -448.8684
 98  6 26 19 50 45.0050000  0  8G 5G 6G30G10G26G17G23G22
  17727646.45444  13813740.05442  26111654.4074   26111658.9784
     -6483.3914      -5051.9934
   3916706.69047   3052499.90947  21816067.0174   21816068.1424
     -2315.3284      -1804.1524
  14967885.34046  11566632.61446  23920791.3374   23920792.6144
     -6055.7814      -4718.7914
  14210899.03846  11069026.29945  24299325.6814   24299328.0364
     -5836.1724      -4547.6664
    -24422.38345     18688.55945  24743635.7984   24743638.4934
      -496.0624       -386.5424
   2113777.13147   1649167.00047  22860383.9074   22860386.3684
     -1558.4374      -1214.3674
  -1435962.01645  -1065515.00045  24746498.7744   24746502.9704
       344.4224        268.3814
    243423.35644    173627.61443  25750986.2514   25750990.4584
      -584.7034       -455.6134
 98  6 26 19 51  0.0050000  0  8G 5G 6G30G10G26G17G23G22
  17824909.78543  13889529.55942  26130162.1494   26130166.8604
     -6485.1414      -5053.3564
   3951500.70247   3079612.12947  21822688.0014   21822689.1264
     -2324.0314      -1810.9334
  15058766.51146  11637449.07846  23938085.4464   23938086.8994
     -6061.9064      -4723.5634
  14298492.88546  11137281.24245  24315994.3374   24315996.9854
     -5843.1414      -4553.0974
    -16931.16245     24525.93645  24745061.4704   24745063.0994
      -502.8444       -391.8264
   2137198.91947   1667417.75747  22864840.8844   22864843.3684
     -1564.5944      -1219.1644
  -1441084.47145  -1069506.47145  24745524.2354   24745528.0094
       338.4384        263.7184
    252258.58944    180512.25643  25752668.1184   25752672.7354
      -593.4534       -462.4314
 98  6 26 19 51 15.0050000  0  8G 5G 6G30G10G26G17G23G22
  17922198.35443  13965338.77242  26148676.5954   26148682.4424
     -6486.6094      -5054.5014
   3986425.30347   3106826.10547  21829333.8214   21829334.9234
     -2332.5004      -1817.5324
  15149742.10246  11708339.12146  23955397.6424   23955399.4354
     -6068.1094      -4728.3974
  14386191.17446  11205617.55645  24332682.4544   24332685.3374
     -5849.8594      -4558.3324
     -9338.82845     30442.05545  24746506.0714   24746509.1424
      -509.4064       -396.9404
   2160714.09147   1685741.27347  22869315.7284   22869318.2474
     -1570.7664      -1223.9734
  -1446115.31245  -1073426.54945  24744566.8764   24744570.8724
       332.3594        258.9814
    261227.12344    187500.72443  25754374.4154   25754378.7634
      -602.2814       -469.3104
 98  6 26 19 51 30.0050000  0  8G 5G 6G30G10G26G17G23G22
  18019510.29643  14041166.20341  26167194.2204   26167197.3494
     -6488.2814      -5055.8044
   4021475.90947   3134138.26447  21836003.6654   21836004.7434
     -2340.9374      -1824.1074
  15240811.18046  11779302.00846  23972727.6344   23972729.0404
     -6074.4064      -4733.3044
  14473988.72546  11274031.22645  24349390.0324   24349392.5634
     -5856.4844      -4563.4944
     -1646.93245     36435.76445  24747969.8134   24747973.0954
      -516.2034       -402.2364
   2184323.50047   1704138.22647  22873808.3374   22873810.7164
     -1577.1724      -1228.9654
  -1451054.29445  -1077275.06745  24743626.9704   24743630.2044
       326.1884        254.1724
    270329.29544    194593.36443  25756106.1104   25756110.7984
      -611.4224       -476.4334
 98  6 26 19 51 45.0050000  0  8G 5G 6G30G10G26G17G23G22
  18116844.98542  14117011.28341  26185716.5244   26185719.7004
     -6489.4694      -5056.7294
   4056651.32547   3161547.68247  21842697.3924   21842698.5524
     -2348.9374      -1830.3414
  15331972.83946  11850337.03746  23990075.0954   23990076.7354
     -6080.3284      -4737.9184
  14561883.85446  11342520.93145  24366115.7904   24366118.4384
     -5862.6724      -4568.3164
      6146.17445     42508.35245  24749452.4384   24749455.5674
      -522.6564       -407.2654
   2208026.70547   1722608.26147  22878318.9154   22878321.2244
     -1583.1254      -1233.6044
  -1455902.34345  -1081052.71345  24742704.5484   24742707.6654
       320.4224        249.6794
    279568.87344    201793.04843  25757864.8134   25757868.7044
      -620.3914       -483.4214
 98  6 26 19 52  0.0050000  0  8G 5G 6G30G10G26G17G23G22
  18214197.85443  14192870.61841  26204241.4234   26204249.3844
     -6490.8754      -5057.8254
   4091946.57847   3189050.47447  21849413.7984   21849414.9234
     -2357.0624      -1836.6724
  15423224.03646  11921441.84046  24007439.4624   24007441.0794
     -6086.5474      -4742.7644
  14649872.01046  11411083.11645  24382859.5014   24382862.1854
     -5869.0944      -4573.3204
     14033.84145     48654.62545  24750953.8294   24750956.3134
      -529.0624       -412.2564
   2231819.46047   1741148.08347  22882846.5564   22882848.7944
     -1589.2034      -1238.3404
  -1460664.54045  -1084763.47145  24741798.4384   24741801.8954
       314.5474        245.1014
    288943.60244    209098.04243  25759648.4704   25759652.3954
      -629.5944       -490.5934
 98  6 26 19 52 15.0050000  0  8G 5G 6G30G10G26G17G23G22
  18311571.92843  14268746.40241  26222771.3994   26222771.8804
     -6492.3754      -5058.9944
   4127363.38647   3216647.99247  21856153.4704   21856154.6774
     -2365.2504      -1843.0524
  15514568.94346  11992619.65946  24024821.6884   24024823.3174
     -6092.8594      -4747.6834
  14737956.12946  11479720.07345  24399621.2984   24399624.0754
     -5875.5164      -4578.3244
     22016.90545     54875.22345  24752472.6184   24752475.9234
      -535.4224       -417.2124
   2255703.16647   1759758.76647  22887391.5404   22887393.7554
     -1595.3444      -1243.1254
  -1465339.85545  -1088406.51045  24740908.7984   24740912.5954
       308.7664        240.5974
    298456.17744    216510.45443  25761459.3764   25761462.3294
      -638.8594       -497.8124
 98  6 26 19 52 30.0050000  0  8G 5G 6G30G10G26G17G23G22
  18408968.97642  14344640.25641  26241304.2824   26241308.0564
     -6493.7664      -5060.0774
   4162905.32547   3244343.01347  21862916.6734   21862917.6814
     -2373.6094      -1849.5664
  15606008.45846  12063871.20546  24042222.2824   24042223.7244
     -6098.9224      -4752.4074
  14826137.29546  11548432.66445  24416401.3604   24416403.9384
     -5881.8914      -4583.2914
     30096.65445     61171.15045  24754010.2284   24754013.4624
      -541.7974       -422.1794
   2279679.07747   1778441.30347  22891954.0484   22891956.4034
     -1601.4064      -1247.8494
  -1469927.34845  -1091981.13045  24740035.4464   24740039.0094
       303.0164        236.1164
    308110.09044    224033.02843  25763295.6964   25763300.9464
      -648.2814       -505.1544
 98  6 26 19 52 45.0050000  0  7G 6G30G10G26G17G23G22
   4198572.86547   3272135.90747  21869704.0094   21869705.0994
     -2382.1564      -1856.2264
  15697538.65946  12135193.41046  24059639.9854   24059641.8374
     -6105.2034      -4757.3014
  14914413.55246  11617219.34745  24433200.1574   24433202.3954
     -5888.4224      -4588.3814
     38274.14345     67543.24645  24755566.3684   24755570.1534
      -548.6414       -427.5124
   2303746.57847   1797195.21747  22896533.9314   22896536.1104
     -1607.6564      -1252.7194
  -1474429.08245  -1095488.92745  24739178.8454   24739182.7704
       297.1094        231.5144
    317906.08244    231666.28243  25765160.2204   25765163.9584
      -657.9534       -512.6914
 98  6 26 19 53  0.0050000  0  7G 6G30G10G26G17G23G22
   4234367.95447   3300028.18847  21876515.8294   21876516.9544
     -2390.5784      -1862.7884
  15789163.95946  12206589.72346  24077075.6494   24077077.5604
     -6111.5474      -4762.2444
  15002787.38246  11686082.05145  24450017.3064   24450020.1064
     -5894.7814      -4593.3364
     46554.18245     73995.25745  24757142.1814   24757146.1654
      -555.4224       -432.7964
   2327906.54147   1816021.16747  22901131.3604   22901133.6574
     -1613.6724      -1257.4074
  -1478843.34745  -1098928.56745  24738338.5404   24738341.5994
       291.4384        227.0944
    327844.00944    239410.13843  25767051.2044   25767054.0524
      -667.0784       -519.8014
 98  6 26 19 53 15.0050000  0  7G 6G30G10G26G17G23G22
   4270289.63847   3328019.10647  21883351.4154   21883352.6224
     -2398.9694      -1869.3264
  15880885.33646  12278060.89446  24094529.5094   24094531.1734
     -6118.0164      -4767.2854
  15091256.46246  11755018.99045  24466852.0794   24466855.2784
     -5901.1724      -4598.3164
     54936.60545     80527.04245  24758737.0634   24758739.8414
      -562.2504       -438.1174
   2352155.87547   1834916.76047  22905745.7044   22905747.9784
     -1619.6094      -1262.0334
  -1483173.73745  -1102302.85945  24737514.7674   24737518.5874
       285.9224        222.7964
    337916.27544    247258.65843  25768967.9234   25768971.9194
      -675.9694       -526.7294
 98  6 26 19 53 30.0050000  0  7G 6G30G10G26G17G23G22
   4306337.71147   3356108.51747  21890211.2514   21890212.2824
     -2407.3124      -1875.8284
  15972703.90546  12349607.79646  24112002.2284   24112004.2434
     -6124.2664      -4772.1554
  15179823.93246  11824032.57045  24483706.0014   24483708.4974
     -5907.6874      -4603.3934
     63424.38045     87140.91845  24760352.2434   24760354.8804
      -569.4064       -443.6934
   2376496.43747   1853883.44447  22910377.4934   22910379.8724
     -1625.6724      -1266.7574
  -1487419.50645  -1105611.20345  24736706.5484   24736709.5834
       280.2344        218.3644
    348123.58345    255212.44743  25770910.3214   25770913.8374
      -684.8754       -533.6694
 98  6 26 19 53 45.0050000  0  7G 6G30G10G26G17G23G22
   4342510.02347   3384294.73847  21897094.3684   21897095.4584
     -2415.6874      -1882.3544
  16064613.21846  12421225.41046  24129491.7984   24129493.7434
     -6130.2504      -4776.8184
  15268487.92146  11893121.38045  24500578.0634   24500581.2744
     -5914.1874      -4608.4584
     72018.91245     93837.98945  24761988.0634   24761991.2634
      -576.5004       -449.2214
   2400924.24547   1872918.10647  22915025.9384   22915028.3064
     -1631.2814      -1271.1284
  -1491580.64445  -1108853.59145  24735914.8134   24735918.3884
       274.5944        213.9694
    358462.83845    263269.02943  25772877.7284   25772883.2244
      -693.6724       -540.5244
 98  6 26 19 54  0.0050000  0  7G 6G30G10G26G17G23G22
   4378809.98147   3412580.41847  21904002.2744   21904003.4814
     -2424.2814      -1889.0504
  16156612.45246  12492913.09646  24146998.7744   24147000.4974
     -6136.2664      -4781.5064
  15357249.69046  11962286.37345  24517469.1424   24517472.2244
     -5920.7034      -4613.5354
     80717.71245    100616.30245  24763642.9624   24763646.1034
      -583.2814       -454.5054
   2425435.32447   1892017.65947  22919690.2824   22919692.8374
     -1636.8754      -1275.4874
  -1495656.24745  -1112029.35745  24735139.2434   24735142.3024
       268.8134        209.4644
    368933.77445    271428.22343  25774870.3134   25774873.1964
      -702.4064       -547.3304
 98  6 26 19 54 15.0050000  0  7G 6G30G10G26G17G23G22
   4415238.87247   3440966.57447  21910934.5174   21910935.5714
     -2433.0004      -1895.8444
  16248700.40946  12564669.91746  24164522.5484   24164524.4584
     -6142.2194      -4786.1444
  15446109.73146  12031527.94145  24534378.6574   24534381.5754
     -5927.4224      -4618.7704
     89518.11045    107473.77845  24765317.6654   24765320.7004
      -590.2974       -459.9724
   2450029.68547   1911182.10747  22924370.3604   22924372.7514
     -1642.4694      -1279.8464
  -1499644.49245  -1115137.02645  24734380.3764   24734383.7514
       262.8444        204.8134
    379534.41345    279688.48943  25776887.5174   25776890.0134
      -711.0624       -554.0754
 98  6 26 19 54 30.0050000  0  7G 6G30G10G26G17G23G22
   4451796.67647   3469453.17847  21917891.1494   21917892.2044
     -2441.5474      -1902.5044
  16340873.51646  12636493.09046  24182062.7204   24182064.9584
     -6147.6874      -4790.4064
  15535067.13846  12100845.38645  24551306.7204   24551309.6854
     -5933.7504      -4623.7014
     98422.69245    114412.44845  24767011.9854   24767014.8334
      -597.2194       -465.3654
   2474705.54147   1930410.05647  22929066.2434   22929068.8214
     -1647.8124      -1284.0104
  -1503545.29645  -1118176.56445  24733638.2044   24733641.7904
       257.0314        200.2844
    390262.89545    288048.33543  25778929.7204   25778934.4314
      -719.5784       -560.7104
 98  6 26 19 54 45.0050000  0  7G 6G30G10G26G17G23G22
   4488484.00347   3498040.70847  21924872.6574   21924873.9354
     -2449.8444      -1908.9694
  16433130.72446  12708381.79446  24199618.4784   24199620.4704
     -6153.0944      -4794.6194
  15624120.87046  12170237.87645  24568253.0874   24568256.3564
     -5939.8284      -4628.4374
    107434.51245    121434.69145  24768726.8214   24768729.9034
      -604.1094       -470.7354
   2499463.70947   1949702.14347  22933777.6184   22933780.0094
     -1653.0784      -1288.1134
  -1507356.09645  -1121145.97845  24732912.4784   24732915.9584
       251.2974        195.8164
    401120.66445    296508.98043  25780995.6104   25780999.8294
      -727.8444       -567.1514
 98  6 26 19 55  0.0050000  0  7G 6G30G10G26G17G23G22
   4525298.82047   3526727.58147  21931877.9384   21931879.1104
     -2458.6874      -1915.8604
  16525474.99146  12780338.34146  24217191.0564   24217193.0364
     -6159.2974      -4799.4524
  15713268.83346  12239703.81345  24585217.4384   24585220.3684
     -5946.4694      -4633.6124
    116552.52245    128539.66345  24770461.9544   24770465.3644
      -611.5004       -476.4944
   2524304.42047   1969058.55147  22938504.6184   22938507.0324
     -1658.9064      -1292.6544
  -1511075.65745  -1124044.28845  24732205.1184   24732208.2244
       244.7814        190.7394
    412104.50245    305067.82043  25783085.1494   25783089.0174
      -736.5004       -573.8964
 98  6 26 19 55 15.0050000  0  7G 6G30G10G26G17G23G22
   4562244.74747   3555516.61447  21938908.7824   21938909.9074
     -2467.4694      -1922.7034
  16617908.67546  12852364.54646  24234780.8134   24234782.7004
     -6165.2194      -4804.0674
  15802514.59846  12309245.94445  24602199.9154   24602203.2554
     -5952.9534      -4638.6654
    125779.29745    135729.37545  24772218.0174   24772221.3454
      -618.7504       -482.1434
   2549231.57447   1988482.31547  22943247.9234   22943250.2084
     -1664.7664      -1297.2204
  -1514700.32945  -1126868.67045  24731515.2514   24731518.3334
       238.4844        185.8324
    423215.64545    313725.84844  25785199.6814   25785203.3604
      -745.0784       -580.5804
 98  6 26 19 55 30.0050000  0  7G 6G30G10G26G17G23G22
   4599320.20747   3584406.57947  21945964.0714   21945965.1034
     -2476.1724      -1929.4854
  16710429.12746  12924458.38646  24252386.6884   24252388.4704
     -6171.1254      -4808.6694
  15891855.06846  12378861.87945  24619201.0404   24619204.1104
     -5959.3124      -4643.6204
    135110.67345    143000.60445  24773993.6344   24773996.8684
      -625.7344       -487.5854
   2574245.78847   2007973.91947  22948007.9544   22948010.3214
     -1670.6874      -1301.8344
  -1518231.70245  -1129620.34445  24730842.9234   24730845.9704
       232.1094        180.8644
    434456.78045    322485.21844  25787338.7984   25787341.7864
      -754.0164       -587.5454
 98  6 26 19 55 45.0050000  0  7G 6G30G10G26G17G23G22
   4636524.64247   3613397.05447  21953043.6494   21953044.8804
     -2484.6414      -1936.0844
  16803034.73546  12996618.56346  24270009.0794   24270010.7674
     -6176.4844      -4812.8454
  15981286.46446  12448548.66845  24636219.6034   24636222.4854
     -5965.0474      -4648.0884
    144544.65845    150351.79945  24775788.7514   24775792.2554
      -632.2504       -492.6624
   2599345.97547   2027532.51547  22952784.3924   22952786.8644
     -1676.1094      -1306.0594
  -1521669.60745  -1132299.17945  24730189.2594   24730192.7164
       226.0944        176.1774
    445829.24645    331346.86844  25789503.5634   25789507.7004
      -762.5164       -594.1684
 98  6 26 19 56  0.0050000  0  7G 6G30G10G26G17G23G22
   4673859.38147   3642489.06347  21960148.1734   21960149.2044
     -2493.4534      -1942.9504
  16895724.72446  13068844.50146  24287647.4704   24287649.5094
     -6182.2974      -4817.3744
  16070805.88146  12518304.04145  24653254.6424   24653257.5954
     -5971.0004      -4652.7274
    154077.02245    157779.63745  24777602.7984   24777606.0324
      -638.8594       -497.8124
   2624527.86047   2047154.77247  22957576.4784   22957578.8804
     -1681.6874      -1310.4064
  -1525015.96945  -1134906.69645  24729552.0954   24729555.1424
       220.0004        171.4294
    457332.01445    340310.10143  25791691.8374   25791695.7744
      -771.3594       -601.0594
 98  6 26 19 56 15.0050000  0  7G 6G30G10G26G17G23G22
   4711326.43547   3671684.17147  21967278.1424   21967279.1734
     -2502.2194      -1949.7814
  16988502.45546  13141138.80746  24305302.5244   24305304.3644
     -6188.1414      -4821.9284
  16160415.23146  12588129.51245  24670306.5794   24670309.7784
     -5977.0314      -4657.4274
    163710.70345    165286.42045  24779436.1424   24779439.2004
      -645.7344       -503.1704
   2649798.00247   2066845.80047  22962385.2744   22962387.7124
     -1687.7504      -1315.1304
  -1528270.37945  -1137442.56045  24728932.6654   24728935.2904
       213.8444        166.6314
    468969.04245    349377.94643  25793906.2824   25793909.0604
      -780.3594       -608.0724
 98  6 26 19 56 30.0050000  0  7G 6G30G10G26G17G23G22
   4748924.12647   3700981.07547  21974432.6884   21974433.7784
     -2510.8594      -1956.5144
  17081367.67046  13213501.28046  24322974.2594   24322976.0994
     -6193.9224      -4826.4334
  16250115.64846  12658025.90945  24687375.7594   24687378.5954
     -5983.0784      -4662.1394
    173448.45145    172874.32345  24781289.0714   24781292.3174
      -652.6564       -508.5634
   2675158.92947   2086607.56647  22967211.1184   22967213.4034
     -1693.7504      -1319.8054
  -1531433.22945  -1139907.06345  24728330.6184   24728333.7474
       207.8594        161.9684
    480741.56645    358551.35943  25796146.0014   25796149.7984
      -789.3754       -615.0974
 98  6 26 19 56 45.0050000  0  7G 6G30G10G26G17G23G22
   4786652.51147   3730379.81547  21981612.1884   21981613.1734
     -2519.5944      -1963.3204
  17174321.32046  13285932.66545  24340662.5714   24340664.6224
     -6199.9064      -4831.0964
  16339906.63346  12727992.90345  24704462.6424   24704465.4544
     -5989.0944      -4666.8264
    183289.00145    180542.31245  24783161.6184   24783164.4894
      -659.4374       -513.8474
   2700612.19947   2106441.29347  22972054.6734   22972057.2044
     -1700.0474      -1324.7124
  -1534505.30346  -1142300.85645  24727746.5404   24727749.1654
       201.7194        157.1834
    492651.75345    367832.02243  25798413.1424   25798417.2314
      -798.6254       -622.3054
 98  6 26 19 57  0.0050000  0  7G 6G30G10G26G17G23G22
   4824510.60647   3759879.63147  21988816.1964   21988817.3214
     -2528.3284      -1970.1264
  17267363.56746  13358433.08946  24358367.9314   24358369.8294
     -6205.7974      -4835.6864
  16429787.79046  12798030.16345  24721566.2904   24721569.2204
     -5995.1564      -4671.5504
    193228.91545    188287.71645  24785053.0404   24785056.2284
      -666.0474       -518.9984
   2726158.46347   2126347.47647  22976915.9234   22976918.2314
     -1706.2034      -1329.5094
  -1537487.35146  -1144624.47545  24727179.0714   24727181.4034
       195.7974        152.5694
    504699.15345    377219.65744  25800705.2354   25800709.5244
      -807.8284       -629.4764
 98  6 26 19 57 15.0050000  0  7G 6G30G10G26G17G23G22
   4862502.33147   3789483.57347  21996045.7984   21996046.8644
     -2537.1414      -1976.9934
  17360492.63046  13431001.15045  24376089.9934   24376092.1854
     -6211.2194      -4839.9114
  16519762.21846  12868140.08145  24738688.3534   24738691.1534
     -6001.3284      -4676.3604
    203269.67845    196111.71845  24786963.3994   24786966.4934
      -672.7034       -524.1844
   2751796.33647   2146325.04447  22981794.8294   22981797.2084
     -1712.0944      -1334.0994
  -1540380.59146  -1146878.91145  24726628.3534   24726631.0954
       190.0784        148.1134
    516886.97345    386716.67643  25803024.3294   25803026.8844
      -817.1094       -636.7094
 98  6 26 19 57 30.0050000  0  7G 6G30G10G26G17G23G22
   4900625.05247   3819189.59447  22003300.5484   22003301.5914
     -2545.6564      -1983.6284
  17453700.85346  13503630.91246  24393826.7284   24393828.7204
     -6216.3594      -4843.9164
  16609828.38946  12938321.50745  24755826.8994   24755829.9704
     -6007.2664      -4680.9864
    213411.21345    204014.22745  24788893.3924   24788895.7004
      -679.2504       -529.2864
   2777522.23247   2166371.20447  22986690.3764   22986692.7674
     -1717.7664      -1338.5194
  -1543187.56646  -1149066.13145  24726094.0174   24726096.6304
       184.3754        143.6694
    529214.38645    396322.46144  25805370.3214   25805373.5674
      -826.3124       -643.8804
 98  6 26 19 57 45.0050000  0  7G 6G30G10G26G17G23G22
   4938876.43147   3848995.86447  22010579.1964   22010580.1224
     -2554.5004      -1990.5194
  17546986.70746  13576321.15646  24411578.7284   24411580.6734
     -6221.7034      -4848.0804
  16699985.28246  13008573.61145  24772983.2514   24772985.7824
     -6013.6094      -4685.9294
    223652.35946    211994.38945  24790842.6104   24790845.9974
      -686.2664       -534.7524
   2803331.88747   2186482.62847  22991601.7674   22991604.3334
     -1723.5004      -1342.9874
  -1545906.57146  -1151184.79445  24725576.6034   24725579.5914
       178.1884        138.8474
    541680.09945    406036.03543  25807742.8454   25807746.3604
      -835.7034       -651.1974
 98  6 26 19 58  0.0050000  0  7G 6G30G10G26G17G23G22
   4977261.87747   3878906.59947  22017884.0324   22017885.0524
     -2563.5474      -1997.5694
  17640352.08946  13649073.37646  24429345.4464   24429347.8494
     -6227.0314      -4852.2324
  16790238.82146  13078901.04045  24790158.1264   24790160.4234
     -6020.2344      -4691.0924
    234001.07746    220058.33945  24792811.7744   24792814.8684
      -693.5784       -540.4504
   2829228.65347   2206661.93647  22996529.7744   22996532.2354
     -1729.3754      -1347.5654
  -1548532.19346  -1153230.68845  24725076.9464   24725080.7084
       171.8754        133.9294
    554285.68745    415858.61043  25810141.3764   25810145.2434
      -845.1254       -658.5394
 98  6 26 19 58 15.0050000  0  7G 6G30G10G26G17G23G22
   5015777.91747   3908919.10047  22025213.3844   22025214.4624
     -2571.9694      -2004.1314
  17733793.99446  13721885.21645  24447126.8214   24447128.5794
     -6231.8594      -4855.9944
  16880589.24346  13149303.95345  24807350.9934   24807353.8174
     -6026.4844      -4695.9624
    244457.37746    228206.13145  24794801.8374   24794804.5094
      -700.6564       -545.9664
   2855210.14747   2226907.26147  23001473.8684   23001476.2244
     -1734.9064      -1351.8754
  -1551067.44946  -1155206.17545  24724594.4384   24724596.6184
       166.1094        129.4364
    567030.66845    425789.78343  25812566.7594   25812571.3644
      -854.2504       -665.6494
 98  6 26 19 58 30.0050000  0  7G 6G30G10G26G17G23G22
   5054425.33047   3939033.97147  22032567.5954   22032568.7554
     -2581.0004      -2011.1694
  17827311.99346  13794756.34446  24464922.8214   24464924.7314
     -6237.1414      -4860.1104
  16971038.16846  13219783.61845  24824562.7984   24824565.3764
     -6033.3124      -4701.2824
    255024.47846    236440.25845  24796812.6264   24796814.8764
      -708.2344       -551.8714
   2881278.71547   2247220.43647  23006434.4934   23006436.9074
     -1740.7814      -1356.4534
  -1553510.20946  -1157109.58145  24724129.6964   24724132.9894
       159.6564        124.4074
    579916.91345    435831.00643  25815018.8764   25815021.4074
      -863.8124       -673.1014
 98  6 26 19 58 45.0050000  0  7G 6G30G10G26G17G23G22
   5093205.07147   3969251.95047  22039947.2824   22039948.3724
     -2589.6874      -2017.9384
  17920905.53946  13867686.35445  24482733.2204   24482735.2004
     -6242.0624      -4863.9454
  17061585.09245  13290339.64245  24841793.3454   24841795.6304
     -6039.6564      -4706.2264
    265702.76746    244761.03445  24798844.1034   24798846.8684
      -715.6094       -557.6184
   2907429.06347   2267597.33947  23011410.6964   23011412.8644
     -1746.0004      -1360.5194
  -1555860.22346  -1158940.72445  24723682.3534   24723685.2704
       153.5784        119.6714
    592942.07145    445980.52643  25817496.9384   25817499.6814
      -872.9694       -680.2354
 98  6 26 19 59  0.0050000  0  7G 6G30G10G26G17G23G22
   5132118.72147   3999574.27647  22047352.0174   22047353.2004
     -2598.7504      -2025.0004
  18014575.99346  13940676.29245  24500558.0484   24500559.9814
     -6247.2664      -4867.9994
  17152229.02845  13360971.26045  24859042.4704   24859046.1854
     -6046.1564      -4711.2914
    276495.29146    253170.82945  24800898.3534   24800901.1654
      -723.4224       -563.7054
   2933660.99447   2288037.81247  23016402.5954   23016404.9034
     -1751.4844      -1364.7934
  -1558115.11146  -1160697.74245  24723253.4314   24723256.2784
       147.1414        114.6554
    606108.26845    456239.92244  25820002.3134   25820006.1104
      -882.4844       -687.6504
 98  6 26 19 59 15.0050000  0  7G 6G30G10G26G17G23G22
   5171166.99547   4030001.50147  22054782.8604   22054783.7744
     -2607.6564      -2031.9404
  18108323.31146  14013726.12645  24518397.2674   24518399.0364
     -6252.3284      -4871.9444
  17242968.63745  13431677.41945  24876309.3684   24876312.5324
     -6052.3754      -4716.1364
    287405.13346    261672.03245  24802973.7594   24802976.7704
      -731.1874       -569.7564
   2959971.35247   2308539.39947  23021409.2204   23021411.5174
     -1756.5474      -1368.7384
  -1560275.50746  -1162381.13645  24722842.0014   24722845.1654
       140.9224        109.8094
    619415.63045    466609.30744  25822534.9854   25822539.0174
      -891.7664       -694.8824
 98  6 26 19 59 30.0060000  0  7G 6G30G10G26G17G23G22
   5210355.40247   4060537.92747  22062239.9674   22062241.0334
     -2617.0004      -2039.2214
  18202158.08846  14086844.10345  24536253.6624   24536255.5374
     -6258.0784      -4876.4254
  17333810.38645  13502463.18245  24893596.0924   24893599.6894
     -6058.9224      -4721.2384
    298437.41246    270268.63645  24805073.1864   24805075.8574
      -739.6414       -576.3434
   2986365.04047   2329105.91947  23026431.7644   23026434.0724
     -1762.3444      -1373.2554
  -1562335.60146  -1163986.36045  24722450.0534   24722453.2174
       133.7504        104.2214
    632865.85245    477090.02144  25825094.5064   25825098.1864
      -901.3914       -702.3824
 98  6 26 19 59 45.0060000  0  7G 6G30G10G26G17G23G22
   5249678.44547   4091179.26047  22069723.1624   22069724.1704
     -2626.1094      -2046.3194
  18296071.43646  14160023.29845  24554124.9044   24554126.9554
     -6263.7974      -4880.8814
  17424739.73045  13573317.19245  24910899.6074   24910902.7604
     -6065.0004      -4725.9744
    309590.36146    278959.27745  24807195.6394   24807198.4164
      -747.5164       -582.4804
   3012841.45547   2349736.89347  23031470.1234   23031472.5494
     -1767.8914      -1377.5774
  -1564290.25946  -1165509.42645  24722078.1314   24722081.4004
       126.8914         98.8764
    646456.97445    487680.52744  25827680.8504   25827683.2524
      -910.8124       -709.7244
 98  6 26 20  0  0.0060000  0  7G 6G30G10G26G17G23G22
   5289138.21747   4121927.13547  22077232.0214   22077233.1114
     -2635.3284      -2053.5024
  18390069.81646  14233268.75045  24572011.8894   24572013.9514
     -6269.4844      -4885.3124
  17515758.31045  13644240.75045  24928220.1314   24928223.8814
     -6070.9064      -4730.5764
    320861.82046    287742.25345  24809340.7714   24809343.0334
      -755.5004       -588.7014
   3039401.34047   2370432.91947  23036524.1864   23036526.4824
     -1773.5944      -1382.0214
  -1566144.22746  -1166954.02545  24721725.3264   24721728.0804
       120.1884         93.6534
    660188.57145    498380.49244  25830293.6074   25830296.1274
      -920.2344       -717.0664
 98  6 26 20  0 15.0060000  0  7G 6G30G10G26G17G23G22
   5328736.05647   4152782.59747  22084767.2644   22084768.3304
     -2644.5474      -2060.6864
  18484153.99846  14306581.07145  24589915.8654   24589917.9754
     -6275.2504      -4889.8054
  17606864.29345  13715232.40445  24945556.9044   24945560.8534
     -6076.7504      -4735.1304
    332252.31746    296617.99145  24811508.1394   24811511.2564
      -763.4374       -594.8864
   3066047.64247   2391196.28247  23041594.9284   23041597.2484
     -1779.4224      -1386.5624
  -1567898.29246  -1168320.81245  24721391.4204   24721394.8654
       113.4844         88.4294
    674063.22545    509191.94044  25832933.9044   25832937.1864
      -929.9694       -724.6514
 98  6 26 20  0 30.0060000  0  7G 6G30G10G26G17G23G22
   5368470.33847   4183744.37747  22092328.3574   22092329.3074
     -2653.5474      -2067.6994
  18578323.53746  14379959.89545  24607835.7644   24607837.8034
     -6280.7974      -4894.1274
  17698055.98445  13786290.84745  24962909.9824   24962913.4984
     -6082.2974      -4739.4524
    343759.61646    305584.75745  24813697.8034   24813700.9084
      -771.0004       -600.7794
   3092780.70147   2412027.24347  23046682.0764   23046684.3264
     -1785.1724      -1391.0434
  -1569552.79846  -1169610.00045  24721076.5294   24721079.1314
       106.9534         83.3404
    688082.28645    520115.89344  25835601.5374   25835606.1784
      -939.3594       -731.9684
 98  6 26 20  0 45.0060000  0  7G 6G30G10G26G17G23G22
   5408339.08147   4214810.93647  22099915.1004   22099916.2714
     -2662.5004      -2074.6754
  18672575.64646  14453403.05645  24625771.1394   24625772.8504
     -6286.3914      -4898.4864
  17789330.48545  13857413.80945  24980279.0294   24980282.5924
     -6087.7974      -4743.7384
    355379.08746    314638.92345  24815909.0064   24815911.8184
      -778.5004       -606.6234
   3119598.97647   2432924.60547  23051785.3034   23051787.8814
     -1790.7974      -1395.4264
  -1571109.30446  -1170822.82045  24720779.9434   24720782.1704
       100.4224         78.2514
    702240.48045    531148.25944  25838295.6004   25838300.1824
      -948.5784       -739.1524
 98  6 26 20  1  0.0060000  0  7G 6G30G10G26G17G23G22
   5448342.07647   4245982.10047  22107527.6394   22107528.6234
     -2671.3284      -2081.5544
  18766913.22646  14526912.82545  24643722.8574   24643724.8964
     -6292.0314      -4902.8814
  17880686.97945  13928600.67545  24997663.3264   24997666.9244
     -6093.2034      -4747.9504
    367111.15146    323780.80545  24818141.6234   24818144.5184
      -785.8754       -612.3704
   3146502.67247   2453888.53247  23056905.1234   23056907.5144
     -1796.5314      -1399.8944
  -1572568.05746  -1171959.47945  24720502.6394   24720505.7444
        93.9224         73.1864
    716539.23845    542290.17944  25841016.6464   25841020.3264
      -958.0474       -746.5304
 98  6 26 20  1 15.0060000  0  7G 6G30G10G26G17G23G22
   5488478.50847   4277257.24447  22115165.1864   22115166.2174
     -2680.1724      -2088.4464
  18861334.38846  14600487.71445  24661690.8734   24661692.7604
     -6297.4534      -4907.1064
  17972125.45345  13999851.40845  25015063.7014   25015067.3574
     -6098.6254      -4752.1754
    378953.62446    333008.75245  24820395.1784   24820397.9904
      -793.1724       -618.0564
   3173493.89947   2474920.66547  23062040.9514   23062043.4004
     -1802.3124      -1404.3994
  -1573928.04746  -1173019.17745  24720244.0294   24720246.5374
        87.3444         68.0604
    730980.18945    553542.88344  25843765.1074   25843768.9754
      -967.3914       -753.8114
 98  6 26 20  1 30.0060000  0  7G 6G30G10G26G17G23G22
   5528746.12347   4308634.60947  22122827.7014   22122828.9434
     -2688.8444      -2095.2034
  18955836.05346  14674125.34745  24679674.0064   24679675.9284
     -6302.7504      -4911.2344
  18063644.99045  14071165.31545  25032479.3964   25032483.0884
     -6103.9694      -4756.3394
    390906.10146    342322.39745  24822669.1704   24822671.7484
      -800.5004       -623.7664
   3200572.19547   2496020.64947  23067193.8734   23067196.4164
     -1808.1724      -1408.9654
  -1575187.32146  -1174000.38245  24720004.0144   24720006.8854
        80.5634         62.7764
    745560.45845    564904.14744  25846539.3814   25846542.8854
      -976.6414       -761.0194
 98  6 26 20  1 45.0060000  0  7G 6G30G10G26G17G23G22
   5569140.49147   4340110.74247  22130514.6234   22130515.6664
     -2697.1874      -2101.7054
  19050413.71346  14747822.18445  24697671.3654   24697673.2284
     -6307.7034      -4915.0934
  18155243.73345  14142540.94045  25049909.3964   25049912.9594
     -6109.3594      -4760.5404
    402965.94546    351719.71245  24824964.2254   24824966.1004
      -807.5944       -629.2944
   3227737.29047   2517188.26147  23072363.3894   23072365.8264
     -1813.9694      -1413.4824
  -1576348.32546  -1174905.01445  24719783.3964   24719786.4204
        74.1724         57.7964
    760277.85545    576372.27844  25849340.2014   25849343.7994
      -985.8444       -768.1904
 98  6 26 20  2  0.0060000  0  7G 6G30G10G26G17G23G22
   5609663.16647   4371686.85447  22138225.8894   22138227.0964
     -2705.6874      -2108.3284
  19145068.63646  14821579.23545  24715683.7954   24715686.1034
     -6312.7814      -4919.0504
  18246927.61845  14213982.91245  25067356.8184   25067359.9474
     -6115.0624      -4764.9844
    415134.20046    361201.49745  24827280.0614   24827282.9554
      -814.7504       -634.8704
   3254991.79047   2538425.54247  23077549.4434   23077551.8224
     -1819.8124      -1418.0364
  -1577413.44046  -1175734.94445  24719580.8264   24719583.8144
        67.9694         52.9634
    775137.49445    587951.24144  25852167.7014   25852172.2364
      -995.2504       -775.5194
 98  6 26 20  2 15.0060000  0  7G 6G30G10G26G17G23G22
   5650310.28047   4403359.92747  22145960.7174   22145961.9594
     -2714.0004      -2114.8054
  19239794.52946  14895391.58645  24733709.6864   24733712.1584
     -6317.3914      -4922.6424
  18338695.33945  14285490.20245  25084819.6704   25084822.6824
     -6120.7344      -4769.4034
    427406.68745    370764.50145  24829615.2714   24829618.7404
      -821.7034       -640.2884
   3282329.89947   2559727.96947  23082751.9044   23082754.1314
     -1825.2974      -1422.3094
  -1578387.67946  -1176494.05845  24719394.9514   24719397.7994
        61.8444         48.1904
    790134.88445    599637.54044  25855021.9594   25855026.8344
     -1004.5004       -782.7274
 98  6 26 20  2 30.0060000  0  7G 6G30G10G26G17G23G22
   5691082.52747   4435130.51347  22153719.3964   22153720.3464
     -2722.2344      -2121.2224
  19334589.73746  14969257.94745  24751748.9514   24751751.4714
     -6321.8754      -4926.1364
  18430550.60945  14357065.72145  25102299.3734   25102303.4044
     -6126.5474      -4773.9334
    439785.55946    380410.41245  24831970.9674   24831973.4634
      -828.7194       -645.7554
   3309750.44347   2581094.63647  23087969.8114   23087972.0254
     -1830.6414      -1426.4734
  -1579269.16746  -1177180.89945  24719227.4124   24719230.4004
        55.8134         43.4904
    805272.32645    611432.96844  25857902.5454   25857906.1784
     -1013.6874       -789.8864
 98  6 26 20  2 45.0060000  0  7G 6G30G10G26G17G23G22
   5731980.42347   4466999.00347  22161501.9904   22161502.9394
     -2730.8284      -2127.9184
  19429452.97146  15043177.31645  24769800.7484   24769802.6704
     -6326.5474      -4929.7774
  18522494.25545  14428710.09545  25119795.1004   25119799.0024
     -6132.5944      -4778.6444
    452271.68546    390139.88745  24834346.8504   24834349.1234
      -836.1414       -651.5384
   3337250.93347   2602523.59547  23093202.8344   23093205.1314
     -1836.0784      -1430.7104
  -1580059.71746  -1177796.86845  24719076.8894   24719080.1004
        49.5944         38.6444
    820546.88245    623335.23244  25860808.9044   25860813.0884
     -1022.9224       -797.0824
 98  6 26 20  3  0.0060000  0  7G 6G30G10G26G17G23G22
   5773005.33447   4498966.46947  22169308.8034   22169309.8224
     -2739.3754      -2134.5784
  19524384.79646  15117150.12945  24787865.7324   24787868.0884
     -6331.1564      -4933.3694
  18614525.24645  14500422.53545  25137308.0454   25137310.9984
     -6138.3444      -4783.1254
    464869.25946    399956.21445  24836743.9754   24836746.9514
      -843.7194       -657.4434
   3364829.28847   2624013.22947  23098451.0844   23098453.4634
     -1841.2194      -1434.7164
  -1580759.13146  -1178341.83145  24718943.9284   24718946.9984
        43.5164         33.9084
    835959.26345    635344.90244  25863742.0064   25863746.0844
     -1032.2344       -804.3384
 98  6 26 20  3 15.0060000  0  7G 6G30G10G26G17G23G22
   5814157.82247   4531033.34347  22177139.9594   22177141.1314
     -2747.6254      -2141.0064
  19619382.75246  15191174.47845  24805942.9514   24805945.3184
     -6335.1874      -4936.5104
  18706640.91345  14572200.96145  25154837.7094   25154841.6004
     -6143.7664      -4787.3504
    477579.48846    409860.32145  24839162.9754   24839166.0334
      -851.0164       -663.1294
   3392484.98547   2645563.13147  23103713.6624   23103716.0414
     -1846.2664      -1438.6494
  -1581368.84646  -1178816.89445  24718827.6234   24718831.0684
        37.7344         29.4034
    851511.35345    647463.43744  25866701.0144   25866703.6394
     -1041.3284       -811.4254
 98  6 26 20  3 30.0060000  0  7G 6G30G10G26G17G23G22
   5855440.93947   4563202.00647  22184995.7484   22184996.9784
     -2756.6094      -2148.0074
  19714446.05546  15265249.73245  24824033.0144   24824035.5804
     -6339.7814      -4940.0894
  18798842.71445  14644046.49645  25172382.5294   25172385.4474
     -6149.6254      -4791.9164
    490405.79146    419854.87445  24841603.5684   24841606.3224
      -859.0314       -669.3754
   3420222.87247   2667177.07547  23108992.1394   23108994.4944
     -1851.9844      -1443.1054
  -1581886.14146  -1179219.94945  24718729.1154   24718732.3384
        31.4384         24.4974
    867204.35245    659691.77244  25869687.8184   25869690.9004
     -1050.9534       -818.9254
 98  6 26 20  3 45.0060000  0  7G 6G30G10G26G17G23G22
   5896855.38247   4595473.00147  22192876.6864   22192877.8574
     -2765.4064      -2154.8624
  19809575.15346  15339376.26245  24842135.7094   24842138.2524
     -6344.1564      -4943.4984
  18891128.11145  14715957.17545  25189944.3424   25189947.5534
     -6155.2034      -4796.2624
    503347.91346    429939.66945  24844066.2254   24844069.1074
      -866.6414       -675.3044
   3448043.39347   2688855.41147  23114286.0844   23114288.3344
     -1857.4534      -1447.3664
  -1582315.14146  -1179554.19745  24718647.5144   24718650.7134
        25.7814         20.0894
    883038.73945    672030.27544  25872700.6234   25872703.5644
     -1060.3594       -826.2544
 98  6 26 20  4  0.0060000  0  7G 6G30G10G26G17G23G22
   5938403.06747   4627847.82147  22200783.0534   22200784.1664
     -2774.4064      -2161.8754
  19904770.01146  15413554.04245  24860250.6314   24860252.7994
     -6348.5474      -4946.9204
  18983499.04945  14787934.51945  25207521.3504   25207525.2054
     -6160.9534      -4800.7434
    516404.38346    440113.58545  24846550.7254   24846553.2564
      -874.2974       -681.2704
   3475944.93047   2710596.87647  23119595.7174   23119597.8854
     -1862.8124      -1451.5424
  -1582660.41246  -1179823.20645  24718581.5614   24718584.5024
        20.1564         15.7064
    899014.06345    684478.58943  25875740.8504   25875744.0724
     -1069.7504       -833.5714
 98  6 26 20  4 15.0060000  0  7G 6G30G10G26G17G23G22
   5980089.64947   4660330.87247  22208715.7714   22208716.7444
     -2783.8594      -2169.2414
  20000032.29346  15487784.35545  24878378.5924   24878380.9244
     -6353.1414      -4950.4994
  19075955.83645  14859978.75645  25225115.8574   25225118.6704
     -6166.6564      -4805.1874
    529578.04545    450378.81345  24849057.6704   24849060.7524
      -882.2814       -687.4924
   3503928.32247   2732402.12147  23124920.6234   23124923.0024
     -1868.3754      -1455.8774
  -1582918.61846  -1180024.37445  24718532.7484   24718535.2324
        14.1884         11.0554
    915131.72045    697037.81044  25878807.8814   25878810.7874
     -1079.2974       -841.0114
 98  6 26 20  4 30.0060000  0  7G 6G30G10G26G17G23G22
   6021916.74347   4692923.41147  22216675.2324   22216676.2284
     -2792.9534      -2176.3274
  20095363.08846  15562068.04845  24896519.2484   24896521.4394
     -6357.5624      -4953.9454
  19168496.03445  14932087.97045  25242725.6544   25242729.1584
     -6171.8594      -4809.2414
    542872.98645    460738.52945  24851587.6464   24851590.4474
      -890.2814       -693.7264
   3531995.73447   2754272.83647  23130261.7094   23130264.0534
     -1873.8914      -1460.1754
  -1583087.20046  -1180155.69645  24718500.8574   24718503.8574
         8.3914          6.5384
    931391.86245    709708.04544  25881901.1234   25881904.1114
     -1088.5944       -848.2554
 98  6 26 20  4 45.0060000  0  7G 6G30G10G26G17G23G22
   6063880.57247   4725622.50147  22224660.6314   22224661.5684
     -2802.2814      -2183.5964
  20190763.94346  15636406.33845  24914673.8894   24914675.9984
     -6362.5784      -4957.8534
  19261114.25145  15004257.99145  25260350.3734   25260353.1744
     -6177.2194      -4813.4174
    556289.46545    471192.97545  24854140.4824   24854142.5924
      -898.5624       -700.1794
   3560149.30847   2776210.69747  23135619.2094   23135621.3894
     -1879.9224      -1464.8744
  -1583166.42546  -1180217.40245  24718485.6544   24718488.5254
         2.1414          1.6684
    947791.24045    722486.80944  25885022.7644   25885026.5254
     -1097.9694       -855.5604
 98  6 26 20  5  0.0060000  0  7G 6G30G10G26G17G23G22
   6105982.90747   4758429.51847  22232672.3814   22232673.3774
     -2811.3754      -2190.6824
  20286238.89946  15710802.37245  24932841.9594   24932843.9754
     -6367.4374      -4961.6404
  19353809.40345  15076487.96845  25277989.8654   25277993.1234
     -6182.0784      -4817.2044
    569828.05445    481742.55545  24856716.4754   24856719.5214
      -906.5314       -706.3884
   3588391.89947   2798217.92147  23140993.5844   23140995.8114
     -1885.7974      -1469.4524
  -1583151.39946  -1180205.66045  24718488.4754   24718491.0064
        -4.1564         -3.2394
    964329.79945    735374.01944  25888170.3034   25888173.0924
     -1107.1564       -862.7194
 98  6 26 20  5 15.0060000  0  7G 6G30G10G26G17G23G22
   6148221.94447   4791343.05647  22240710.1864   22240711.2524
     -2820.6094      -2197.8774
  20381786.68946  15785255.15245  24951023.9284   24951026.4594
     -6372.3124      -4965.4384
  19446575.83545  15148773.48245  25295642.4674   25295645.2564
     -6186.8914      -4820.9544
    583484.68245    492384.13445  24859315.2794   24859317.9044
      -914.4374       -712.5494
   3616724.97847   2820295.65047  23146385.1004   23146387.2324
     -1892.0784      -1474.3474
  -1583041.10446  -1180119.68145  24718509.3034   24718512.0104
       -10.6564         -8.3044
    981007.12745    748369.33844  25891343.8114   25891347.6194
     -1116.5314       -870.0244
 98  6 26 20  5 30.0060000  0  7G 6G30G10G26G17G23G22
   6190599.56947   4824364.57947  22248774.4674   22248775.5804
     -2829.8594      -2205.0854
  20477406.72646  15859764.23845  24969219.8654   24969222.2794
     -6377.1254      -4969.1884
  19539414.87945  15221115.57245  25313309.2644   25313311.1274
     -6191.7194      -4824.7164
    597259.41445    503117.72145  24861936.7564   24861940.4944
      -922.2814       -718.6614
   3645153.18647   2842447.50447  23151794.9824   23151797.3854
     -1898.4064      -1479.2784
  -1582832.73946  -1179957.29845  24718549.2484   24718551.8734
       -17.2664        -13.4544
    997823.52545    761473.03544  25894543.8654   25894547.8734
     -1125.7344       -877.1964
 98  6 26 20  5 45.0060000  0  7G 6G30G10G26G17G23G22
   6233114.88247   4857493.39547  22256864.8504   22256866.2094
     -2838.9534      -2212.1714
  20573097.33146  15934328.30045  24987429.2794   24987431.5644
     -6381.7814      -4972.8174
  19632324.07645  15293512.33745  25330989.3734   25330992.1864
     -6196.3594      -4828.3324
    611150.53945    513942.01845  24864580.1624   24864583.3854
      -929.9844       -724.6634
   3673672.69847   2864670.50547  23157221.8264   23157223.9714
     -1904.3284      -1483.8924
  -1582526.67946  -1179718.76945  24718607.3964   24718610.6544
       -23.6874        -18.4584
   1014776.07445    774682.80944  25897769.6234   25897771.5684
     -1134.7344       -884.2094
 98  6 26 20  6  0.0060000  0  7G 6G30G10G26G17G23G22
   6275765.57547   4890727.70147  22264980.8184   22264982.0964
     -2847.8594      -2219.1114
  20668858.34046  16008947.23345  25005652.1864   25005654.5534
     -6386.4064      -4976.4204
  19725303.76345  15365964.01645  25348683.2404   25348686.1004
     -6200.9694      -4831.9244
    625156.16445    524855.53445  24867245.4754   24867248.2404
      -937.5314       -730.5444
   3702279.03147   2886961.16347  23162665.4284   23162667.6194
     -1909.8444      -1488.1904
  -1582123.32546  -1179404.43545  24718683.7484   24718686.6894
       -30.2194        -23.5474
   1031862.36045    787996.81644  25901021.1934   25901024.3114
     -1143.4694       -891.0154
 98  6 26 20  6 15.0060000  0  7G 6G30G10G26G17G23G22
   6318549.81547   4924066.07147  22273122.6004   22273123.8654
     -2856.7344      -2226.0274
  20764688.13846  16083619.76145  25023888.0924   25023890.3424
     -6390.9374      -4979.9514
  19818351.49245  15438468.71545  25366389.1154   25366391.5764
     -6205.3594      -4835.3454
    639275.55245    535857.68645  24869932.0144   24869935.0614
      -945.1254       -736.4614
   3730967.18847   2909315.57347  23168124.7484   23168127.1034
     -1915.3444      -1492.4764
  -1581619.67646  -1179011.94845  24718779.6704   24718782.3424
       -37.0004        -28.8314
   1049079.66245    801412.91144  25904297.5684   25904301.8464
     -1152.2664       -897.8694
 98  6 26 20  6 30.0060000  0  7G 6G30G10G26G17G23G22
   6361467.68547   4957508.57047  22281289.7094   22281290.6584
     -2865.7194      -2233.0284
  20860588.09746  16158346.96745  25042137.2014   25042139.6394
     -6395.8914      -4983.8114
  19911465.01845  15511024.69945  25384108.4674   25384111.6894
     -6209.9534      -4838.9254
    653510.59846    546949.96445  24872641.0064   24872644.2644
      -953.0314       -742.6224
   3759740.73547   2931736.52447  23173600.2794   23173602.7644
     -1921.2504      -1497.0784
  -1581012.14146  -1178538.50945  24718895.3184   24718897.7444
       -44.1564        -34.4074
   1066431.84645    814934.08244  25907599.1624   25907602.3614
     -1161.5004       -905.0654
 98  6 26 20  6 45.0060000  0  7G 6G30G10G26G17G23G22
   6404514.47447   4991051.52647  22289481.1004   22289481.9904
     -2874.0004      -2239.4814
  20956557.65946  16233128.39945  25060399.6314   25060402.0214
     -6400.1254      -4987.1104
  20004643.36245  15583631.17345  25401839.2644   25401842.7684
     -6213.9224      -4842.0174
    667859.13946    558130.68245  24875371.4824   24875374.0494
      -960.2034       -748.2104
   3788596.24347   2954221.34447  23179091.3264   23179093.5884
     -1926.2344      -1500.9624
  -1580300.11946  -1177983.65545  24719030.8264   24719033.8384
       -50.9064        -39.6674
   1083918.63245    828560.16144  25910926.8734   25910929.4984
     -1170.2344       -911.8714
 98  6 26 20  7  0.0060000  0  7G 6G30G10G26G17G23G22
   6447689.07047   5024694.06447  22297696.9984   22297697.8304
     -2882.5624      -2246.1534
  21052590.27046  16307958.97845  25078673.5684   25078675.7484
     -6404.0784      -4990.1914
  20097884.03745  15656286.19345  25419582.6784   25419586.1584
     -6218.1414      -4845.3044
    682316.67446    569396.32745  24878122.5294   24878125.5764
      -967.4064       -753.8234
   3817527.86247   2976765.46747  23184596.6464   23184599.1314
     -1931.1874      -1504.8214
  -1579484.87346  -1177348.37145  24719185.8734   24719188.3464
       -57.6724        -44.9394
   1101540.30445    842291.35944  25914280.4124   25914282.2054
     -1179.3284       -918.9574
 98  6 26 20  7 15.0060000  0  7G 6G30G10G26G17G23G22
   6490994.84447   5058438.82647  22305937.6314   22305938.6154
     -2891.4374      -2253.0684
  21148682.62946  16382836.09245  25096959.5684   25096961.9824
     -6408.1414      -4993.3564
  20191191.00945  15728992.96345  25437338.3734   25437341.6544
     -6222.7194      -4848.8724
    696884.16346    580747.65645  24880894.7874   24880897.7174
      -974.8754       -759.6434
   3846535.20247   2999368.60047  23190116.5294   23190119.0724
     -1936.3914      -1508.8764
  -1578567.60546  -1176633.57745  24719360.5534   24719363.4244
       -64.4534        -50.2234
   1119303.24045    856132.61144  25917660.1624   25917663.1744
     -1188.9534       -926.4574
 98  6 26 20  7 30.0060000  0  7G 6G30G10G26G17G23G22
   6534431.97247   5092285.93747  22314203.4984   22314204.5184
     -2900.2504      -2259.9354
  21244833.49146  16457758.80245  25115256.8034   25115259.2874
     -6412.0944      -4996.4374
  20284567.36245  15801753.71445  25455107.3264   25455110.7954
     -6227.6414      -4852.7074
    711563.86646    592186.41945  24883688.2404   24883690.5964
      -982.5314       -765.6094
   3875619.71447   3022031.86547  23195651.2174   23195653.7484
     -1941.6094      -1512.9424
  -1577552.20846  -1175842.33245  24719553.9594   24719556.6434
       -71.0624        -55.3734
   1137210.43445    870086.28044  25921067.9364   25921071.5104
     -1198.7664       -934.1034
 98  6 26 20  7 45.0060000  0  7G 6G30G10G26G17G23G22
   6577998.42247   5126233.81747  22322493.8894   22322495.1314
     -2908.9534      -2266.7174
  21341043.98246  16532727.97245  25133565.0214   25133567.5764
     -6416.3594      -4999.7614
  20378018.39445  15874572.66945  25472890.6394   25472894.2484
     -6232.8594      -4856.7744
    726358.19346    603714.49645  24886503.3894   24886505.5214
      -990.3594       -771.7094
   3904778.54647   3044753.03747  23201199.8814   23201202.4004
     -1946.5784      -1516.8144
  -1576439.02746  -1174974.88345  24719765.3734   24719768.1394
       -77.7344        -60.5724
   1155263.70645    884153.75844  25924503.5764   25924506.3894
     -1208.7194       -941.8594
 98  6 26 20  8  0.0060000  0  7G 6G30G10G26G17G23G22
   6621698.14747   5160285.54747  22330809.7014   22330811.0844
     -2917.6254      -2273.4744
  21437322.18846  16607749.90045  25151886.1074   25151888.9784
     -6420.7034      -5003.1454
  20471551.89145  15947455.90245  25490689.3964   25490693.0414
     -6238.2344      -4860.9624
    741272.79546    615336.30445  24889341.3504   24889343.7994
      -998.1724       -777.7964
   3934015.56947   3067535.13847  23206763.5764   23206766.1074
     -1951.6564      -1520.7714
  -1575223.10846  -1174027.38945  24719996.8424   24719999.7954
       -84.3284        -65.7104
   1173469.86545    898340.41444  25927967.8114   25927970.8464
     -1218.7344       -949.6634
 98  6 26 20  8 15.0070000  0  7G 6G30G10G26G17G23G22
   6665529.79447   5194440.08147  22339150.6284   22339151.8004
     -2926.2034      -2280.1584
  21533670.86146  16682826.74845  25170220.5194   25170223.0384
     -6424.8284      -5006.3604
  20565170.27445  16020405.27945  25508504.4564   25508508.5814
     -6243.3444      -4864.9434
    756304.08046    627049.01845  24892201.7694   24892203.7264
     -1005.8754       -783.7994
   3963329.63847   3090377.27747  23212342.0974   23212344.4054
     -1956.6564      -1524.6674
  -1573909.72646  -1173003.93145  24720246.2764   24720249.6284
       -90.7344        -70.7024
   1191825.73945    912643.70644  25931460.9254   25931463.6794
     -1228.5624       -957.3214
 98  6 26 20  8 30.0070000  0  7G 6G30G10G26G17G23G22
   6709483.52647   5228689.74547  22347514.8394   22347515.9764
     -2934.1874      -2286.3804
  21630069.68946  16757942.67145  25188564.7064   25188567.3784
     -6428.2974      -5009.0624
  20658855.12545  16093406.43245  25526331.7294   25526335.5614
     -6247.8914      -4868.4864
    771445.89746    638847.87345  24895083.1904   24895085.1834
     -1013.0164       -789.3634
   3992715.17847   3113275.10147  23217933.6674   23217935.8944
     -1961.3914      -1528.3564
  -1572505.92446  -1171910.03345  24720513.8544   24720517.1834
       -96.3444        -75.0734
   1210326.00745    927059.52344  25934981.2844   25934984.0974
     -1238.0784       -964.7364
 98  6 26 20  8 45.0070000  0  7G 6G30G10G26G17G23G22
   6753562.18147   5263036.74847  22355902.6444   22355903.7924
     -2943.0784      -2293.3084
  21726526.54746  16833103.82545  25206919.9724   25206922.3974
     -6432.6254      -5012.4354
  20752615.54945  16166466.47245  25544173.9724   25544177.7454
     -6253.5784      -4872.9184
    786701.84446    650735.65645  24897986.0264   24897988.5224
     -1021.2504       -795.7794
   4022177.71647   3136232.92947  23223540.2064   23223542.3274
     -1967.0004      -1532.7274
  -1571011.95246  -1170745.86745  24720798.2294   24720801.3944
      -102.9534        -80.2234
   1228975.40445    941591.54244  25938530.2064   25938533.4524
     -1248.5784       -972.9184
 98  6 26 20  9  0.0070000  0  7G 6G30G10G26G17G23G22
   6797777.60047   5297490.32647  22364316.6834   22364317.7374
     -2952.3124      -2300.5034
  21823047.07346  16908314.58045  25225287.4484   25225290.2964
     -6436.7974      -5015.6864
  20846462.54745  16239593.97745  25562032.4014   25562035.7064
     -6259.3444      -4877.4114
    802084.73146    662722.36945  24900913.4254   24900916.4364
     -1029.7504       -802.4034
   4051724.52147   3159256.41947  23229162.7764   23229164.9914
     -1972.6094      -1537.0984
  -1569418.73146  -1169504.36245  24721101.1284   24721103.8354
      -109.4064        -85.2524
   1247782.21245    956246.21144  25942108.7534   25942112.2574
     -1258.9374       -980.9904
 98  6 26 20  9 15.0070000  0  7G 6G30G10G26G17G23G22
   6842128.42447   5332049.41047  22372756.1514   22372757.4054
     -2961.0784      -2307.3344
  21919628.90946  16983573.11645  25243666.1594   25243669.1944
     -6440.8124      -5018.8154
  20940394.54645  16312787.72745  25579906.9724   25579909.7144
     -6264.8754      -4881.7214
    817592.45746    674806.34545  24903864.3784   24903867.5074
     -1037.8594       -808.7224
   4081354.77747   3182344.93947  23234801.1904   23234803.3354
     -1978.0164      -1541.3114
  -1567732.95446  -1168190.74345  24721422.2844   24721424.8744
      -115.3444        -89.8784
   1266740.21145    971018.69744  25945716.1044   25945719.4094
     -1268.6724       -988.5754
 98  6 26 20  9 30.0070000  0  7G 6G30G10G26G17G23G22
   6886611.99047   5366711.92847  22381221.0504   22381222.1404
     -2969.7664      -2314.1034
  22016274.32146  17058881.18045  25262057.2224   25262060.0344
     -6445.0004      -5022.0784
  21034410.10245  16386046.58645  25597797.4874   25597800.4994
     -6270.2344      -4885.8974
    833224.55646    686987.23945  24906838.7844   24906841.1514
     -1046.1724       -815.1994
   4111066.79747   3205497.16547  23240455.4014   23240457.5464
     -1983.3444      -1545.4634
  -1565955.78946  -1166805.90145  24721760.5264   24721763.2694
      -121.3914        -94.5904
   1285842.85445    985903.89844  25949351.3864   25949355.4524
     -1278.0474       -995.8814
 98  6 26 20  9 45.0070000  0  7G 6G30G10G26G17G23G22
   6931225.36347   5401475.59347  22389710.8314   22389711.8744
     -2978.6724      -2321.0434
  22112982.69746  17134238.32345  25280460.3084   25280463.2844
     -6449.3914      -5025.4994
  21128504.71045  16459367.04445  25615703.6904   25615707.4874
     -6275.6254      -4890.0974
    848981.39046    699265.31845  24909837.5194   24909839.8864
     -1054.7034       -821.8474
   4140857.70047   3228710.86347  23246124.2144   23246126.6864
     -1988.7034      -1549.6394
  -1564085.70046  -1165348.66245  24722116.2374   24722119.3084
      -127.9844        -99.7284
   1305084.91745   1000897.74044  25953013.2844   25953016.6834
     -1287.4374      -1003.1984
 98  6 26 20 10  0.0070000  0  7G 6G30G10G26G17G23G22
   6975974.02747   5436344.68447  22398226.2534   22398227.3194
     -2987.7344      -2328.1054
  22209756.46346  17209646.41845  25298876.0504   25298878.8744
     -6453.5784      -5028.7624
  21222677.89445  16532748.73645  25633623.9334   25633627.4254
     -6280.5944      -4893.9694
    864865.61646    711642.67745  24912860.0424   24912862.4564
     -1063.0164       -828.3244
   4170727.73347   3251986.22047  23251808.3944   23251810.8664
     -1993.8444      -1553.6444
  -1562116.09246  -1163813.87245  24722490.9484   24722493.4214
      -134.4844       -104.7934
   1324465.41045   1015999.44544  25956700.9724   25956704.1474
     -1296.4844      -1010.2484
 98  6 26 20 10 15.0070000  0  7G 6G30G10G26G17G23G22
   7020863.15547   5471323.22547  22406768.3394   22406769.0304
     -2997.1564      -2335.4464
  22306594.49946  17285104.58245  25317303.5654   25317305.9214
     -6457.8754      -5032.1104
  21316927.73945  16606190.15045  25651559.2294   25651562.6404
     -6285.7344      -4897.9754
    880878.10146    724119.96645  24915907.3394   24915909.8824
     -1071.7664       -835.1424
   4200679.28547   3275325.09947  23257508.0114   23257510.2844
     -1999.4064      -1557.9794
  -1560045.22646  -1162200.18845  24722884.8864   24722887.8864
      -141.3444       -110.1384
   1343985.81145   1031210.15544  25960415.6984   25960418.9334
     -1305.9694      -1017.6384
 98  6 26 20 10 30.0070000  0  7G 6G30G10G26G17G23G22
   7065890.56247   5506409.51747  22415336.8784   22415337.6864
     -3006.3914      -2342.6424
  22403495.06646  17360611.48045  25335742.8624   25335744.8784
     -6462.1094      -5035.4104
  21411251.89445  16679689.45945  25669508.5194   25669512.5154
     -6290.7344      -4901.8714
    897021.88746    736699.57645  24918979.2294   24918981.7724
     -1080.6564       -842.0704
   4230711.88647   3298727.13147  23263222.9174   23263225.2264
     -2004.8594      -1562.2284
  -1557872.81146  -1160507.36345  24723298.2614   24723300.9444
      -148.2504       -115.5194
   1363647.17545   1046530.73744  25964157.6594   25964160.3084
     -1315.5164      -1025.0774
 98  6 26 20 10 45.0070000  0  7G 6G30G10G26G17G23G22
   7111051.35947   5541599.75347  22423930.8624   22423931.7414
     -3015.0314      -2349.3754
  22500454.61246  17436164.33645  25354193.8784   25354196.3514
     -6465.8124      -5038.2954
  21505645.92845  16753243.24245  25687470.9954   25687473.8544
     -6295.0944      -4905.2684
    913296.02946    749380.75845  24922076.2224   24922078.7654
     -1089.2194       -848.7424
   4260821.87147   3322189.46047  23268952.6514   23268954.8664
     -2009.7504      -1566.0394
  -1555600.67946  -1158736.84445  24723730.5264   24723733.3744
      -154.7194       -120.5604
   1383448.70145   1061960.51445  25967925.3084   25967928.3544
     -1324.6094      -1032.1634
 98  6 26 20 11  0.0070000  0  7G 6G30G10G26G17G23G22
   7156347.06047   5576895.10547  22432550.2224   22432551.0654
     -3024.2194      -2356.5344
  22597474.31846  17511764.05745  25372656.1904   25372658.6404
     -6469.9224      -5041.4984
  21600110.09845  16826851.67645  25705447.1204   25705451.3154
     -6299.8754      -4908.9944
    929703.65946    762165.96245  24925198.0974   24925200.9094
     -1098.2504       -855.7794
   4291008.54547   3345711.55147  23274697.1984   23274699.4364
     -2014.9064      -1570.0574
  -1553225.77146  -1156886.23145  24724182.7614   24724185.8784
      -161.7034       -126.0024
   1403389.30645   1077498.67345  25971719.8004   25971723.0694
     -1333.8594      -1039.3714
 98  6 26 20 11 15.0070000  0  7G 6G30G10G26G17G23G22
   7201779.13647   5612296.72347  22441195.4014   22441196.5384
     -3033.1724      -2363.5114
  22694555.60446  17587411.78245  25391130.1754   25391133.0814
     -6474.0944      -5044.7484
  21694643.77845  16900514.26145  25723435.9564   25723438.9094
     -6304.3914      -4912.5124
    946243.27546    775053.99945  24928345.8704   24928347.7104
     -1106.8594       -862.4884
   4321272.18847   3369293.61947  23280456.1044   23280458.2964
     -2020.1094      -1574.1114
  -1550747.82946  -1154955.33845  24724653.6444   24724656.4094
      -168.5314       -131.3234
   1423465.71745   1093142.65345  25975540.6594   25975543.6244
     -1342.8594      -1046.3844
 98  6 26 20 11 30.0070000  0  7G 6G30G10G26G17G23G22
   7247345.98647   5647803.35947  22449866.6984   22449867.9294
     -3042.2504      -2370.5844
  22791700.06146  17663108.70445  25409615.7844   25409618.1404
     -6478.2814      -5048.0114
  21789245.03145  16974229.51245  25741438.0894   25741441.7454
     -6308.9064      -4916.0314
    962914.25146    788044.40245  24931518.3544   24931520.4764
     -1115.7814       -869.4404
   4351615.70447   3392937.92947  23286230.1904   23286232.3944
     -2025.5004      -1578.3124
  -1548164.56946  -1152942.37945  24725145.8944   24725148.3904
      -175.7504       -136.9484
   1443681.33145   1108895.10245  25979387.3944   25979390.1124
     -1352.3914      -1053.8114
 98  6 26 20 11 45.0070000  0  7G 6G30G10G26G17G23G22
   7293045.84647   5683413.63847  22458563.1364   22458564.3084
     -3051.1724      -2377.5374
  22888902.16746  17738850.56345  25428113.1364   25428115.3154
     -6482.0784      -5050.9704
  21883909.48745  17047993.98245  25759452.2694   25759455.8904
     -6313.1564      -4919.3434
    979714.70046    801135.69845  24934715.3784   24934718.1674
     -1124.3914       -876.1494
   4382036.02847   3416642.08147  23292019.0424   23292021.2574
     -2030.6724      -1582.3424
  -1545477.46846  -1150848.50745  24725656.9564   24725659.6284
      -182.6254       -142.3054
   1464038.30945   1124757.68845  25983260.9644   25983264.0814
     -1362.0474      -1061.3354
 98  6 26 20 12  0.0070000  0  7G 6G30G10G26G17G23G22
   7338879.72947   5719128.35247  22467285.0034   22467286.0224
     -3060.1414      -2384.5254
  22986159.31446  17814635.31345  25446620.6754   25446623.5464
     -6485.6414      -5053.7464
  21978638.48745  17121808.76845  25777478.1754   25777481.7144
     -6317.4844      -4922.7154
    996642.95746    814326.57945  24937936.3784   24937938.7224
     -1132.8444       -882.7354
   4412534.33347   3440407.00347  23297822.5504   23297824.7064
     -2035.9064      -1586.4204
  -1542687.90646  -1148674.79045  24726187.9874   24726190.8824
      -189.3914       -147.5774
   1484540.26545   1140733.26145  25987162.2534   25987165.1124
     -1371.6724      -1068.8354
 98  6 26 20 12 15.0070000  0  7G 6G30G10G26G17G23G22
   7384847.58947   5754947.46547  22476032.4724   22476033.5384
     -3068.6874      -2391.1854
  23083469.56446  17890461.43445  25465138.0654   25465140.9254
     -6488.9224      -5056.3034
  22073433.58645  17195675.05645  25795517.3154   25795520.4094
     -6321.7034      -4926.0024
   1013697.63346    827615.97145  24941181.9874   24941184.3084
     -1141.0164       -889.1034
   4443112.80547   3464234.39247  23303641.4564   23303643.5774
     -2041.1094      -1590.4754
  -1539799.05546  -1146423.71545  24726737.2844   24726739.9094
      -195.6094       -152.4234
   1505189.46445   1156823.56045  25991091.7924   25991094.4054
     -1381.4224      -1076.4334
 98  6 26 20 12 30.0070000  0  7G 6G30G10G26G17G23G22
   7430947.48847   5790869.46347  22484804.8394   22484805.8354
     -3077.9374      -2398.3934
  23180835.72746  17966331.12545  25483666.2924   25483668.4604
     -6493.1724      -5059.6144
  22168298.05345  17269595.40545  25813569.6754   25813573.4724
     -6326.7974      -4929.9724
   1030882.31946    841006.66345  24944452.0654   24944454.5384
     -1150.2034       -896.2624
   4473777.32747   3488128.82647  23309476.6984   23309478.8544
     -2047.4064      -1595.3814
  -1536811.17046  -1144095.46145  24727305.8004   24727308.6014
      -202.7034       -157.9504
   1525991.10245   1173032.66545  25995050.3944   25995053.1594
     -1392.0624      -1084.7244
 98  6 26 20 12 45.0070000  0  7G 6G30G10G26G17G23G22
   7477183.89247   5826897.83147  22493603.2144   22493604.2804
     -3087.0624      -2405.5034
  23278260.62246  18042246.60145  25502205.8474   25502207.2534
     -6496.8754      -5062.5004
  22263233.50545  17343571.06145  25831635.3624   25831638.9604
     -6331.3444      -4933.5154
   1048198.39946    854499.73645  24947746.9014   24947748.9764
     -1158.6414       -902.8374
   4504530.84547   3512092.61347  23315328.9644   23315331.0504
     -2053.1094      -1599.8254
  -1533721.37546  -1141687.79846  24727893.8544   24727896.8544
      -209.3914       -163.1624
   1546946.18945   1189361.32145  25999037.8944   25999040.4724
     -1402.0624      -1092.5164
 98  6 26 20 13  0.0070000  0  7G 6G30G10G26G17G23G22
   7523558.77347   5863034.10247  22502428.2844   22502429.1284
     -3096.2034      -2412.6264
  23375739.37246  18118204.01345  25520755.6364   25520757.8394
     -6500.2664      -5065.1424
  22358237.42145  17417600.06945  25849713.7614   25849717.2534
     -6335.7974      -4936.9854
   1065638.76246    868089.66145  24951065.6444   24951068.2224
     -1166.6414       -909.0714
   4535368.59547   3536122.03747  23321197.4014   23321199.6164
     -2058.5164      -1604.0384
  -1530531.62946  -1139202.26146  24728500.7454   24728503.6164
      -215.8444       -168.1904
   1568050.34045   1205806.12745  26003053.5584   26003057.1674
     -1411.7194      -1100.0414
 98  6 26 20 13 15.0070000  0  7G 6G30G10G26G17G23G22
   7570073.20847   5899279.11847  22511279.7764   22511280.7494
     -3105.6254      -2419.9684
  23473271.16246  18194202.75045  25539315.3004   25539317.3624
     -6503.8754      -5067.9554
  22453309.09245  17491681.86245  25867805.5114   25867809.3194
     -6340.3124      -4940.5034
   1083198.40146    881772.52845  24954407.1284   24954409.4484
     -1174.5474       -915.2314
   4566288.27347   3560215.29947  23327081.1444   23327083.4524
     -2064.0164      -1608.3244
  -1527243.90346  -1136640.36146  24729126.6594   24729129.8004
      -222.4534       -173.3404
   1589300.92145   1222365.03545  26007097.4484   26007100.7654
     -1421.6254      -1107.7604
 98  6 26 20 13 30.0070000  0  7G 6G30G10G26G17G23G22
   7616728.95047   5935634.24347  22520157.9794   22520158.9524
     -3115.2974      -2427.5044
  23570857.89346  18270244.33645  25557885.5194   25557887.6044
     -6507.8124      -5071.0234
  22548448.55045  17565816.46845  25885909.6204   25885912.1044
     -6345.0474      -4944.1924
   1100877.25446    895548.29245  24957771.3944   24957773.9364
     -1182.8284       -921.6844
   4597292.00947   3584374.06347  23332980.9404   23332983.2144
     -2069.9374      -1612.9384
  -1523854.35946  -1133999.13546  24729771.4334   24729774.1984
      -229.5784       -178.8924
   1610703.48045   1239042.38345  26011170.3624   26011174.1014
     -1432.2194      -1116.0154
 98  6 26 20 13 45.0070000  0  7G 6G30G10G26G17G23G22
   7663526.58447   5972099.93147  22529063.2224   22529064.3824
     -3124.6874      -2434.8214
  23668498.89246  18346328.19045  25576465.6904   25576467.9404
     -6511.3444      -5073.7744
  22643655.09945  17640003.36845  25904027.4724   25904030.8944
     -6349.4694      -4947.6384
   1118676.31646    909417.71845  24961158.4484   24961160.8154
     -1190.6414       -927.7724
   4628380.02747   3608598.50347  23338896.6984   23338898.9254
     -2075.4224      -1617.2124
  -1520363.17946  -1131278.70746  24730435.8474   24730438.5654
      -236.2194       -184.0674
   1632260.93145   1255840.41145  26015272.6204   26015275.9364
     -1442.3284      -1123.8924
 98  6 26 20 14  0.0070000  0  7G 6G30G10G26G17G23G22
   7710465.79247   6008675.93747  22537995.2694   22537996.3704
     -3134.2344      -2442.2614
  23766196.25546  18422455.95445  25595056.7294   25595059.5424
     -6515.3444      -5076.8914
  22738929.20045  17714242.91545  25922157.2614   25922160.0264
     -6354.0944      -4951.2424
   1136594.86146    923380.24245  24964568.2144   24964570.5114
     -1198.9374       -934.2374
   4659551.55547   3632888.01447  23344828.4174   23344830.6444
     -2081.1564      -1621.6804
  -1516769.77046  -1128478.62146  24731119.6284   24731122.0304
      -243.3124       -189.5944
   1653969.72945   1272756.38145  26019403.9874   26019407.4214
     -1452.4844      -1131.8064
 98  6 26 20 14 15.0070000  0  7G 6G30G10G26G17G23G22
   7757548.65447   6045363.87747  22546954.9174   22546955.9254
     -3143.6414      -2449.5904
  23863954.08945  18498630.85245  25613659.4404   25613661.8314
     -6519.2504      -5079.9354
  22834271.35145  17788535.47145  25940300.7224   25940304.2264
     -6358.3594      -4954.5664
   1154638.67246    937440.39745  24968001.8474   24968003.7924
     -1207.1724       -940.6534
   4690809.29347   3657244.69947  23350776.4644   23350778.6554
     -2086.7034      -1626.0024
  -1513068.44146  -1125594.44146  24731824.2374   24731826.9094
      -250.4064       -195.1224
   1675828.79445   1289789.44045  26023563.2924   26023566.0464
     -1462.2664      -1139.4284
 98  6 26 20 14 30.0070000  0  7G 6G30G10G26G17G23G22
   7804771.64647   6082161.01647  22555941.3864   22555942.5814
     -3152.8284      -2456.7494
  23961771.32445  18574852.02445  25632273.4094   25632276.5154
     -6523.0784      -5082.9184
  22929676.48545  17862877.10245  25958455.1834   25958459.4364
     -6362.3444      -4957.6704
   1172807.14946    951597.67845  24971458.8004   24971461.7534
     -1215.3594       -947.0334
   4722149.04147   3681665.28947  23356740.4334   23356742.5544
     -2091.9374      -1630.0814
  -1509261.18446  -1122627.72646  24732548.5504   24732550.9294
      -257.3444       -200.5284
   1697834.37045   1306936.66345  26027751.0654   26027754.0774
     -1471.8124      -1146.8674
 98  6 26 20 14 45.0070000  0  7G 6G30G10G26G17G23G22
   7852136.48847   6119068.68047  22564954.5194   22564955.7144
     -3162.5474      -2464.3224
  24059646.28245  18651118.16845  25650898.7454   25650902.2144
     -6526.8914      -5085.8894
  23025142.50745  17937266.19645  25976622.2224   25976625.6904
     -6366.4694      -4960.8854
   1191100.30146    965852.11845  24974940.0424   24974943.0654
     -1223.7664       -953.5844
   4753567.13147   3706146.92547  23362719.1044   23362721.2024
     -2097.1094      -1634.1114
  -1505345.69146  -1119576.66646  24733293.6674   24733296.0344
      -264.7504       -206.2994
   1719982.77945   1324195.19145  26031965.7764   26031969.1284
     -1481.3594      -1154.3064
 98  6 26 20 15  0.0070000  0  7G 6G30G10G26G17G23G22
   7899644.54947   6156087.94747  22573994.9174   22573995.8664
     -3171.8124      -2471.5424
  24157575.37545  18727426.50645  25669533.7614   25669536.3154
     -6530.4064      -5088.6284
  23120668.64545  18011702.13345  25994799.7534   25994802.1324
     -6370.3914      -4963.9414
   1209518.33346    980203.85845  24978445.4564   24978448.5154
     -1232.0164       -960.0124
   4785059.63347   3730686.54547  23368711.7844   23368714.0114
     -2101.9374      -1637.8734
  -1501320.59046  -1116440.19546  24734059.5734   24734062.4444
      -271.9534       -211.9124
   1742273.53645   1341564.62145  26036207.5114   26036211.0854
     -1490.7814      -1161.6484
 98  6 26 20 15 15.0070000  0  7G 6G30G10G26G17G23G22
   7947290.47047   6193214.64147  22583061.8314   22583062.9444
     -3180.8914      -2478.6164
  24255559.97845  18803778.08845  25688179.7694   25688182.9684
     -6534.2034      -5091.5874
  23216254.24245  18086184.39545  26012989.4724   26012992.5304
     -6374.3444      -4967.0214
   1228064.26646    994655.25945  24981974.1514   24981976.8114
     -1240.7814       -966.8434
   4816627.27447   3755284.71547  23374719.0424   23374721.4444
     -2107.0944      -1641.8914
  -1497187.65046  -1113219.69446  24734845.8704   24734848.7184
      -279.1414       -217.5124
   1764707.40345   1359045.57145  26040476.3944   26040479.2414
     -1500.3754      -1169.1234
 98  6 26 20 15 30.0070000  0  7G 6G30G10G26G17G23G22
   7995071.50447   6230446.61647  22592153.8944   22592154.9484
     -3189.8444      -2485.5934
  24353600.97945  18880173.61645  25706836.6364   25706840.1044
     -6537.8754      -5094.4484
  23311899.77545  18160713.36645  26031190.0504   26031192.9334
     -6378.3754      -4970.1624
   1246743.78846   1009210.76845  24985528.5584   24985530.9484
     -1249.8594       -973.9164
   4848273.50847   3779944.12547  23380741.2534   23380743.4214
     -2112.3914      -1646.0194
  -1492944.71746  -1109913.49446  24735653.3314   24735655.8624
      -286.5474       -223.2834
   1787285.43545   1376638.86645  26044772.8624   26044775.9444
     -1509.9844      -1176.6114
 98  6 26 20 15 45.0070000  0  7G 6G30G10G26G17G23G22
   8042986.83747   6267783.24247  22601272.1044   22601272.9364
     -3198.8284      -2492.5934
  24451697.25045  18956612.22945  25725503.4094   25725506.3514
     -6541.4694      -5097.2484
  23407607.36645  18235290.69244  26049402.4404   26049406.2844
     -6382.5944      -4973.4504
   1265561.94446   1023874.29045  24989109.4254   24989112.3784
     -1259.1724       -981.1734
   4879999.98047   3804666.06147  23386778.5504   23386780.6594
     -2117.6874      -1650.1464
  -1488591.09046  -1106521.02746  24736481.9014   24736484.5734
      -293.7664       -228.9084
   1810007.33745   1394344.27145  26049096.7764   26049099.2264
     -1519.4534      -1183.9894
 98  6 26 20 16  0.0070000  0  7G 6G30G10G26G17G23G22
   8091036.85047   6305224.81347  22610415.6754   22610416.5424
     -3207.7194      -2499.5214
  24549844.36446  19033090.45045  25744180.6594   25744183.4834
     -6544.6874      -5099.7564
  23503378.42745  18309917.48744  26067627.2064   26067630.3354
     -6386.7664      -4976.7004
   1284519.47746   1038646.41645  24992717.2294   24992719.9014
     -1268.3594       -988.3324
   4911804.43747   3829448.76247  23392830.2924   23392832.3664
     -2122.7504      -1654.0914
  -1484130.88346  -1103045.50846  24737330.6444   24737333.0114
      -300.8284       -234.4124
   1832868.39745   1412158.08745  26053446.8944   26053450.6444
     -1528.5624      -1191.0884
 98  6 26 20 16 15.0070000  0  7G 6G30G10G26G17G23G22
   8139216.77547   6342767.60847  22619583.9644   22619585.0304
     -3216.6564      -2506.4854
  24648035.35446  19109602.85545  25762865.7224   25762868.5694
     -6547.7664      -5102.1554
  23599208.29645  18384590.08144  26085863.1904   26085866.5894
     -6390.8444      -4979.8784
   1303612.25346   1053523.93645  24996350.3704   24996352.3974
     -1277.6414       -995.5644
   4943680.85147   3854287.52947  23398896.3864   23398898.6714
     -2127.8124      -1658.0364
  -1479568.51146  -1099490.39846  24738198.7454   24738201.5694
      -307.7974       -239.8424
   1855863.60245   1430076.43045  26057822.5734   26057825.1984
     -1537.8444      -1198.3204
 98  6 26 20 16 30.0070000  0  7G 6G30G10G26G17G23G22
   8187534.56647   6380417.83347  22628778.5114   22628779.7884
     -3225.9374      -2513.7184
  24746274.72346  19186152.96445  25781560.4094   25781563.2924
     -6551.0624      -5104.7244
  23695102.90845  18459313.13244  26104111.1284   26104114.6324
     -6395.3594      -4983.3974
   1322844.85046   1068510.39545  25000010.4484   25000012.5224
     -1286.9224      -1002.7964
   4975636.60047   3879188.12047  23404977.4644   23404979.3274
     -2133.1874      -1662.2244
  -1474900.34746  -1095852.84046  24739087.1754   24739089.8354
      -314.8284       -245.3214
   1879002.88145   1448107.05645  26062226.3544   26062229.8824
     -1547.6724      -1205.9784
 98  6 26 20 16 45.0070000  0  7G 6G30G10G26G17G23G22
   8235990.26647   6418175.52047  22637999.3784   22638000.7024
     -3234.9844      -2520.7674
  24844561.86446  19262740.30145  25800263.5814   25800266.3234
     -6553.9844      -5107.0014
  23791064.61145  18534088.47245  26122372.5584   26122375.5114
     -6399.7034      -4986.7824
   1342215.05246   1083604.08345  25003696.0584   25003698.3434
     -1295.9374      -1009.8214
   5007671.72947   3904150.56547  23411073.5894   23411075.5814
     -2138.3124      -1666.2184
  -1470128.20046  -1092134.25846  24739995.0034   24739997.8744
      -321.5944       -250.5934
   1902289.57745   1466252.56045  26066657.2224   26066660.3044
     -1557.3914      -1213.5514
 98  6 26 20 17  0.0080000  0  7G 6G30G10G26G17G23G22
   8284584.82447   6456041.41147  22647246.7344   22647247.9534
     -3243.9374      -2527.7444
  24942898.99346  19339366.59245  25818976.8524   25818978.7384
     -6556.9224      -5109.2904
  23887097.84745  18608919.54144  26140646.8124   26140650.8324
     -6403.9694      -4990.1064
   1361722.45246   1098804.68745  25007408.2734   25007410.8404
     -1304.9374      -1016.8344
   5039786.62347   3929175.16547  23417184.7194   23417186.8754
     -2143.4844      -1670.2484
  -1465254.91046  -1088336.86246  24740922.3054   24740924.9064
      -328.1874       -255.7314
   1925724.59545   1484513.61345  26071116.8984   26071120.0044
     -1567.2194      -1221.2094
 98  6 26 20 17 15.0080000  0  7G 6G30G10G26G17G23G22
   8333313.33847   6494011.67947  22656519.5474   22656520.6954
     -3253.0944      -2534.8784
  25041280.00846  19416027.07245  25837697.8284   25837700.0314
     -6560.4064      -5112.0054
  23983192.00245  18683798.09644  26158932.6414   26158936.5194
     -6408.4374      -4993.5884
   1381365.48646   1114110.96645  25011146.4534   25011148.9614
     -1313.9844      -1023.8844
   5071980.89947   3954261.61847  23423310.9144   23423313.1874
     -2148.9374      -1674.4974
  -1460280.25046  -1084460.47946  24741868.8204   24741871.4574
      -334.9374       -260.9904
   1949308.67945   1502890.84645  26075604.6094   26075607.2234
     -1577.1724      -1228.9654
 98  6 26 20 17 30.0080000  0  7G 6G30G10G26G17G23G22
   8382181.91147   6532091.08747  22665818.8364   22665819.9144
     -3262.6414      -2542.3174
  25139712.85046  19492727.94545  25856428.9774   25856431.4964
     -6563.7974      -5114.6474
  24079354.18245  18758729.64044  26177231.8594   26177234.3794
     -6413.0624      -4997.1924
   1401144.66146   1129523.34145  25014910.0084   25014912.5164
     -1323.0624      -1030.9584
   5104257.78847   3979412.44847  23429453.1804   23429455.2894
     -2154.5004      -1678.8314
  -1455203.78446  -1080504.76446  24742834.9694   24742837.8524
      -341.8444       -266.3724
   1973041.79145   1521384.19445  26080121.2894   26080123.9144
     -1587.1094      -1236.7094
 98  6 26 20 17 45.0080000  0  7G 6G30G10G26G17G23G22
   8431193.93147   6570282.26847  22675145.4534   22675146.4614
     -3272.4374      -2549.9514
  25238193.05646  19569465.72745  25875169.3444   25875172.5314
     -6567.0474      -5117.1794
  24175583.58045  18833713.55744  26195543.7344   26195546.8164
     -6417.6094      -5000.7354
   1421055.33946   1145038.18145  25018699.4064   25018701.8674
     -1331.8124      -1037.7764
   5136615.93547   4004626.59647  23435610.7034   23435613.0004
     -2160.0314      -1683.1414
  -1450026.27046  -1076470.31346  24743820.2504   24743822.7464
      -348.5314       -271.5834
   1996921.99445   1539992.14645  26084664.9614   26084667.9494
     -1597.0624      -1244.4644
 98  6 26 20 18  0.0080000  0  7G 6G30G10G26G17G23G22
   8480348.96347   6608584.89447  22684499.2894   22684500.3094
     -3282.0164      -2557.4154
  25336718.32046  19646238.60645  25893917.9614   25893920.5864
     -6570.0624      -5119.5294
  24271874.86245  18908745.69345  26213867.7344   26213870.9344
     -6421.5784      -5003.8274
   1441091.46746   1160650.78145  25022511.7814   25022513.7854
     -1340.0944      -1044.2294
   5169051.84847   4029901.33747  23441783.2584   23441785.4374
     -2165.1724      -1687.1474
  -1444755.02246  -1072362.82546  24744823.1644   24744825.5904
      -354.7344       -276.4164
   2020947.39745   1558713.26545  26089237.2734   26089239.7114
     -1606.7504      -1252.0134
 98  6 26 20 18 15.0080000  0  7G 6G30G10G26G17G23G22
   8529655.37247   6647005.47247  22693882.0864   22693883.1054
     -3292.0164      -2565.2074
  25435297.19645  19723053.27445  25912677.1644   25912679.9884
     -6573.7034      -5122.3664
  24368231.81845  18983829.02444  26232203.3754   26232207.1724
     -6425.8284      -5007.1394
   1461258.87446   1176365.66445  25026349.3204   25026351.5594
     -1348.7194      -1050.9504
   5201574.18947   4055243.42547  23447971.9144   23447973.9304
     -2170.9844      -1691.6764
  -1439381.36146  -1068175.53546  24745845.8754   24745848.6644
      -361.6564       -281.8104
   2045127.54145   1577554.92345  26093838.5004   26093840.8094
     -1617.1874      -1260.1464
 98  6 26 20 18 30.0080000  0  7G 6G30G10G26G17G23G22
   8579110.51447   6685541.94547  22703293.0234   22703294.0664
     -3301.9224      -2572.9264
  25533930.83546  19799910.59245  25931446.1484   25931448.7734
     -6577.3594      -5125.2154
  24464650.64045  19058960.52445  26250551.5554   26250555.5164
     -6429.9224      -5010.3294
   1481554.91146   1192180.78045  25030211.7734   25030214.2694
     -1357.3594      -1057.6834
   5234183.05147   4080652.93247  23454177.0624   23454178.8914
     -2176.7974      -1696.2054
  -1433904.49346  -1063907.81846  24746887.9534   24746890.8714
      -368.5314       -287.1674
   2069464.91545   1596519.12544  26098469.8284   26098472.2664
     -1627.7034      -1268.3404
 98  6 26 20 18 45.0080000  0  7G 6G30G10G26G17G23G22
   8628710.36847   6724191.17847  22712731.5474   22712732.6954
     -3311.5624      -2580.4384
  25632615.37445  19876807.58945  25950225.4694   25950228.2694
     -6580.7344      -5127.8454
  24561127.79745  19134137.52644  26268910.6484   26268914.9374
     -6433.8284      -5013.3734
   1501977.73046   1208094.70545  25034097.5864   25034100.3524
     -1365.8754      -1064.3184
   5266875.06847   4106127.24247  23460398.4534   23460400.4454
     -2182.2814      -1700.4794
  -1428327.40746  -1059562.00846  24747949.7734   24747952.4694
      -375.2504       -292.4034
   2093956.31845   1615603.34745  26103130.5164   26103133.6334
     -1637.9064      -1276.2914
 98  6 26 20 19  0.0080000  0  7G 6G30G10G26G17G23G22
   8678456.16647   6762954.13547  22722197.9774   22722198.9734
     -3321.2974      -2588.0244
  25731349.79746  19953743.45745  25969014.2114   25969017.0234
     -6583.8754      -5130.2924
  24657662.92045  19209359.65644  26287280.4144   26287285.3124
     -6437.5784      -5016.2954
   1522530.55946   1224109.91345  25038008.9224   25038010.9144
     -1374.5624      -1071.0884
   5299650.82747   4131666.79847  23466635.1874   23466637.0744
     -2187.8914      -1704.8504
  -1422648.06846  -1055136.52346  24749029.9614   24749032.3984
      -382.0944       -297.7354
   2118600.21245   1634806.38845  26107819.9924   26107824.1174
     -1648.0004      -1284.1564
 98  6 26 20 19 15.0080000  0  7G 6G30G10G26G17G23G22
   8728345.16047   6801828.67947  22731691.5314   22731692.7034
     -3330.8444      -2595.4634
  25830128.96046  20030714.18045  25987810.7584   25987813.2894
     -6586.9844      -5132.7154
  24754250.55545  19284622.73744  26305660.8594   26305665.2774
     -6441.0624      -5019.0104
   1543210.00146   1240223.78545  25041944.1254   25041946.5044
     -1382.9534      -1077.6264
   5332508.74347   4157270.38047  23472887.7194   23472889.5704
     -2193.4064      -1709.1484
  -1416867.79146  -1050632.38746  24750130.1254   24750132.6334
      -388.9534       -303.0804
   2143391.91745   1654124.61244  26112537.5944   26112540.2304
     -1657.8444      -1291.8264
 98  6 26 20 19 30.0080000  0  7G 6G30G10G26G17G23G22
   8778380.12147   6840816.95747  22741212.8984   22741214.0004
     -3340.5004      -2602.9874
  25928956.21045  20107722.37545  26006617.4534   26006619.5864
     -6589.9374      -5135.0164
  24850894.33545  19359929.54844  26324051.5234   26324055.7894
     -6444.7664      -5021.8954
   1564019.73646   1256439.18745  25045904.1644   25045906.1804
     -1391.6874      -1084.4324
   5365452.64847   4182940.96447  23479156.8914   23479158.7544
     -2199.1094      -1713.5924
  -1410979.71946  -1046044.25146  24751250.4844   24751253.1684
      -396.1094       -308.6574
   2168335.30545   1673561.04144  26117283.7194   26117286.6724
     -1667.9694      -1299.7164
 98  6 26 20 19 45.0080000  0  7G 6G30G10G26G17G23G22
   8828558.73047   6879917.16547  22750761.5864   22750762.6764
     -3349.8594      -2610.2804
  26027825.98345  20184763.71245  26025431.6954   26025434.6484
     -6592.6414      -5137.1234
  24947592.48845  19435278.71244  26342452.5234   26342457.3634
     -6448.2344      -5024.5984
   1584961.29046   1272757.31145  25049888.9454   25049891.1484
     -1400.4844      -1091.2874
   5398481.90347   4208678.04947  23485442.2034   23485444.1954
     -2204.7194      -1717.9634
  -1404984.51446  -1041372.63446  24752391.2344   24752393.5904
      -403.2194       -314.1964
   2193430.73745   1693115.91744  26122059.1564   26122061.9924
     -1678.0474      -1307.5694
 98  6 26 20 20  0.0080000  0  7G 6G30G10G26G17G23G22
   8878874.53047   6919124.27947  22760336.3204   22760337.5044
     -3358.9694      -2617.3784
  26126736.16445  20261836.51645  26044253.6024   26044256.8244
     -6595.5004      -5139.3514
  25044341.41545  19510667.45544  26360862.9304   26360866.4224
     -6451.7344      -5027.3254
   1606034.69346   1289178.16545  25053899.1334   25053901.1724
     -1409.5004      -1098.3124
   5431593.72347   4234479.47747  23491743.0624   23491745.2074
     -2210.2974      -1722.3094
  -1398882.52046  -1036617.80346  24753552.0864   24753554.6524
      -410.5004       -319.8704
   2218678.20145   1712789.28644  26126863.7274   26126866.1994
     -1688.4064      -1315.6414
 98  6 26 20 20 15.0080000  0  7G 6G30G10G26G17G23G22
   8929323.63447   6958435.27147  22769936.6564   22769937.9104
     -3367.7344      -2624.2094
  26225687.39145  20338941.32845  26063082.9614   26063086.2664
     -6598.1874      -5141.4454
  25141141.28945  19586095.92245  26379283.8284   26379287.5784
     -6455.1564      -5029.9924
   1627243.77746   1305704.74245  25057934.9304   25057937.5904
     -1418.6414      -1105.4344
   5464785.80747   4260343.43947  23498059.2734   23498061.2304
     -2215.5474      -1726.4004
  -1392670.72546  -1031777.41646  24754734.5314   24754737.0164
      -417.9694       -325.6904
   2244079.75345   1732582.72244  26131697.6644   26131700.5004
     -1698.6724      -1323.6404
 98  6 26 20 20 30.0080000  0  7G 6G30G10G26G17G23G22
   8979902.42847   6997847.31147  22779561.4694   22779562.7344
     -3376.0474      -2630.6864
  26324677.88045  20416076.72045  26081920.8914   26081923.8324
     -6600.5314      -5143.2714
  25237994.32645  19661565.78445  26397714.4924   26397718.7464
     -6458.5624      -5032.6464
   1648590.57346   1322338.64045  25061997.0944   25061998.8874
     -1427.6094      -1112.4234
   5498056.42947   4286268.60647  23504390.5944   23504392.5864
     -2220.4534      -1730.2234
  -1386345.75646  -1026848.84346  24755937.8984   24755940.7344
      -425.3444       -331.4374
   2269635.58545   1752496.35745  26136560.7194   26136563.9654
     -1708.7194      -1331.4694
 98  6 26 20 20 45.0080000  0  7G 6G30G10G26G17G23G22
   9030610.63147   7037360.20047  22789210.6644   22789211.7894
     -3385.0004      -2637.6624
  26423708.07045  20493243.05845  26100765.5004   26100768.3834
     -6603.4374      -5145.5364
  25334903.67645  19737079.52645  26416155.0084   26416158.8754
     -6462.6254      -5035.8124
   1670077.60946   1339081.80445  25066086.3284   25066088.1564
     -1437.2814      -1119.9594
   5531402.97147   4312252.93147  23510736.3054   23510738.3324
     -2225.6724      -1734.2904
  -1379906.23046  -1021831.00846  24757163.1564   24757165.8984
      -433.2034       -337.5614
   2295344.03445   1772528.93645  26141453.1874   26141455.5554
     -1719.0004      -1339.4814
 98  6 26 20 21  0.0080000  0  7G 6G30G10G26G17G23G22
   9081450.18747   7076975.43847  22798885.2664   22798886.3674
     -3393.7974      -2644.5174
  26522778.07145  20570440.38645  26119618.1254   26119621.7234
     -6606.1094      -5147.6184
  25431870.87045  19812638.36344  26434607.8754   26434611.9884
     -6466.5474      -5038.8684
   1691705.42646   1355934.67145  25070201.6874   25070204.2544
     -1446.6564      -1127.2654
   5564823.57147   4338294.96047  23517096.0944   23517098.2974
     -2230.5944      -1738.1254
  -1373352.06446  -1016723.84446  24758410.4614   24758413.1444
      -440.8914       -343.5514
   2321201.78445   1792677.84445  26146373.6484   26146376.0274
     -1728.8914      -1347.1874
 98  6 26 20 21 15.0080000  0  7G 6G30G10G26G17G23G22
   9132425.70647   7116696.61847  22808585.7504   22808586.6764
     -3402.9064      -2651.6154
  26621892.96245  20647672.74645  26138479.2194   26138482.3244
     -6609.1874      -5150.0164
  25528901.12945  19888246.33344  26453072.2034   26453075.0274
     -6470.7974      -5042.1794
   1713479.04346   1372901.15245  25074345.2274   25074347.6294
     -1456.4374      -1134.8864
   5598322.56747   4364398.08347  23523470.7114   23523472.7734
     -2235.8594      -1742.2284
  -1366677.37646  -1011522.76046  24759680.8914   24759683.6334
      -449.0624       -349.9194
   2347212.61945   1812946.03945  26151323.1094   26151325.5704
     -1739.1724      -1355.1994
 98  6 26 20 21 30.0080000  0  7G 6G30G10G26G17G23G22
   9183533.39347   7156520.79147  22818311.1174   22818312.1724
     -3411.4844      -2658.3004
  26721050.95545  20724938.64145  26157348.1254   26157351.2664
     -6611.8914      -5152.1234
  25625991.35145  19963901.01944  26471547.6254   26471549.6874
     -6474.5624      -5045.1144
   1735394.27746   1389977.97945  25078515.4454   25078517.6484
     -1465.6254      -1142.0454
   5631894.06747   4390557.69947  23529859.1484   23529860.8834
     -2240.3124      -1745.6984
  -1359884.28046  -1006229.41546  24760973.5554   24760976.2854
      -456.6564       -355.8364
   2373372.87745   1833330.67945  26156301.2274   26156303.9574
     -1748.8914      -1362.7724
 98  6 26 20 21 45.0080000  0  7G 6G30G10G26G17G23G22
   9234774.19347   7196448.68747  22828061.6334   22828062.8284
     -3420.6094      -2665.4104
  26820251.77545  20802237.95945  26176225.6414   26176228.8284
     -6614.8444      -5154.4244
  25723141.02045  20039602.05344  26490034.7504   26490037.8554
     -6478.6254      -5048.2794
   1757450.60746   1407164.75145  25082712.6564   25082715.0474
     -1475.1874      -1149.4974
   5665535.26847   4416771.63047  23536260.7814   23536262.8444
     -2245.1254      -1749.4484
  -1352976.05746  -1000846.35446  24762287.7664   24762290.4264
      -464.4064       -361.8754
   2399681.93345   1853831.25245  26161307.9694   26161311.2854
     -1758.8914      -1370.5644
 98  6 26 20 22  0.0080000  0  7G 6G30G10G26G17G23G22
   9286149.52547   7236481.41347  22837838.0624   22837839.2694
     -3429.4534      -2672.3014
  26919495.78045  20879570.88245  26195110.9924   26195114.0044
     -6617.6564      -5156.6154
  25820349.50645  20115348.88844  26508533.3754   26508536.8674
     -6482.4694      -5051.2744
   1779648.07846   1424461.50645  25086936.6094   25086938.4494
     -1484.4224      -1156.6924
   5699246.21947   4443039.90647  23542675.8284   23542677.8914
     -2249.6724      -1752.9914
  -1345953.13146   -995373.92546  24763624.2814   24763626.7424
      -471.9534       -367.7564
   2426137.31245   1874445.84445  26166341.9224   26166344.6054
     -1768.5474      -1378.0884
 98  6 26 20 22 15.0080000  0  7G 6G30G10G26G17G23G22
   9337658.85647   7276618.54747  22847640.0704   22847641.2544
     -3438.5624      -2679.3994
  27018781.05745  20956935.97845  26214004.2974   26214007.9064
     -6620.4534      -5158.7954
  25917615.08645  20191140.22644  26527041.6724   26527044.9304
     -6486.3594      -5054.3064
   1801982.95946   1441865.33145  25091186.6954   25091189.0984
     -1493.6094      -1163.8514
   5733025.01547   4469361.05547  23549103.5164   23549105.6134
     -2254.2664      -1756.5714
  -1338818.46446   -989814.41046  24764981.9454   24764984.7114
      -479.4064       -373.5634
   2452737.75345   1895173.45845  26171404.1804   26171406.7934
     -1778.2504      -1385.6494
 98  6 26 20 22 30.0080000  0  7G 6G30G10G26G17G23G22
   9389315.13547   7316870.19547  22857470.0554   22857471.0984
     -3448.5314      -2687.1674
  27118117.44345  21034340.90245  26232908.0704   26232910.8124
     -6623.9374      -5161.5104
  26014947.42245  20266983.57844  26545563.2194   26545565.8204
     -6490.8914      -5057.8374
   1824463.42446   1459382.60145  25095464.9224   25095467.5234
     -1503.3754      -1171.4614
   5766882.64347   4495743.62947  23555546.4454   23555548.5194
     -2259.7034      -1760.8084
  -1331563.63646   -984161.27346  24766362.7814   24766365.7344
      -487.4224       -379.8094
   2479491.45545   1916020.50645  26176494.8834   26176498.2934
     -1788.4374      -1393.5884
 98  6 26 20 22 45.0080000  0  7G 6G30G10G26G17G23G22
   9441115.64347   7357234.22147  22867327.4774   22867328.5084
     -3458.0944      -2694.6194
  27217498.65045  21111780.77845  26251819.3834   26251822.8524
     -6626.7344      -5163.6894
  26112340.77845  20342874.48544  26564096.8204   26564101.4614
     -6494.6414      -5060.7594
   1847082.66146   1477008.00145  25099768.8204   25099771.2234
     -1512.3914      -1178.4864
   5800816.30047   4522185.44147  23562003.8444   23562005.9064
     -2264.5944      -1764.6194
  -1324196.43246   -978420.56546  24767764.4064   24767767.3944
      -494.6724       -385.4594
   2506390.09645   1936980.51245  26181613.6804   26181616.9144
     -1797.8914      -1400.9544
 98  6 26 20 23  0.0080000  0  7G 6G30G10G26G17G23G22
   9493066.18447   7397715.16147  22877213.1414   22877214.2304
     -3468.4224      -2702.6664
  27316927.86745  21189258.01245  26270740.0004   26270743.1294
     -6630.2344      -5166.4164
  26209795.07245  20418812.86444  26582641.8914   26582644.7504
     -6499.0314      -5064.1804
   1869843.44446   1494743.69845  25104100.2664   25104102.1174
     -1522.1724      -1186.1084
   5834829.22647   4548689.02747  23568476.3124   23568478.3754
     -2270.3284      -1769.0874
  -1316716.11746   -972591.72246  24769187.9454   24769190.8164
      -502.4694       -391.5344
   2533436.81745   1958055.87845  26186760.3914   26186763.2624
     -1808.1874      -1408.9774
 98  6 26 20 23 15.0080000  0  7G 6G30G10G26G17G23G22
   9545163.70947   7438310.63247  22887127.1174   22887128.3014
     -3477.8754      -2710.0324
  27416401.08045  21266769.57445  26289669.3124   26289672.6294
     -6632.8594      -5168.4624
  26307307.01145  20494796.17343  26601197.7114   26601200.9694
     -6502.5474      -5066.9204
   1892744.27846   1512588.53245  25108458.0004   25108460.2504
     -1531.2974      -1193.2184
   5868923.74647   4575256.19247  23574964.2274   23574966.1724
     -2275.5944      -1773.1904
  -1309126.59246   -966677.78046  24770632.2734   24770635.0984
      -509.4374       -396.9644
   2560632.67645   1979247.47445  26191935.4844   26191938.2974
     -1817.9534      -1416.5874
 98  6 26 20 23 30.0080000  0  7G 6G30G10G26G17G23G22
   9597403.45247   7479016.92547  22897067.9064   22897069.0784
     -3487.5944      -2717.6064
  27515914.60445  21344312.53745  26308606.0394   26308609.0394
     -6635.7814      -5170.7394
  26404872.14745  20570820.95544  26619764.0554   26619766.2114
     -6506.3124      -5069.8544
   1915783.37946   1530541.10045  25112842.0784   25112844.1764
     -1540.7504      -1200.5844
   5903097.49447   4601885.09247  23581467.5164   23581469.5084
     -2281.1094      -1777.4884
  -1301431.69946   -960681.73846  24772096.5784   24772099.1334
      -516.7194       -402.6384
   2587977.07545   2000554.79545  26197139.0314   26197141.5864
     -1828.1254      -1424.5134
 98  6 26 20 23 45.0080000  0  7G 6G30G10G26G17G23G22
   9649787.32147   7519835.51947  22907036.3364   22907037.4374
     -3497.2194      -2725.1064
  27615470.66645  21421888.64245  26327551.1724   26327554.4654
     -6638.6564      -5172.9794
  26502492.51545  20646888.73744  26638340.5394   26638344.2544
     -6510.0624      -5072.7764
   1938962.49346   1548602.77245  25117252.8124   25117255.1684
     -1550.2194      -1207.9634
   5937353.96447   4628578.44947  23587986.0554   23587987.9654
     -2286.7664      -1781.8954
  -1293630.13446   -954602.56646  24773580.8834   24773583.4374
      -523.7814       -408.1414
   2615473.70945   2021980.74445  26202371.5474   26202373.9844
     -1838.4064      -1432.5244
 98  6 26 20 24  0.0080000  0  7G 6G30G10G26G17G23G22
   9702313.56047   7560765.05647  22917031.5554   22917032.7854
     -3506.4694      -2732.3134
  27715067.45945  21499496.48645  26346504.2274   26346506.7814
     -6641.1724      -5174.9394
  26600167.39245  20722999.02543  26656926.9304   26656931.6294
     -6513.4534      -5075.4184
   1962283.83146   1566775.26045  25121690.7344   25121693.0084
     -1559.5474      -1215.2314
   5971694.16047   4655337.05047  23594520.8524   23594522.7384
     -2292.1724      -1786.1084
  -1285724.81046   -948442.55046  24775085.5164   24775088.1874
      -530.5624       -413.4254
   2643121.52645   2043524.53545  26207632.3124   26207635.0084
     -1848.2344      -1440.1834
 98  6 26 20 24 15.0080000  0  7G 6G30G10G26G17G23G22
   9754977.74347   7601802.08147  22927053.2894   22927054.5784
     -3515.3594      -2739.2414
  27814702.83145  21577134.38145  26365463.7114   26365466.5234
     -6643.4374      -5176.7054
  26697894.90945  20799150.31843  26675524.5084   26675528.6684
     -6516.7814      -5078.0114
   1985747.50646   1585058.67045  25126155.4064   25126157.6444
     -1568.7974      -1222.4394
   6006116.90247   4682159.97047  23601071.3054   23601073.1444
     -2297.4374      -1790.2114
  -1277716.69446   -942202.43546  24776609.0864   24776611.6054
      -537.1094       -418.5274
   2670919.10945   2065184.99445  26212922.4064   26212925.7934
     -1858.0474      -1447.8294
 98  6 26 20 24 30.0080000  0  7G 6G30G10G26G17G23G22
   9807778.73047   7642945.70547  22937100.8204   22937102.1804
     -3524.7504      -2746.5584
  27914374.79145  21654800.79745  26384430.7194   26384433.5664
     -6646.1254      -5178.7994
  26795674.08245  20875341.83743  26694130.9144   26694134.3944
     -6520.4224      -5080.8484
   2009353.35646   1603452.86245  25130647.8984   25130650.1484
     -1578.6724      -1230.1344
   6040620.57647   4709045.95547  23607637.0474   23607639.0164
     -2303.0164      -1794.5584
  -1269607.36346   -935883.44646  24778152.0394   24778154.5704
      -544.1564       -424.0184
   2698866.45745   2086962.16345  26218240.4844   26218243.1684
     -1868.2344      -1455.7674
 98  6 26 20 24 45.0080000  0  7G 6G30G10G26G17G23G22
   9860716.94047   7684196.25847  22947174.9844   22947176.3554
     -3533.5784      -2753.4374
  28014084.35445  21732496.51145  26403404.8124   26403408.4454
     -6648.3444      -5180.5284
  26893505.66745  20951574.21843  26712747.9924   26712752.3874
     -6523.6564      -5083.3694
   2033105.77846   1621961.26145  25135167.8524   25135169.8324
     -1588.2194      -1237.5734
   6075203.97647   4735994.06947  23614218.1174   23614220.0624
     -2307.9844      -1798.4294
  -1261395.34346   -929484.44546  24779714.9774   24779717.3554
      -550.7034       -429.1194
   2726963.89345   2108856.26045  26223586.8124   26223589.8714
     -1878.0004      -1463.3774
 98  6 26 20 25  0.0080000  0  7G 6G30G10G26G17G23G22
   9913786.37147   7725549.05847  22957273.3524   22957274.7114
     -3542.5314      -2760.4144
  28113825.61645  21810216.92445  26422384.9924   26422388.2504
     -6650.7034      -5182.3664
  26991382.60045  21027841.94143  26731372.9844   26731377.6954
     -6526.7664      -5085.7914
   2057000.39546   1640580.46545  25139714.8204   25139716.9304
     -1597.9374      -1245.1464
   6109859.73947   4762998.56847  23620812.9924   23620814.9144
     -2312.9534      -1802.3014
  -1253084.82646   -923008.69046  24781296.3594   24781299.0194
      -557.5784       -434.4764
   2755208.26045   2130864.88045  26228961.9614   26228965.3484
     -1888.1414      -1471.2784
 98  6 26 20 25 15.0080000  0  7G 6G30G10G26G17G23G22
   9966992.10747   7767008.07047  22967398.1874   22967399.3594
     -3551.5004      -2767.4034
  28213605.48645  21887967.41845  26441372.1804   26441375.7774
     -6653.1254      -5184.2534
  27089309.37445  21104148.46043  26750008.1094   26750013.0434
     -6530.0474      -5088.3484
   2081043.25546   1659315.18245  25144290.2344   25144292.4374
     -1607.6874      -1252.7444
   6144593.05247   4790063.49347  23627422.4534   23627424.4454
     -2318.0624      -1806.2824
  -1244668.45046   -916450.44646  24782898.0234   24782900.4374
      -564.5004       -439.8704
   2783607.65445   2152994.28945  26234366.1724   26234368.4694
     -1898.3284      -1479.2174
 98  6 26 20 25 30.0090000  0  7G 6G30G10G26G17G23G22
  10020335.63347   7808574.45347  22977549.2554   22977550.3214
     -3560.5784      -2774.4764
  28313426.19245  21965749.73445  26460367.7314   26460371.3524
     -6655.5004      -5186.1044
  27187290.78745  21180497.61943  26768652.8564   26768655.6924
     -6533.3284      -5090.9054
   2105231.71746   1678163.36045  25148892.7784   25148895.0404
     -1617.2814      -1260.2194
   6179402.65647   4817187.86247  23634046.5444   23634048.5954
     -2322.9694      -1810.1064
  -1236148.34846   -909811.38146  24784519.3494   24784522.0674
      -571.5314       -445.3494
   2812159.67845   2175242.62445  26239799.6774   26239802.6534
     -1908.4064      -1487.0704
 98  6 26 20 25 45.0090000  0  7G 6G30G10G26G17G23G22
  10073816.14447   7850247.57547  22987726.2474   22987727.5134
     -3570.1724      -2781.9524
  28413278.73245  22043556.86045  26479368.9114   26479371.8174
     -6658.1094      -5188.1374
  27285318.27345  21256882.62243  26787307.0754   26787311.3414
     -6536.9844      -5093.7544
   2129563.84646   1697123.48345  25153523.1304   25153525.5324
     -1627.0004      -1267.7924
   6214286.64147   4844370.19447  23640684.5134   23640686.4354
     -2328.2344      -1814.2094
  -1227518.76846   -903087.00046  24786161.3884   24786163.7784
      -579.0314       -451.1934
   2840863.24745   2197609.06045  26245261.6924   26245264.2474
     -1918.7034      -1495.0934
 98  6 26 20 26  0.0090000  0  7G 6G30G10G26G17G23G22
  10127438.64147   7892031.33847  22997930.4114   22997931.4424
     -3579.6874      -2789.3674
  28513166.72745  22121391.59245  26498377.0834   26498380.6694
     -6660.4694      -5189.9764
  27383397.08845  21333307.64143  26805970.7864   26805974.7594
     -6540.3444      -5096.3724
   2154039.87246   1716195.73545  25158180.7634   25158182.8024
     -1636.6564      -1275.3174
   6249247.27847   4871612.25547  23647337.3724   23647339.3764
     -2333.2814      -1818.1414
  -1218780.27346   -896277.76246  24787824.2944   24787826.8024
      -586.2814       -456.8434
   2869719.21645   2220094.23345  26250752.8024   26250755.3454
     -1928.8914      -1503.0324
 98  6 26 20 26 15.0090000  0  7G 6G30G10G26G17G23G22
  10181202.69847   7933925.40847  23008161.2704   23008162.1854
     -3589.0944      -2796.6964
  28613088.43745  22199252.61245  26517391.7004   26517395.6264
     -6662.7034      -5191.7174
  27481524.63045  21409770.63743  26824644.5754   26824649.3454
     -6543.5944      -5098.9044
   2178657.66846   1735378.45545  25162865.2704   25162867.3104
     -1646.0164      -1282.6104
   6284280.94547   4898911.22347  23654004.1614   23654006.0364
     -2338.1874      -1821.9644
  -1209933.50546   -889384.15146  24789507.6854   24789510.2394
      -593.6094       -462.5534
   2898726.39945   2242697.24545  26256272.5364   26256275.2204
     -1939.0624      -1510.9584
 98  6 26 20 26 30.0090000  0  7G 6G30G10G26G17G23G22
  10235111.47547   7975932.24447  23018419.7784   23018420.7164
     -3598.9064      -2804.3434
  28713046.75545  22277142.15845  26536413.2314   26536416.3724
     -6665.1724      -5193.6404
  27579705.50545  21486275.20143  26843327.7164   26843329.9194
     -6547.2194      -5101.7294
   2203419.60146   1754673.49345  25167577.4034   25167579.4894
     -1655.6094      -1290.0854
   6319392.44747   4926270.83647  23660685.6614   23660687.5134
     -2343.3914      -1826.0194
  -1200972.51146   -882401.53446  24791213.0524   24791215.4774
      -601.2974       -468.5434
   2927891.59645   2265423.38945  26261822.5674   26261824.9704
     -1949.7194      -1519.2614
 98  6 26 20 26 45.0090000  0  7G 6G30G10G26G17G23G22
  10289167.11347   8018053.52047  23028706.2244   23028707.5014
     -3608.4374      -2811.7694
  28813040.64945  22355059.43145  26555441.4194   26555444.6884
     -6667.2664      -5195.2724
  27677937.47245  21562819.54643  26862020.3804   26862024.0244
     -6550.3444      -5104.1644
   2228322.58646   1774078.44145  25172316.3804   25172318.9114
     -1664.6724      -1297.1474
   6354579.20247   4953689.09447  23667381.3334   23667383.0914
     -2348.1724      -1829.7444
  -1191897.04946   -875329.71346  24792940.0674   24792942.6104
      -608.6874       -474.3024
   2957216.23445   2288273.77745  26267403.0994   26267405.7354
     -1960.1564      -1527.3944
 98  6 26 20 27  0.0090000  0  7G 6G30G10G26G17G23G22
  10343363.37947   8060284.37447  23039019.2864   23039020.4234
     -3617.8124      -2819.0754
  28913063.75745  22432999.44845  26574475.4664   26574478.1494
     -6669.1724      -5196.7574
  27776214.72445  21639399.18144  26880722.0284   26880724.7354
     -6553.3594      -5106.5144
   2253358.10346   1793586.65245  25177080.2634   25177082.6774
     -1673.4844      -1304.0144
   6389838.16847   4981163.62047  23674090.8884   23674092.7044
     -2353.1414      -1833.6164
  -1182712.88046   -868173.19646  24794687.8174   24794690.3724
      -616.0164       -480.0124
   2986694.78145   2311244.07845  26273012.4194   26273015.8884
     -1970.3754      -1535.3574
 98  6 26 20 27 15.0090000  0  7G 6G30G10G26G17G23G22
  10397703.07647   8102626.99347  23049359.9114   23049361.1424
     -3627.5624      -2826.6724
  29013116.22345  22510962.33045  26593515.0524   26593519.0834
     -6671.2034      -5198.3404
  27874539.66745  21716016.01343  26899432.8024   26899435.2514
     -6556.7814      -5109.1804
   2278527.08146   1813198.87445  25181869.8334   25181871.7314
     -1682.4844      -1311.0274
   6425174.48447   5008698.42147  23680815.3414   23680817.3684
     -2358.4534      -1837.7564
  -1173415.94846   -860928.80146  24796457.0364   24796459.5094
      -623.5784       -485.9054
   3016328.16145   2334335.02845  26278651.2784   26278653.8454
     -1980.7034      -1543.4054
 98  6 26 20 27 30.0090000  0  7G 6G30G10G26G17G23G22
  10452182.15147   8145078.21847  23059726.8334   23059727.9814
     -3635.5164      -2832.8694
  29113191.13945  22588942.76145  26612558.4584   26612562.2204
     -6671.2814      -5198.4014
  27972910.85945  21792668.87243  26918152.5674   26918155.8374
     -6558.5624      -5110.5684
   2303823.86146   1832910.66145  25186683.8024   25186685.7004
     -1689.6094      -1316.5794
   6460583.73147   5036290.05047  23687553.3254   23687555.4114
     -2361.9534      -1840.4834
  -1164014.76746   -853603.18546  24798245.7784   24798248.1574
      -629.1414       -490.2394
   3046105.67345   2357538.30045  26284317.8414   26284321.7084
     -1988.8444      -1549.7484
 98  6 26 20 27 45.0090000  0  7G 6G30G10G26G17G23G22
  10506789.56947   8187629.44747  23070118.3884   23070119.6064
     -3645.2974      -2840.4914
  29213275.73745  22666930.68845  26631603.9584   26631607.6264
     -6673.2034      -5199.8994
  28071316.42445  21869348.51844  26936878.5524   26936882.4424
     -6562.0164      -5113.2594
   2329236.39046   1852712.65645  25191519.7314   25191521.8994
     -1698.6564      -1323.6284
   6496053.91947   5063929.16447  23694303.1614   23694305.3064
     -2367.3124      -1844.6594
  -1154519.87646   -846204.55046  24800052.4114   24800054.8254
      -636.7664       -496.1814
   3076014.45445   2380843.84445  26290009.1144   26290012.8994
     -1998.8754      -1557.5654
 98  6 26 20 28  0.0090000  0  7G 6G30G10G26G17G23G22
  10561540.62747   8230292.60947  23080536.9894   23080538.1024
     -3654.3444      -2847.5414
  29313386.79345  22744939.24245  26650654.6384   26650658.1184
     -6674.4534      -5200.8734
  28169771.55845  21946066.77444  26955613.2784   26955616.3724
     -6564.8284      -5115.4504
   2354785.85846   1872621.36145  25196381.4034   25196384.0284
     -1707.5004      -1330.5194
   6531602.53547   5091629.38847  23701067.8254   23701069.7704
     -2372.0164      -1848.3244
  -1144911.34346   -838717.34846  24801880.9194   24801883.2164
      -643.8284       -501.6844
   3106071.89245   2404265.24945  26295729.0284   26295732.6264
     -2008.2974      -1564.9074
 98  6 26 20 28 15.0090000  0  7G 6G30G10G26G17G23G22
  10616434.42347   8273066.99747  23090982.9034   23090984.0174
     -3664.7814      -2855.6744
  29413526.81545  22822970.39745  26669710.3564   26669714.1424
     -6677.5314      -5203.2714
  28268276.48045  22022823.83443  26974358.5444   26974361.8494
     -6569.1254      -5118.7994
   2380478.70046   1892641.77345  25201270.3024   25201272.7044
     -1718.1254      -1338.7994
   6567230.24247   5119391.24447  23707847.2004   23707849.1454
     -2378.2814      -1853.2064
  -1135188.95446   -831141.44146  24803731.0524   24803733.3724
      -652.4844       -508.4294
   3136280.05745   2427804.07445  26301476.9894   26301480.9974
     -2019.3594      -1573.5274
 98  6 26 20 28 30.0090000  0  7G 6G30G10G26G17G23G22
  10671476.80447   8315957.16247  23101457.2634   23101458.3764
     -3674.0474      -2862.8944
  29513705.19145  22901031.38845  26688773.9894   26688777.2354
     -6679.3914      -5204.7204
  28366838.08145  22099625.04443  26993114.2244   26993117.2244
     -6572.2504      -5121.2344
   2406321.62146   1912779.14345  25206188.2394   25206190.2674
     -1727.5004      -1346.1044
   6602944.17247   5147220.29147  23714643.5444   23714645.5604
     -2383.3914      -1857.1874
  -1125343.67446   -823469.76846  24805604.5604   24805606.9154
      -660.0314       -514.3104
   3166644.63345   2451464.79845  26307255.4744   26307257.9814
     -2029.0624      -1581.0884
 98  6 26 20 28 45.0090000  0  7G 6G30G10G26G17G23G22
  10726656.94047   8358954.67247  23111957.5364   23111958.6854
     -3683.3754      -2870.1624
  29613909.29445  22979112.44745  26707842.5604   26707846.4034
     -6681.2194      -5206.1444
  28465443.27345  22176460.25743  27011878.5914   27011881.0994
     -6575.0944      -5123.4504
   2432303.96246   1933025.14045  25211132.2554   25211134.7394
     -1736.8284      -1353.3734
   6638731.27147   5175106.34547  23721453.3954   23721455.5874
     -2388.2504      -1860.9744
  -1115387.79746   -815711.91546  24807499.3954   24807501.6344
      -667.4844       -520.1184
   3197151.86645   2475236.68445  26313060.9814   26313064.4504
     -2038.6094      -1588.5274
 98  6 26 20 29  0.0090000  0  7G 6G30G10G26G17G23G22
  10781983.28247   8402066.10147  23122485.8954   23122487.0564
     -3692.9224      -2877.6014
  29714148.49345  23057220.85345  26726917.3724   26726921.4744
     -6683.5164      -5207.9344
  28564098.40445  22253334.32443  27030651.2634   27030654.8024
     -6578.3754      -5126.0064
   2458435.00846   1953387.01945  25216104.7704   25216107.0444
     -1746.8284      -1361.1654
   6674599.44947   5203055.58147  23728279.4424   23728281.6224
     -2393.6094      -1865.1504
  -1105312.98646   -807861.39046  24809416.2554   24809418.7164
      -675.2504       -526.1694
   3227808.34245   2499124.85145  26318894.4274   26318897.4854
     -2048.3124      -1596.0884
 98  6 26 20 29 15.0090000  0  7G 6G30G10G26G17G23G22
  10837448.74947   8445285.94847  23133040.7394   23133041.7474
     -3701.9534      -2884.6394
  29814418.17645  23135353.00545  26745997.6454   26746001.3724
     -6685.2664      -5209.2984
  28662798.18645  22330243.22943  27049433.5834   27049437.0994
     -6581.0314      -5128.0764
   2484713.81946   1973864.03545  25221105.8254   25221107.6654
     -1756.5004      -1368.7014
   6710542.91747   5231063.48247  23735118.9274   23735120.8954
     -2398.2504      -1868.7664
  -1095125.89046   -799923.36746  24811354.6534   24811357.1144
      -682.4844       -531.8064
   3258604.43345   2523121.82445  26324754.7784   26324757.4384
     -2057.3594      -1603.1374
 98  6 26 20 29 30.0090000  0  7G 6G30G10G26G17G23G22
  10893050.61647   8488612.07847  23143621.4424   23143622.4744
     -3711.6254      -2892.1754
  29914714.78245  23213506.14444  26765083.0134   26765086.9854
     -6687.7034      -5211.1974
  28761538.16245  22407183.43143  27068223.0204   27068227.0284
     -6584.2504      -5130.5844
   2511137.99446   1994454.32445  25226134.1534   25226135.7124
     -1766.7344      -1376.6764
   6746555.07747   5259124.91347  23741971.6614   23741973.7244
     -2403.4064      -1872.7844
  -1084830.77846   -791901.18246  24813314.0994   24813316.6534
      -690.1874       -537.8084
   3289538.84345   2547226.55245  26330641.8174   26330644.8644
     -2067.2814      -1610.8694
 98  6 26 20 29 45.0090000  0  7G 6G30G10G26G17G23G22
  10948795.07147   8532049.31347  23154229.1454   23154230.4114
     -3720.9224      -2899.4204
  30015047.77445  23291687.66645  26784176.2864   26784179.9314
     -6689.9844      -5212.9754
  28860321.22845  22484157.24043  27087020.4584   27087024.6184
     -6586.7504      -5132.5324
   2537714.37646   2015163.20445  25231191.1534   25231192.7824
     -1776.7974      -1384.5174
   6782642.56747   5287245.04447  23748839.0754   23748841.1024
     -2408.2344      -1876.5464
  -1074420.14746   -783788.97246  24815294.7634   24815297.3414
      -697.9064       -543.8234
   3320624.54745   2571449.19845  26336556.9894   26336560.1534
     -2077.5474      -1618.8684
 98  6 26 20 30  0.0090000  0  7G 6G30G10G26G17G23G22
  11004675.95947   8575592.86147  23164863.0524   23164864.2244
     -3729.9064      -2906.4204
  30115413.84445  23369894.91745  26803275.4274   26803279.8214
     -6692.2344      -5214.7284
  28959139.55744  22561158.49443  27105824.2634   27105826.2554
     -6589.1094      -5134.3714
   2564441.11946   2035989.25545  25236277.0834   25236279.0174
     -1786.8754      -1392.3704
   6818800.59147   5315420.13347  23755719.8174   23755721.8214
     -2412.9224      -1880.1994
  -1063895.78146   -775588.14746  24817297.7944   24817300.0914
      -705.4064       -549.6674
   3351864.25045   2595791.83645  26342501.3254   26342504.1264
     -2087.8124      -1626.8674
 98  6 26 20 30 15.0090000  0  7G 6G30G10G26G17G23G22
  11060690.87047   8619240.84147  23175522.2554   23175523.4384
     -3738.8444      -2913.3854
  30215812.50345  23448127.59045  26822380.8024   26822383.8604
     -6694.3754      -5216.3964
  29057992.85144  22638186.99242  27124636.3174   27124641.1814
     -6591.3754      -5136.1364
   2591317.00046   2056931.52345  25241391.3954   25241393.0364
     -1796.6414      -1399.9804
   6855028.45047   5343649.63647  23762613.9504   23762615.8494
     -2417.5624      -1883.8154
  -1053262.48046   -767302.43446  24819320.7944   24819323.2554
      -712.4374       -555.1464
   3383256.96245   2620253.69745  26348475.4034   26348479.4354
     -2098.0004      -1634.8054
 98  6 26 20 30 30.0090000  0  7G 6G30G10G26G17G23G22
  11116845.04747   8662997.33947  23186208.1534   23186209.3724
     -3748.4534      -2920.8734
  30316247.83345  23526388.83445  26841493.2084   26841495.9154
     -6696.9374      -5218.3934
  29156884.65044  22715245.51142  27143454.7084   27143459.4894
     -6594.2194      -5138.3524
   2618341.83546   2077989.85245  25246534.0754   25246536.1614
     -1806.5944      -1407.7354
   6891331.80747   5371937.97247  23769521.9814   23769524.1854
     -2422.8594      -1887.9424
  -1042518.79846   -758930.70746  24821365.2784   24821367.6224
      -720.0474       -561.0754
   3414808.61845   2644839.41945  26354479.4664   26354483.4154
     -2108.8754      -1643.2794
 98  6 26 20 30 45.0090000  0  7G 6G30G10G26G17G23G22
  11173142.88747   8706865.78547  23196921.1304   23196922.2554
     -3757.7344      -2928.1054
  30416717.61345  23604676.90145  26860611.4584   26860614.5174
     -6698.8284      -5219.8664
  29255817.14244  22792335.76543  27162281.0994   27162284.6854
     -6596.5784      -5140.1914
   2645513.92746   2099162.92945  25251704.6774   25251706.5174
     -1816.2504      -1415.2604
   6927712.44947   5400286.53047  23776445.1144   23776447.2004
     -2427.7344      -1891.7414
  -1031664.01446   -750472.40946  24823431.2004   24823433.5444
      -727.0944       -566.5674
   3446521.60545   2669550.85545  26360514.3884   26360517.5404
     -2119.4064      -1651.4854
 98  6 26 20 31  0.0090000  0  7G 6G30G10G26G17G23G22
  11229580.52447   8750843.16147  23207660.8884   23207662.0714
     -3767.0944      -2935.3984
  30517216.74545  23682987.85145  26879735.9744   26879739.4314
     -6700.8594      -5221.4494
  29354785.04144  22869453.58542  27181114.4034   27181121.7204
     -6599.0164      -5142.0904
   2672832.17746   2120449.89845  25256903.2864   25256904.9974
     -1825.9844      -1422.8454
   6964167.90147   5428693.38347  23783382.1454   23783384.0564
     -2432.8444      -1895.7224
  -1020702.07546   -741930.61846  24825516.9744   24825519.2944
      -734.2974       -572.1794
   3478395.37045   2694387.56645  26366579.4894   26366583.8844
     -2130.2034      -1659.8994
 98  6 26 20 31 15.0090000  0  7G 6G30G10G26G17G23G22
  11286157.91647   8794929.44147  23218427.3564   23218428.5054
     -3776.5624      -2942.7764
  30617744.81345  23761321.36044  26898866.5604   26898870.5444
     -6702.8284      -5222.9834
  29453790.20544  22946600.38842  27199954.1144   27199956.1654
     -6601.6414      -5144.1364
   2700296.26746   2141850.50945  25262129.5364   25262131.7864
     -1835.8444      -1430.5284
   7000700.68447   5457160.49547  23790334.1224   23790335.9744
     -2438.1254      -1899.8384
  -1009633.68746   -733305.87546  24827623.2164   24827625.6654
      -741.4694       -577.7684
   3510429.14045   2719348.96445  26372675.6614   26372678.3334
     -2140.9694      -1668.2874
 98  6 26 20 31 30.0090000  0  7G 6G30G10G26G17G23G22
  11342871.01647   8839121.46147  23229219.4354   23229220.7124
     -3785.5944      -2949.8134
  30718293.25345  23839670.73444  26918000.2704   26918004.0794
     -6704.0474      -5223.9334
  29552826.88944  23023771.82542  27218800.2244   27218803.5754
     -6603.6094      -5145.6704
   2727898.47646   2163358.74445  25267382.1144   25267383.9314
     -1844.8284      -1437.5284
   7037305.07047   5485683.40147  23797299.7314   23797301.6774
     -2442.8594      -1903.5274
   -998463.47346   -724601.79046  24829748.8414   24829750.9504
      -748.3124       -583.1014
   3542618.56645   2744431.65045  26378801.0994   26378803.8644
     -2151.3754      -1676.3964
 98  6 26 20 31 45.0090000  0  7G 6G30G10G26G17G23G22
  11399731.09547   8883428.01447  23240039.7244   23240040.7204
     -3795.5164      -2957.5454
  30818872.42645  23918044.06244  26937139.4744   26937142.0634
     -6706.2814      -5225.6744
  29651904.10344  23100974.85742  27237653.9814   27237658.2004
     -6606.4224      -5147.8614
   2755646.83246   2184980.85345  25272662.4194   25272664.3884
     -1854.7344      -1445.2484
   7073992.78147   5514271.22847  23804281.2554   23804283.2474
     -2448.5784      -1907.9834
   -987178.57246   -715808.33746  24831896.0914   24831898.5404
      -756.1564       -589.2134
   3574975.46345   2769644.81745  26384958.1774   26384960.8374
     -2162.6254      -1685.1624
 98  6 26 20 32  0.0090000  0  7G 6G30G10G26G17G23G22
  11456732.85947   8927844.97147  23250886.6384   23250887.8684
     -3804.9694      -2964.9114
  30919476.42745  23996436.73644  26956284.0284   26956286.6774
     -6707.7664      -5226.8304
  29751017.57844  23178206.08542  27256515.3254   27256520.7864
     -6608.9844      -5149.8584
   2783538.54546   2206714.68445  25277970.0994   25277971.8804
     -1864.3444      -1452.7354
   7110758.08147   5542919.52247  23811277.3724   23811279.4584
     -2453.7034      -1911.9764
   -975781.85746   -706927.75946  24834065.0444   24834067.5994
      -763.5944       -595.0084
   3607491.49145   2794981.99245  26391145.7474   26391149.0404
     -2172.9534      -1693.2104
 98  6 26 20 32 15.0090000  0  7G 6G30G10G26G17G23G22
  11513875.62547   8972371.80047  23261760.6924   23261761.8644
     -3814.0314      -2971.9724
  31020100.11545  24074844.75344  26975432.2004   26975435.1424
     -6708.6414      -5227.5124
  29850170.51044  23255468.08042  27275382.6224   27275385.6574
     -6611.3754      -5151.7214
   2811572.97546   2228559.71245  25283304.9424   25283306.6304
     -1873.5474      -1459.9074
   7147600.42447   5571627.84547  23818288.0914   23818290.1884
     -2458.5474      -1915.7514
   -964274.91446   -697961.28346  24836254.6854   24836256.9234
      -770.6414       -600.4994
   3640158.20345   2820436.59145  26397361.9814   26397364.7824
     -2182.6094      -1700.7354
 98  6 26 20 32 30.0090000  0  7G 6G30G10G26G17G23G22
  11571145.34947   9016997.55647  23272658.4664   23272659.6614
     -3821.9534      -2978.1454
  31120725.51245  24153254.07744  26994580.5364   26994584.3454
     -6708.1414      -5227.1234
  29949348.32744  23332749.50342  27294256.2244   27294259.5174
     -6612.3914      -5152.5124
   2839735.15546   2250504.28845  25288664.0674   25288665.7674
     -1881.4844      -1466.0924
   7184505.15647   5600384.78347  23825310.8884   23825313.0324
     -2462.0784      -1918.5024
   -952671.79646   -688919.87546  24838462.5524   24838464.7904
      -776.5784       -605.1264
   3672960.87145   2845997.11445  26403604.2944   26403606.9894
     -2191.0944      -1707.3464
 98  6 26 20 32 45.0090000  0  7G 6G30G10G26G17G23G22
  11628546.12147   9061725.42647  23283581.5834   23283582.7554
     -3831.7504      -2985.7794
  31221355.57045  24231667.06144  27013729.2084   27013731.5284
     -6709.4374      -5228.1334
  30048555.30744  23410053.63242  27313134.8804   27313140.2004
     -6615.3914      -5154.8504
   2868030.66646   2272552.76945  25294048.4584   25294050.3684
     -1891.5164      -1473.9084
   7221473.39647   5629191.20747  23832345.8494   23832347.9464
     -2467.1874      -1922.4844
   -940965.95246   -679798.40746  24840689.9274   24840692.3414
      -784.4064       -611.2264
   3705901.72045   2871665.32545  26409872.8724   26409875.9544
     -2201.1254      -1715.1624
 98  6 26 20 33  0.0090000  0  8G21G 6G30G10G26G17G23G22
      -295.43454                  27797819.3174
        58.3134
  11686101.37147   9106573.67247  23294534.0054   23294535.1884
     -3842.0004      -2993.7664
  31322013.20145  24310101.53144  27032884.1924   27032886.8294
     -6711.3754      -5229.6434
  30147813.05744  23487397.30242  27332022.7244   27332025.2554
     -6618.7344      -5157.4554
   2896486.11146   2294725.85045  25299463.2944   25299464.9814
     -1902.3124      -1482.3214
   7258524.99147   5658062.58247  23839396.4664   23839398.7514
     -2472.7504      -1926.8184
   -929134.40346   -670578.99346  24842941.5754   24842944.0014
      -792.9224       -617.8614
   3738998.46445   2897455.00645  26416170.8174   26416173.5954
     -2211.5004      -1723.2474
 98  6 26 20 33 15.0090000  0  8G21G 6G30G10G26G17G23G22
     -1147.60644                  27797657.4034
        55.2814
  11743802.80047   9151535.82247  23305514.1614   23305515.3334
     -3851.5314      -3001.1934
  31422693.37845  24388553.55644  27052043.0754   27052046.1574
     -6712.5944      -5230.5934
  30247114.41344  23564774.96542  27350919.3334   27350923.4934
     -6621.5004      -5159.6104
   2925095.11946   2317018.61045  25304907.3334   25304909.1144
     -1912.2194      -1490.0414
   7295651.50847   5686992.34047  23846461.3564   23846463.5954
     -2477.4534      -1930.4834
   -917182.50346   -661265.80646  24845215.5754   24845218.1424
      -800.6414       -623.8764
   3772241.92645   2923359.00345  26422496.7864   26422499.1884
     -2220.9374      -1730.6014
 98  6 26 20 33 30.0090000  0  8G21G 6G30G10G26G17G23G22
     -1948.92544                  27797504.6614
        50.9534
  11801650.48947   9196611.94147  23316522.2474   23316523.4664
     -3862.0784      -3009.4124
  31523393.50345  24467021.10544  27071205.5134   27071209.5564
     -6714.6254      -5232.1754
  30346460.36045  23642187.36843  27369823.9504   27369827.6064
     -6625.2034      -5162.4964
   2953856.09946   2339429.78445  25310380.4814   25310382.4384
     -1923.1874      -1498.5884
   7332851.79347   5715979.58047  23853540.3024   23853542.4464
     -2483.1094      -1934.8904
   -905111.57746   -651859.86546  24847512.8024   24847515.2744
      -809.4224       -630.7184
   3805630.40345   2949376.01145  26428850.9114   26428853.7704
     -2231.5004      -1738.8314
 98  6 26 20 33 45.0100000  0  8G21G 6G30G10G26G17G23G22
     -2691.34244                  27797363.5964
        47.5004
  11859654.04847   9241809.51747  23327559.8464   23327560.9004
     -3871.6874      -3016.8994
  31624124.58645  24545512.80443  27090374.5574   27090376.6894
     -6715.8124      -5233.1014
  30445862.64144  23719643.63343  27388739.3774   27388743.7134
     -6628.0784      -5164.7364
   2982778.67746   2361966.87945  25315884.2364   25315886.0064
     -1933.4224      -1506.5624
   7370132.05747   5745029.14347  23860634.5254   23860636.5764
     -2487.7664      -1938.5194
   -892914.33346   -642355.49546  24849833.8074   24849836.3034
      -817.1874       -636.7694
   3839174.04145   2975513.91545  26435233.4084   26435236.3964
     -2241.1874      -1746.3804
 98  6 26 20 34  0.0100000  0  8G21G 6G30G10G26G17G23G22
     -3375.03944      -243.25352  27797233.3224   27797238.4434
        44.0004         34.2864
  11917802.24847   9287119.79947  23338625.1894   23338626.4674
     -3881.0944      -3024.2294
  31724871.33745  24624016.71144  27109545.7134   27109549.2284
     -6716.7814      -5233.8564
  30545308.64645  23797134.01942  27407663.1824   27407668.5724
     -6631.0784      -5167.0744
   3011859.82746   2384627.52645  25321417.9634   25321419.8034
     -1943.7814      -1514.6354
   7407484.68947   5774135.09547  23867742.5254   23867744.7524
     -2492.2974      -1942.0504
   -880598.80946   -632758.95646  24852177.3694   24852179.9824
      -824.5624       -642.5164
   3872865.94445   3001767.35945  26441644.8224   26441647.1074
     -2250.7344      -1753.8194
 98  6 26 20 34 15.0100000  0  8G21G 6G30G10G26G17G23G22
     -4008.69443      -736.90642  27797111.9324   27797117.2994
        40.5784         31.6194
  11976090.00847   9332538.83447  23349716.9394   23349718.1354
     -3890.5784      -3031.6194
  31825630.79345  24702530.50544  27128719.9634   27128723.0804
     -6717.7974      -5234.6474
  30644799.33545  23874659.19243  27426596.0494   27426600.5494
     -6634.2974      -5169.5824
   3041094.29746   2407407.64845  25326981.1824   25326983.1854
     -1954.0944      -1522.6704
   7444904.82547   5803293.64447  23874863.3074   23874865.3934
     -2497.0474      -1945.7514
   -868175.80846   -623078.67246  24854541.3224   24854543.7714
      -831.7194       -648.0934
   3906699.46645   3028131.15445  26448083.6664   26448086.5494
     -2260.3914      -1761.3434
 98  6 26 20 34 30.0100000  0  8G21G 6G30G10G26G17G23G22
     -4592.14743     -1191.47442  27797001.8774   27797008.6154
        37.3284         29.0874
  12034521.29147   9378069.69447  23360836.4004   23360837.6434
     -3900.2034      -3039.1194
  31926408.22545  24781058.33244  27147897.1504   27147901.1114
     -6719.1874      -5235.7314
  30744337.89145  23952221.71943  27445537.9244   27445542.0964
     -6637.3914      -5171.9934
   3070485.02546   2430309.54045  25332573.8774   25332575.5294
     -1964.5944      -1530.8524
   7482397.73547   5832508.90747  23881998.0334   23882000.1544
     -2501.9224      -1949.5504
   -855645.89946   -613315.08646  24856925.9004   24856928.3964
      -838.8284       -653.6324
   3940681.63445   3054610.77145  26454549.9474   26454552.2684
     -2270.5004      -1769.2214
 98  6 26 20 34 45.0100000  0  8G21G 6G30G10G26G17G23G22
     -5126.89844     -1608.11442  27796900.0104   27796905.6824
        34.0474         26.5304
  12093098.89947   9423714.58447  23371983.1664   23371984.4084
     -3910.0314      -3046.7784
  32027209.62945  24859604.82143  27167079.5334   27167083.2714
     -6720.9224      -5237.0824
  30843921.82345  24029819.54043  27464488.1584   27464490.4674
     -6640.4064      -5174.3434
   3100033.34846   2453334.22445  25338196.9474   25338198.1894
     -1975.0314      -1538.9854
   7519964.37647   5861781.62047  23889146.6034   23889148.5024
     -2506.8124      -1953.3604
   -843009.90546   -603468.83746  24859330.2054   24859332.9244
      -845.8914       -659.1364
   3974814.29245   3081207.64645  26461045.1194   26461047.9324
     -2280.3754      -1776.9164
 98  6 26 20 35  0.0100000  0  8G21G 6G30G10G26G17G23G22
     -5609.27044     -1983.93743  27796808.5254   27796812.4394
        30.1414         23.4864
  12151825.28947   9469475.40447  23383158.5254   23383159.5214
     -3920.2034      -3054.7044
  32128039.38145  24938173.39144  27186266.6114   27186270.2914
     -6723.1094      -5238.7874
  30943553.33545  24107454.46043  27483446.4714   27483450.1974
     -6643.8284      -5177.0094
   3129738.74046   2476481.29245  25343849.8074   25343851.1664
     -1985.7504      -1547.3384
   7557606.03847   5891112.78747  23896309.7054   23896311.7914
     -2512.2664      -1957.6104
   -830265.96746   -593538.47146  24861755.4634   24861757.7604
      -853.3914       -664.9804
   4009097.40545   3107921.77545  26467569.1114   26467571.5844
     -2290.8284      -1785.0614
 98  6 26 20 35 15.0100000  0  8G21G 6G30G10G26G17G23G22
     -6035.48644     -2315.99143  27796726.5964   27796731.6704
        26.8134         20.8934
  12210698.15847   9515350.36147  23394361.6744   23394362.8574
     -3929.3754      -3061.8514
  32228896.26745  25016763.12743  27205458.5884   27205462.4204
     -6724.3594      -5239.7614
  31043231.32245  24185125.61243  27502414.6434   27502419.8224
     -6646.4844      -5179.0794
   3159600.00246   2499749.83145  25349531.9944   25349533.3774
     -1995.6094      -1555.0204
   7595327.99747   5920506.52847  23903487.8614   23903490.0064
     -2517.2034      -1961.4574
   -817413.18446   -583523.28846  24864201.0644   24864203.4204
      -860.1724       -670.2644
   4043535.36545   3134756.55845  26474121.7134   26474124.3144
     -2300.7814      -1792.8174
 98  6 26 20 35 30.0100000  0  8G21G 6G30G10G26G17G23G22
     -6410.62644     -2608.30042  27796655.3304   27796659.4674
        23.3284         18.1784
  12269710.74547   9561334.19247  23405591.2134   23405592.2914
     -3938.7974      -3069.1924
  32329773.22545  25095368.45644  27224654.8534   27224658.7684
     -6725.6874      -5240.7954
  31142951.99444  24262830.00543  27521391.1664   27521395.5964
     -6649.4844      -5181.4164
   3189610.97446   2523135.01645  25355243.0254   25355244.6434
     -2005.7344      -1562.9104
   7633126.69447   5949960.06147  23910680.7444   23910682.7364
     -2522.5474      -1965.6214
   -804458.67046   -573428.84146  24866666.1744   24866668.4824
      -867.0164       -675.5974
   4078125.94345   3161710.25945  26480704.9004   26480707.4674
     -2311.1414      -1800.8894
 98  6 26 20 35 45.0100000  0  8G21G 6G30G10G26G17G23G22
     -6735.71344     -2861.54042  27796593.3304   27796598.3344
        20.1884         15.7314
  12328861.60647   9607425.76447  23416847.2684   23416848.3934
     -3947.8914      -3076.2784
  32430667.97745  25173987.68644  27243854.8934   27243857.6354
     -6726.9064      -5241.7454
  31242714.69344  24340567.15643  27540375.1114   27540379.1194
     -6652.1254      -5183.4744
   3219771.69246   2546636.90645  25360982.4324   25360984.0964
     -2015.6414      -1570.6294
   7671003.96547   5979474.82347  23917888.3694   23917890.2564
     -2527.6094      -1969.5664
   -791402.29546   -563255.02146  24869150.7994   24869153.3304
      -873.7344       -680.8324
   4112870.24345   3188783.76645  26487316.1034   26487319.4554
     -2321.3444      -1808.8394
 98  6 26 20 36  0.0100000  0  8G21G 6G30G10G26G17G23G22
     -7013.93643     -3078.28242  27796538.6974   27796543.9124
        16.8594         13.1374
  12388151.02347   9653625.30947  23428129.6744   23428130.7754
     -3957.3594      -3083.6574
  32531585.41245  25252624.58643  27263057.9324   27263062.7364
     -6728.7814      -5243.2064
  31342518.90044  24418336.61842  27559367.1114   27559372.4204
     -6655.1254      -5185.8124
   3250082.70546   2570255.88645  25366750.3304   25366752.1464
     -2025.8594      -1578.5924
   7708959.61947   6009050.65847  23925111.3774   23925113.3814
     -2533.1874      -1973.9124
   -778243.28946   -553001.22946  24871654.9864   24871657.1434
      -880.8594       -686.3844
   4147769.24745   3215977.78745  26493957.4004   26493960.6704
     -2331.8754      -1817.0454
 98  6 26 20 36 15.0100000  0  8G21G 6G30G10G26G17G23G22
     -7244.03844     -3257.51742  27796496.5574   27796499.8504
        13.8594         10.8004
  12447580.59247   9699934.06347  23439438.7834   23439439.8504
     -3966.5944      -3090.8524
  32632528.68545  25331281.61044  27282267.6824   27282271.3034
     -6730.3124      -5244.3994
  31442364.73943  24496138.51143  27578368.0574   27578372.6154
     -6657.5944      -5187.7354
   3280544.70846   2593992.53645  25372546.8534   25372548.7284
     -2035.7034      -1586.2624
   7746997.66847   6038690.70347  23932349.8934   23932351.9434
     -2538.5474      -1978.0884
   -764976.64146   -542663.55946  24874179.4324   24874181.7754
      -888.0944       -692.0214
   4182824.30945   3243293.43645  26500628.1974   26500630.4594
     -2342.1094      -1825.0204
 98  6 26 20 36 30.0100000  0  8G21G 6G30G10G26G17G23G22
     -7428.65244     -3401.34843  27796460.8384   27796466.0534
        10.6564          8.3044
  12507149.21547   9746351.16547  23450774.4864   23450775.4594
     -3975.9064      -3098.1094
  32733495.28445  25409956.81544  27301480.8854   27301484.8574
     -6731.8754      -5245.6174
  31542245.71743  24573967.83742  27597374.1584   27597377.0294
     -6659.8444      -5189.4894
   3311152.43246   2617842.72945  25378371.4864   25378373.6194
     -2045.3914      -1593.8114
   7785116.10447   6068393.38547  23939603.3464   23939605.2794
     -2543.9064      -1982.2654
   -751599.25046   -532239.59046  24876725.0414   24876727.2914
      -895.6564       -697.9144
   4218033.29745   3270729.02045  26507328.2284   26507330.4904
     -2352.5164      -1833.1294
 98  6 26 20 36 45.0100000  0  8G21G 6G30G10G26G17G23G22
     -7564.51944     -3507.17642  27796435.9714   27796440.1074
         7.4844          5.8324
  12566855.46947   9792875.51747  23462136.0254   23462137.0924
     -3984.8914      -3105.1104
  32834483.01645  25488648.48644  27320698.2604   27320702.6194
     -6733.0784      -5246.5544
  31642156.27643  24651820.17342  27616386.9944   27616391.7524
     -6661.5624      -5190.8284
   3341903.51646   2641804.62545  25384223.0494   25384224.9474
     -2054.7034      -1601.0674
   7823311.18447   6098155.78747  23946871.7284   23946873.7324
     -2548.7194      -1986.0154
   -738106.51146   -521725.74746  24879292.6744   24879295.2874
      -903.3754       -703.9294
   4253397.83645   3298285.80845  26514057.7834   26514060.1394
     -2362.6564      -1841.0314
 98  6 26 20 37  0.0100000  0  8G21G 6G30G10G26G17G23G22
     -7648.06844     -3572.21642  27796419.4714   27796424.3224
         3.5634          2.7764
  12626698.70547   9839506.60647  23473523.7524   23473524.7604
     -3994.2504      -3112.4034
  32935489.11345  25567354.49143  27339918.1504   27339922.7684
     -6734.4064      -5247.5894
  31742095.92443  24729695.18042  27635404.8144   27635408.4244
     -6663.7974      -5192.5694
   3372796.11046   2665876.79645  25390101.5254   25390103.3774
     -2064.3914      -1608.6164
   7861580.18947   6127975.79847  23954154.1744   23954156.1664
     -2553.8594      -1990.0204
   -724493.63746   -511118.29446  24881882.9714   24881885.5144
      -911.7814       -710.4794
   4288915.19545   3325961.67845  26520816.6114   26520819.0964
     -2373.1094      -1849.1764
 98  6 26 20 37 15.0100000  0  8G21G 6G30G10G26G17G23G22
     -7677.20843     -3594.87142  27796414.2214   27796416.2364
         0.3284          0.2564
  12686676.93347   9886242.88747  23484937.4554   23484938.4164
     -4002.9374      -3119.1724
  33036508.85445  25646071.08343  27359142.8224   27359148.1194
     -6734.9064      -5247.9794
  31842064.62343  24807592.84042  27654428.3074   27654432.6194
     -6665.3124      -5193.7504
   3403832.54346   2690061.05445  25396007.6974   25396009.7834
     -2073.8594      -1615.9944
   7899922.92247   6157853.25447  23961450.5494   23961452.5644
     -2558.4844      -1993.6244
   -710757.81046   -500415.02546  24884497.0494   24884499.4044
      -919.6094       -716.5794
   4324587.36046   3353758.18545  26527605.0334   26527607.7524
     -2383.1874      -1857.0294
 98  6 26 20 37 30.0100000  0  8G21G 6G30G10G26G17G23G22
     -7655.84643     -3578.18442  27796418.0494   27796423.5454
        -3.2664         -2.5454
  12746791.12147   9933085.10347  23496376.5254   23496377.5104
     -4012.4224      -3126.5624
  33137540.64145  25724797.08544  27378368.6274   27378372.6234
     -6736.1414      -5248.9414
  31942059.62343  24885510.99542  27673456.4324   27673458.9044
     -6667.4534      -5195.4184
   3435015.71446   2714359.63445  25401941.8144   25401943.6894
     -2084.0314      -1623.9204
   7938335.45347   6187785.10447  23968759.9554   23968761.9124
     -2563.2814      -1997.3624
   -696902.31446   -489618.51746  24887133.6274   24887135.8304
      -927.9534       -723.0804
   4360413.55945   3381674.70745  26534422.2994   26534424.7134
     -2393.7814      -1865.2844
 98  6 26 20 37 45.0100000  0  8G21G 6G30G10G26G17G23G22
     -7583.93543     -3522.05042  27796431.1974   27796436.6704
        -6.3284         -4.9314
  12807045.59347   9980036.63647  23507842.6274   23507843.6004
     -4021.3914      -3133.5514
  33238588.59645  25803535.67944  27397597.4004   27397600.3184
     -6736.8284      -5249.4764
  32042083.90343  24963451.99242  27692490.6434   27692495.7754
     -6668.9844      -5196.6114
   3466347.58446   2738774.09445  25407903.9714   25407905.8814
     -2093.4534      -1631.2624
   7976817.29147   6217770.95547  23976082.9164   23976084.8384
     -2567.5004      -2000.6494
   -682923.53446   -478725.93746  24889793.4004   24889795.6624
      -935.8754       -729.2534
   4396396.88845   3409713.67445  26541269.5104   26541271.9004
     -2403.8754      -1873.1494
 98  6 26 20 38  0.0100000  0  8G21G 6G30G10G26G17G23G22
     -7467.50244     -3431.30842  27796453.2754   27796460.5454
        -9.4374         -7.3544
  12867433.03647  10027091.78047  23519334.2054   23519335.1544
     -4030.5004      -3140.6494
  33339645.78045  25882281.44243  27416828.2834   27416832.5254
     -6737.6414      -5250.1104
  32142126.64343  25041407.32642  27711528.5254   27711532.3464
     -6670.2814      -5197.6224
   3497819.23546   2763297.48445  25413892.8074   25413894.6004
     -2102.9374      -1638.6534
   8015358.14347   6247802.79147  23983417.0804   23983419.2254
     -2571.4844      -2003.7544
   -668826.74046   -467741.40246  24892475.8934   24892478.3534
      -943.8754       -735.4874
   4432529.44745   3437868.91145  26548145.1894   26548148.0374
     -2413.9534      -1881.0024
 98  6 26 20 38 15.0100000  0  8G21G 6G30G10G26G17G23G22
     -7301.82944     -3302.11342  27796484.8694   27796492.2914
       -12.8754        -10.0324
  12927958.26847  10074254.29747  23530851.5804   23530852.6934
     -4039.6724      -3147.7964
  33440714.30245  25961036.07444  27436060.6584   27436063.9864
     -6738.2974      -5250.6214
  32242190.43343  25119379.04642  27730569.5804   27730576.1434
     -6671.6874      -5198.7184
   3529432.97746   2787931.59145  25419908.9634   25419911.0604
     -2112.4224      -1646.0434
   8053959.73747   6277881.96547  23990762.7914   23990764.9824
     -2575.5624      -2006.9324
   -654608.77746   -456662.44746  24895181.6664   24895184.1034
      -952.0004       -741.8184
   4468812.31345   3466141.30445  26555049.1504   26555051.8224
     -2423.9224      -1888.7704
 98  6 26 20 38 30.0100000  0  8G21G 6G30G10G26G17G23G22
     -7082.31544     -3131.04442  27796526.7994   27796532.7284
       -16.4224        -12.7964
  12988621.52247  10121524.35747  23542395.5104   23542396.6934
     -4048.7194      -3154.8464
  33541792.28845  26039798.06344  27455295.8074   27455300.0724
     -6738.7344      -5250.9624
  32342275.15043  25197367.08042  27749615.6034   27749621.8734
     -6672.9374      -5199.6924
   3561190.51646   2812677.72945  25425951.9634   25425953.9554
     -2121.9224      -1653.4464
   8092622.54147   6308008.82747  23998120.0184   23998122.0334
     -2579.4374      -2009.9514
   -640268.52046   -445488.20146  24897910.2834   24897912.5574
      -959.9374       -748.0034
   4505245.71945   3494530.96345  26561982.6114   26561984.6394
     -2433.8444      -1896.5024
 98  6 26 20 38 45.0100000  0  8G21G 6G30G10G26G17G23G22
     -6804.68843     -2914.66243  27796579.6894   27796585.4784
       -20.5004        -15.9744
  13049423.86247  10168902.79947  23553965.6894   23553967.0024
     -4058.2034      -3162.2364
  33642880.97645  26118568.38244  27474532.0964   27474535.4594
     -6739.7034      -5251.7174
  32442382.92944  25275373.19442  27768665.1354   27768667.3384
     -6674.7504      -5201.1044
   3593095.61746   2837538.87146  25432023.1894   25432025.0064
     -2132.1094      -1661.3844
   8131346.85047   6338183.61547  24005488.8144   24005490.9124
     -2583.7504      -2013.3124
   -625808.44746   -434220.59246  24900662.1504   24900664.3534
      -967.9694       -754.2614
   4541832.77345   3523040.36245  26568945.3854   26568947.4244
     -2444.3754      -1904.7084
 98  6 26 20 39  0.0100000  0  8G21G 6G30G10G26G17G23G22
     -6468.67343     -2652.75342  27796643.1114   27796648.7604
       -24.1414        -18.8114
  13110368.25147  10216391.93247  23565563.2684   23565564.4394
     -4067.5314      -3169.5054
  33743983.20345  26197349.32744  27493771.5804   27493776.6074
     -6740.3914      -5252.2524
  32542518.26544  25353400.66342  27787720.6584   27787722.2524
     -6676.5474      -5202.5044
   3625155.37246   2862520.51545  25438123.9084   25438125.8654
     -2142.3754      -1669.3834
   8170134.95947   6368408.12347  24012870.2054   24012872.2794
     -2587.8914      -2016.5384
   -611230.28946   -422860.96346  24903436.1504   24903438.4594
      -975.5474       -760.1664
   4578574.76045   3551670.49945  26575936.7834   26575939.0214
     -2454.3284      -1912.4634
 98  6 26 20 39 15.0100000  0  8G21G 6G30G10G26G17G23G22
     -6079.05844     -2349.08842  27796717.7364   27796722.1314
       -27.5624        -21.4774
  13171451.76047  10263989.46447  23577186.9004   23577188.0964
     -4076.6874      -3176.6404
  33845095.58545  26276138.07644  27513012.7134   27513016.5574
     -6741.0474      -5252.7644
  32642681.22044  25431449.69942  27806781.2284   27806785.5534
     -6678.2974      -5203.8684
   3657370.40946   2887623.16245  25444254.3774   25444256.4394
     -2152.7194      -1677.4434
   8208986.19447   6398681.81647  24020263.3934   24020265.4904
     -2592.0784      -2019.8014
   -596541.10546   -411414.83046  24906231.5644   24906233.8964
      -982.7504       -765.7794
   4615465.33545   3580416.40145  26582956.8074   26582959.6314
     -2464.2504      -1920.1954
 98  6 26 20 39 30.0100000  0  8G21G 6G30G10G26G17G23G22
     -5636.11445     -2003.91842  27796802.2214   27796807.9164
       -31.3754        -24.4484
  13232673.50847  10311694.71947  23588837.1434   23588838.2914
     -4086.1874      -3184.0424
  33946219.85745  26354936.17544  27532255.4394   27532258.2754
     -6742.0784      -5253.5674
  32742872.45744  25509520.79642  27825846.8144   27825851.0924
     -6680.4844      -5205.5724
   3689742.51646   2912848.19245  25450414.3304   25450416.1584
     -2163.3914      -1685.7594
   8247902.79247   6429006.44047  24027668.6664   24027670.8694
     -2596.7194      -2023.4174
   -581744.17446   -399884.73446  24909047.4554   24909049.4594
      -990.0784       -771.4894
   4652506.90345   3609279.95045  26590005.7134   26590008.7714
     -2474.5314      -1928.2064
 98  6 26 20 39 45.0100000  0  8G21G 6G30G10G26G17G23G22
     -5137.26045     -1615.18043  27796897.0414   27796901.5534
       -35.1094        -27.3584
  13294036.42647  10359509.97547  23600514.2054   23600515.2254
     -4095.4224      -3191.2384
  34047357.09645  26433744.32943  27551501.3074   27551504.0494
     -6742.7664      -5254.1034
  32843095.78145  25587616.82042  27844918.2834   27844922.9594
     -6682.5474      -5207.1794
   3722270.48346   2938194.68245  25456604.4554   25456606.1314
     -2173.6094      -1693.7224
   8286889.16147   6459385.43347  24035087.4784   24035089.6584
     -2601.4694      -2027.1194
   -566837.57546   -388269.17746  24911883.9784   24911886.1234
      -997.4224       -777.2124
   4689700.14845   3638261.72045  26597082.9394   26597086.1624
     -2484.4694      -1935.9504
 98  6 26 20 40  0.0100000  0  8G21G 6G30G10G26G17G23G22
     -4580.62845     -1181.40443  27797002.6894   27797008.1394
       -39.2814        -30.6094
  13355538.12347  10407433.37247  23612217.5414   23612218.5374
     -4104.9534      -3198.6654
  34148503.20645  26512559.41143  27570748.7054   27570752.9594
     -6743.4844      -5254.6634
  32943350.78345  25665737.61843  27863996.8224   27864000.9124
     -6684.9534      -5209.0544
   3754953.56246   2963662.02945  25462823.7134   25462825.5534
     -2184.3594      -1702.0984
   8325948.74947   6489821.47847  24042520.6504   24042522.6314
     -2606.5944      -2031.1124
   -551820.85546   -376567.82446  24914741.6974   24914743.7834
     -1004.9844       -783.1054
   4727040.85345   3667358.37345  26604189.3464   26604192.2754
     -2494.4064      -1943.6934
 98  6 26 20 40 15.0100000  0  8G21G 6G30G10G26G17G23G22
     -3962.54645      -699.72543  27797120.4634   27797124.4474
       -43.1564        -33.6284
  13417181.96947  10455467.53247  23623947.8464   23623949.0064
     -4114.1564      -3205.8364
  34249658.30945  26591381.49643  27589997.9394   27590000.6704
     -6743.8444      -5254.9434
  33043641.72445  25743886.39342  27883080.7284   27883083.5414
     -6687.1724      -5210.7834
   3787797.84446   2989254.99246  25469073.8224   25469075.6154
     -2194.8754      -1710.2924
   8365083.64047   6520316.20447  24049967.5724   24049969.5414
     -2611.4064      -2034.8624
   -536692.76246   -364779.67746  24917620.3144   24917622.3534
     -1012.0784       -788.6324
   4764527.73145   3696568.93145  26611322.6114   26611325.6824
     -2503.8284      -1951.0354
 98  6 26 20 40 30.0100000  0  8G21G 6G30G10G26G17G23G22
     -3287.22445      -173.44342  27797248.9474   27797255.0294
       -47.2344        -36.8064
  13478960.08547  10503606.31247  23635703.9394   23635704.9824
     -4123.2664      -3212.9344
  34350816.66545  26670206.12843  27609248.1274   27609252.7214
     -6744.3124      -5255.3084
  33143964.62045  25822060.05043  27902172.0414   27902177.0684
     -6689.5624      -5212.6464
   3820799.06846   3014970.24545  25475353.6584   25475355.4864
     -2205.6724      -1718.7054
   8404289.32647   6550866.09047  24057428.1664   24057430.1824
     -2616.4374      -2038.7824
   -521460.49646   -352910.35346  24920518.9084   24920520.9714
     -1019.2504       -794.2214
   4802154.37245   3725888.40245  26618482.3614   26618485.7484
     -2513.4844      -1958.5594
 98  6 26 20 40 45.0100000  0  8G21G 6G30G10G26G17G23G22
     -2550.90745       400.36743  27797389.0964   27797392.1544
       -50.9064        -39.6674
  13540875.54147  10551852.12447  23647485.9004   23647487.1194
     -4132.1414      -3219.8504
  34451982.51445  26749036.59343  27628499.9004   27628503.8504
     -6744.4374      -5255.4064
  33244324.94045  25900262.87142  27921270.2214   27921274.8504
     -6691.8124      -5214.3994
   3853964.05946   3040813.10645  25481664.7054   25481666.7094
     -2216.3284      -1727.0094
   8443571.73347   6581475.76647  24064903.3384   24064905.2254
     -2621.1874      -2042.4844
   -506120.38246   -340957.00146  24923438.0414   24923440.1744
     -1026.0944       -799.5544
   4839927.67345   3755322.15445  26625670.8854   26625673.6274
     -2522.9374      -1965.9254
 98  6 26 20 41  0.0100000  0  8G21G 6G30G10G26G17G23G22
     -1760.66645      1016.19743  27797539.3534   27797543.4204
       -54.5784        -42.5284
  13602924.70047  10600202.11047  23659293.2524   23659294.4124
     -4141.2034      -3226.9124
  34553150.85545  26827869.00943  27647751.2364   27647756.8504
     -6744.7814      -5255.6744
  33344719.87645  25978492.66743  27940374.4324   27940378.2054
     -6694.2974      -5216.3354
   3887288.51946   3066780.23546  25488006.2214   25488007.5454
     -2227.0784      -1735.3864
   8482925.28247   6612140.87247  24072392.0724   24072394.1584
     -2626.0944      -2046.3074
   -490676.76646   -328922.99846  24926376.7444   24926378.9244
     -1033.2344       -805.1184
   4877841.67345   3784865.53645  26632885.3774   26632887.7214
     -2532.3754      -1973.2794
 98  6 26 20 41 15.0100000  0  8G21G 6G30G10G26G17G23G22
      -914.06145      1675.93743  27797700.3854   27797705.5764
       -58.3124        -45.4384
  13665109.96947  10648658.16147  23671126.9634   23671128.0884
     -4150.1094      -3233.8514
  34654324.02445  26906705.19843  27667003.7524   27667007.9474
     -6744.9534      -5255.8084
  33445152.24845  26056751.61342  27959486.0104   27959490.0764
     -6696.6094      -5218.1374
   3920773.90246   3092872.74546  25494378.4864   25494379.9164
     -2237.5314      -1743.5314
   8522353.68147   6642864.30247  24079895.0574   24079896.9784
     -2630.9844      -2050.1184
   -475123.54546   -316803.58246  24929336.5024   24929338.5644
     -1040.5164       -810.7914
   4915897.62545   3814519.52645  26640127.3224   26640130.6274
     -2541.7344      -1980.5724
 98  6 26 20 41 30.0100000  0  8G21G 6G30G10G26G17G23G22
        -4.73145      2384.53943  27797873.5724   27797877.6274
       -62.7194        -48.8724
  13727434.41947  10697222.66447  23682987.0184   23682988.1784
     -4159.6564      -3241.2914
  34755506.05845  26985548.26943  27686258.0334   27686262.0884
     -6745.7194      -5256.4044
  33545623.50344  26135040.89442  27978604.6274   27978609.1274
     -6699.3594      -5220.2804
   3954419.24646   3119089.91546  25500780.8934   25500782.2404
     -2248.2974      -1751.9204
   8561861.43447   6673649.56847  24087413.2754   24087415.2684
     -2636.5474      -2054.4524
   -459454.87546   -304594.20646  24932318.0024   24932320.0534
     -1048.4534       -816.9764
   4954101.26045   3844288.60845  26647397.4474   26647400.2014
     -2551.9374      -1988.5234
 98  6 26 20 41 45.0100000  0  8G21G 6G30G10G26G17G23G22
       962.88244      3138.53943  27798057.0644   27798061.7994
       -66.4224        -51.7574
  13789897.09347  10745894.87147  23694873.1434   23694874.3034
     -4168.8754      -3248.4744
  34856691.55245  27064394.04142  27705513.0254   27705515.5334
     -6745.8284      -5256.4894
  33646129.86244  26213357.54142  27997730.7994   27997734.6784
     -6701.6254      -5222.0454
   3988220.27246   3145428.38846  25507212.8614   25507214.3504
     -2258.5944      -1759.9434
   8601446.70547   6704495.23247  24094945.9244   24094947.9514
     -2641.6414      -2058.4214
   -443672.80946   -292296.47346  24935321.4164   24935323.7254
     -1055.9844       -822.8454
   4992451.99945   3874172.28845  26654694.7284   26654697.2484
     -2561.6414      -1996.0844
 98  6 26 20 42  0.0110000  0  8G21G 6G30G10G26G17G23G22
      1988.76844      3938.01243  27798252.3514   27798257.1554
       -70.3594        -54.8254
  13852504.33147  10794679.72847  23706787.0224   23706788.1834
     -4178.1874      -3255.7314
  34957888.94145  27143249.08342  27724770.5614   27724774.5344
     -6746.2504      -5256.8184
  33746679.06544  26291707.50942  28016865.3434   28016867.2064
     -6703.9844      -5223.8844
   4022180.39546   3171890.83546  25513675.4604   25513677.2884
     -2269.0784      -1768.1134
   8641112.74947   6735403.83947  24102494.1794   24102496.2294
     -2646.6724      -2062.3424
   -427773.14646   -279907.10146  24938346.8434   24938349.2104
     -1063.7504       -828.8964
   5030952.84245   3904172.95745  26662021.6474   26662024.6594
     -2571.4374      -2003.7184
 98  6 26 20 42 15.0110000  0  8G21G 6G30G10G26G17G23G22
      3072.47845      4782.52443  27798458.5544   27798462.6554
       -74.1414        -57.7724
  13915247.01847  10843570.12847  23718726.5464   23718727.7654
     -4187.4844      -3262.9754
  35059086.61645  27222104.29943  27744027.7334   27744030.6984
     -6746.7974      -5257.2444
  33847255.43744  26370078.68642  28036003.8824   28036009.7534
     -6706.2194      -5225.6254
   4056293.32546   3198472.35446  25520166.9364   25520168.7654
     -2279.2974      -1776.0754
   8680848.28447   6766366.59947  24110055.5154   24110057.8004
     -2651.3914      -2066.0194
   -411759.89446   -267429.22046  24941393.9764   24941396.2144
     -1071.3284       -834.8014
   5069598.46045   3934286.43845  26669375.8194   26669378.2804
     -2581.4064      -2011.4854
 98  6 26 20 42 30.0110000  0  8G21G 6G30G10G26G17G23G22
      4214.89645      5672.76044  27798676.0614   27798680.2574
       -77.8444        -60.6574
  13978130.09147  10892569.92247  23730692.7334   23730693.9874
     -4196.6414      -3270.1104
  35160295.14344  27300968.05442  27763286.7964   27763291.4014
     -6747.2974      -5257.6344
  33947863.85344  26448474.83842  28055148.7884   28055153.1364
     -6707.9064      -5226.9404
   4090559.36846   3225173.18146  25526686.9914   25526688.8544
     -2289.2034      -1783.7954
   8720655.99947   6797385.60347  24117630.7574   24117632.9484
     -2655.9694      -2069.5864
   -395631.98846   -254861.99846  24944463.2654   24944465.3394
     -1078.7344       -840.5724
   5108397.28445   3964519.28645  26676758.6014   26676762.0694
     -2591.5164      -2019.3634
 98  6 26 20 42 45.0110000  0  8G21G 6G30G10G26G17G23G22
      5411.98745      6605.60744  27798904.3584   27798910.3004
       -81.6724        -63.6404
  14041152.51647  10941678.29747  23742685.5774   23742686.7724
     -4206.3444      -3277.6704
  35261509.58444  27379836.35043  27782547.3584   27782551.2144
     -6747.9374      -5258.1334
  34048496.64444  26526890.04341  28074299.0614   28074304.7454
     -6709.7974      -5228.4134
   4124974.34446   3251990.06446  25533236.3584   25533238.2454
     -2299.4224      -1791.7574
   8760532.17147   6828457.94447  24125218.9764   24125221.2374
     -2660.8124      -2073.3604
   -379392.73746   -242208.02046  24947553.2724   24947555.6404
     -1086.4694       -846.5994
   5147349.66945   3994871.80545  26684171.0464   26684174.6674
     -2602.1254      -2027.6304
 98  6 26 20 43  0.0110000  0  8G21G 6G30G10G26G17G23G22
      6665.37244      7582.32543  27799141.8514   27799146.1864
       -85.3754        -66.5264
  14104320.33547  10990899.97047  23754705.9524   23754707.2654
     -4216.0004      -3285.1954
  35362733.22644  27458711.86742  27801810.1084   27801815.5584
     -6748.5314      -5258.5964
  34149156.74544  26605326.42141  28093453.6864   28093456.5584
     -6711.4534      -5229.7044
   4159541.54546   3278925.55146  25539813.9294   25539816.2494
     -2309.4844      -1799.5984
   8800478.21147   6859584.73347  24132820.3194   24132822.4404
     -2665.2814      -2076.8434
   -363037.27346   -229463.48346  24950665.4834   24950667.7104
     -1094.2664       -852.6754
   5186460.17245   4025347.53445  26691613.8114   26691616.9644
     -2612.5944      -2035.7874
 98  6 26 20 43 15.0110000  0  8G21G 6G30G10G26G17G23G22
      7976.37844      8603.93343  27799391.0854   27799394.3084
       -89.6724        -69.8744
  14167635.66047  11040236.58247  23766754.5384   23766755.5934
     -4226.2974      -3293.2184
  35463969.47945  27537597.17243  27821074.2184   27821076.2924
     -6749.8754      -5259.6434
  34249842.13945  26683782.66441  28112613.8584   28112616.7764
     -6713.5164      -5231.3114
   4194262.30846   3305980.71346  25546421.3904   25546423.6754
     -2320.1874      -1807.9384
   8840495.21147   6890766.81647  24140435.3974   24140437.5074
     -2670.5474      -2080.9464
   -346561.74546   -216625.39446  24953800.8744   24953803.2184
     -1102.7344       -859.2744
   5225730.58145   4055947.85045  26699086.3514   26699089.4914
     -2623.7344      -2044.4684
 98  6 26 20 43 30.0110000  0  8G21G 6G30G10G26G17G23G22
      9349.83644      9674.20743  27799652.6404   27799658.4174
       -93.5164        -72.8694
  14231104.56947  11089692.86847  23778832.2494   23778833.5034
     -4236.2974      -3301.0114
  35565224.09144  27616496.78442  27840342.7334   27840346.3784
     -6750.8444      -5260.3984
  34350556.32245  26762261.22341  28131778.8274   28131782.2494
     -6715.1564      -5232.5894
   4229141.76946   3333159.52746  25553058.7964   25553060.2614
     -2330.4534      -1815.9374
   8880589.03747   6922008.76347  24148064.8354   24148066.9914
     -2675.3914      -2084.7204
   -329960.87146   -203689.62446  24956959.7574   24956962.0894
     -1110.7344       -865.5074
   5265167.77645   4086678.12845  26706591.0934   26706594.0694
     -2634.6254      -2052.9554
 98  6 26 20 43 45.0110000  0  7G21G 6G30G26G17G23G22
     10782.15544     10790.35543  27799925.5384   27799930.2964
       -97.2664        -75.7914
  14294725.67247  11139267.75047  23790938.8744   23790940.1164
     -4246.3284      -3308.8274
  35666495.27245  27695409.30943  27859613.6084   27859616.2804
     -6751.7504      -5261.1044
   4264178.15646   3360460.62346  25559725.7494   25559727.8004
     -2340.9224      -1824.0954
   8920757.09947   6953308.55447  24155708.5464   24155710.7964
     -2680.1564      -2088.4334
   -313238.90446   -190659.50346  24960141.8274   24960144.3354
     -1118.7034       -871.7174
   5304770.94446   4117537.74545  26714127.3354   26714130.2534
     -2645.6094      -2061.5144
 98  6 26 20 44  0.0110000  0  7G21G 6G30G26G17G23G22
     12268.37844     11948.47843  27800207.5074   27800212.1594
      -100.9374        -78.6534
  14358494.10747  11188957.43547  23803073.9214   23803075.1164
     -4256.0474      -3316.4004
  35767778.85645  27774331.48943  27878887.8824   27878891.8194
     -6752.7504      -5261.8834
   4299369.57046   3387882.51346  25566422.8664   25566424.8934
     -2351.2194      -1832.1194
   8960991.51247   6984660.05247  24163365.0384   24163367.1714
     -2684.3754      -2091.7214
   -296398.54846   -177537.12446  24963346.2804   24963348.9644
     -1126.6564       -877.9144
   5344534.68046   4148522.48345  26721694.5224   26721698.0384
     -2656.1564      -2069.7324
 98  6 26 20 44 15.0110000  0  7G21G 6G30G26G17G23G22
     13812.18544     13151.51943  27800501.6794   27800504.7844
      -104.7344        -81.6114
  14422407.96447  11238760.43747  23815236.2494   23815237.5264
     -4265.7034      -3323.9254
  35869078.96545  27853266.56143  27898164.5304   27898169.1944
     -6753.7814      -5262.6874
   4334716.41046   3415425.50646  25573149.0694   25573150.9684
     -2361.5944      -1840.2034
   9001289.43147   7016061.03847  24171033.4214   24171035.5424
     -2688.5164      -2094.9474
   -279437.89446   -164321.00846  24966573.8514   24966576.0074
     -1134.6254       -884.1234
   5384457.27745   4179631.00245  26729290.9604   26729294.2764
     -2666.7504      -2077.9874
 98  6 26 20 44 30.0110000  0  7G21G 6G30G26G17G23G22
     15410.63044     14397.12543  27800805.9834   27800810.2374
      -108.6254        -84.6434
  14486464.98747  11288674.99047  23827425.8354   23827427.0424
     -4275.3914      -3331.4734
  35970392.47845  27932212.11143  27917444.3664   27917449.3584
     -6754.8754      -5263.5394
   4370218.21446   3443089.26446  25579904.5384   25579906.0614
     -2372.2814      -1848.5314
   9041649.21447   7047510.22447  24178713.7654   24178715.9334
     -2693.0314      -2098.4664
   -262359.15946   -151012.88346  24969823.8824   24969826.1204
     -1142.7974       -890.4914
   5424538.32646   4210862.99245  26736918.2804   26736921.7024
     -2677.5784      -2086.4254
 98  6 26 20 44 45.0110000  0  7G21G 6G30G26G17G23G22
     17066.85544     15687.70943  27801121.6634   27801125.4134
      -112.1094        -87.3584
  14550665.86447  11338701.64847  23839642.7494   23839643.9794
     -4284.6094      -3338.6574
  36071721.42345  28011169.65643  27936725.8824   27936730.4294
     -6755.5624      -5264.0754
   4405881.96046   3470879.20446  25586691.2494   25586693.2534
     -2382.8444      -1856.7614
   9082076.22547   7079011.79747  24186406.7024   24186408.6594
     -2697.2034      -2101.7174
   -245157.03246   -137608.60946  24973097.5074   24973099.6634
     -1150.7664       -896.7004
   5464779.68646   4242219.88445  26744575.9994   26744578.9644
     -2687.8284      -2094.4124
 98  6 26 20 45  0.0110000  0  7G21G 6G30G26G17G23G22
     18774.83044     17018.67143  27801446.6714   27801449.9174
      -115.9844        -90.3774
  14615002.42247  11388834.02347  23851885.6404   23851886.6944
     -4293.8754      -3345.8774
  36173060.69945  28090135.24444  27956010.9214   27956015.1284
     -6756.7504      -5265.0004
   4441703.03746   3498791.74446  25593507.6014   25593509.7684
     -2393.6724      -1865.1994
   9122566.54847   7110562.70247  24194111.5304   24194113.6514
     -2701.9224      -2105.3944
   -227835.63646   -124111.39546  24976393.4914   24976395.5304
     -1159.0944       -903.1904
   5505172.64545   4273694.93845  26752262.6164   26752265.1124
     -2698.2344      -2102.5204
